<?xml version="1.0" encoding="UTF-8" standalone="no" ?>
<gpx xmlns="http://www.topografix.com/GPX/1/1" xmlns:xsi="http://www.w3.org/2001/XMLSchema-instance" xsi:schemaLocation="http://www.topografix.com/GPX/1/1 http://www.topografix.com/GPX/1/1/gpx.xsd" version="1.1" creator="VisuGPX - https://www.visugpx.com">
  <metadata>
    <name>Sortie montagne aux Andélys 20 09 2015</name>
    <desc><![CDATA[Brumeux au départ puis grand soleil.]]></desc>
  </metadata>
  <trk>
    <name><![CDATA[Actuel: 20 SEPT 2015 09:12]]></name>
    <trkseg>
      <trkpt lat="49.24398" lon="1.43055">
        <ele>97.91</ele>
        <time>2015-09-20T07:14:20Z</time>
      </trkpt>
      <trkpt lat="49.2441" lon="1.43046">
        <ele>98.04</ele>
        <time>2015-09-20T07:14:22Z</time>
      </trkpt>
      <trkpt lat="49.24419" lon="1.43041">
        <ele>98.13</ele>
        <time>2015-09-20T07:14:23Z</time>
      </trkpt>
      <trkpt lat="49.24421" lon="1.43037">
        <ele>98.29</ele>
        <time>2015-09-20T07:14:24Z</time>
      </trkpt>
      <trkpt lat="49.24428" lon="1.42977">
        <ele>101.42</ele>
        <time>2015-09-20T07:14:38Z</time>
      </trkpt>
      <trkpt lat="49.244" lon="1.42923">
        <ele>104.44</ele>
        <time>2015-09-20T07:14:54Z</time>
      </trkpt>
      <trkpt lat="49.24373" lon="1.42873">
        <ele>107.59</ele>
        <time>2015-09-20T07:15:09Z</time>
      </trkpt>
      <trkpt lat="49.24335" lon="1.42836">
        <ele>110.63</ele>
        <time>2015-09-20T07:15:25Z</time>
      </trkpt>
      <trkpt lat="49.24302" lon="1.42801">
        <ele>113.66</ele>
        <time>2015-09-20T07:15:39Z</time>
      </trkpt>
      <trkpt lat="49.24251" lon="1.42781">
        <ele>116.31</ele>
        <time>2015-09-20T07:15:56Z</time>
      </trkpt>
      <trkpt lat="49.24217" lon="1.42784">
        <ele>119.37</ele>
        <time>2015-09-20T07:16:11Z</time>
      </trkpt>
      <trkpt lat="49.24192" lon="1.42796">
        <ele>122.5</ele>
        <time>2015-09-20T07:16:28Z</time>
      </trkpt>
      <trkpt lat="49.24152" lon="1.4281">
        <ele>125.6</ele>
        <time>2015-09-20T07:16:45Z</time>
      </trkpt>
      <trkpt lat="49.24115" lon="1.42795">
        <ele>128.62</ele>
        <time>2015-09-20T07:17:01Z</time>
      </trkpt>
      <trkpt lat="49.24087" lon="1.42748">
        <ele>131.86</ele>
        <time>2015-09-20T07:17:18Z</time>
      </trkpt>
      <trkpt lat="49.24074" lon="1.42702">
        <ele>134.9</ele>
        <time>2015-09-20T07:17:35Z</time>
      </trkpt>
      <trkpt lat="49.24053" lon="1.42652">
        <ele>138.02</ele>
        <time>2015-09-20T07:17:51Z</time>
      </trkpt>
      <trkpt lat="49.2403" lon="1.42606">
        <ele>141.22</ele>
        <time>2015-09-20T07:18:08Z</time>
      </trkpt>
      <trkpt lat="49.23992" lon="1.42578">
        <ele>144.27</ele>
        <time>2015-09-20T07:18:26Z</time>
      </trkpt>
      <trkpt lat="49.23941" lon="1.42566">
        <ele>147.34</ele>
        <time>2015-09-20T07:18:43Z</time>
      </trkpt>
      <trkpt lat="49.23902" lon="1.42558">
        <ele>150.55</ele>
        <time>2015-09-20T07:19:00Z</time>
      </trkpt>
      <trkpt lat="49.23875" lon="1.42541">
        <ele>153.57</ele>
        <time>2015-09-20T07:19:16Z</time>
      </trkpt>
      <trkpt lat="49.23878" lon="1.42531">
        <ele>153.98</ele>
        <time>2015-09-20T07:19:19Z</time>
      </trkpt>
      <trkpt lat="49.23879" lon="1.42528">
        <ele>154.15</ele>
        <time>2015-09-20T07:19:20Z</time>
      </trkpt>
      <trkpt lat="49.2388" lon="1.42525">
        <ele>154.3</ele>
        <time>2015-09-20T07:19:21Z</time>
      </trkpt>
      <trkpt lat="49.23882" lon="1.42523">
        <ele>154.41</ele>
        <time>2015-09-20T07:19:22Z</time>
      </trkpt>
      <trkpt lat="49.23884" lon="1.42522">
        <ele>154.55</ele>
        <time>2015-09-20T07:19:23Z</time>
      </trkpt>
      <trkpt lat="49.23887" lon="1.42519">
        <ele>154.71</ele>
        <time>2015-09-20T07:19:24Z</time>
      </trkpt>
      <trkpt lat="49.23929" lon="1.42503">
        <ele>157.83</ele>
        <time>2015-09-20T07:19:43Z</time>
      </trkpt>
      <trkpt lat="49.23966" lon="1.42495">
        <ele>160.94</ele>
        <time>2015-09-20T07:20:01Z</time>
      </trkpt>
      <trkpt lat="49.2401" lon="1.42481">
        <ele>164.09</ele>
        <time>2015-09-20T07:20:20Z</time>
      </trkpt>
      <trkpt lat="49.23978" lon="1.42439">
        <ele>166.35</ele>
        <time>2015-09-20T07:20:40Z</time>
      </trkpt>
      <trkpt lat="49.23934" lon="1.42433">
        <ele>169.37</ele>
        <time>2015-09-20T07:20:58Z</time>
      </trkpt>
      <trkpt lat="49.23895" lon="1.42426">
        <ele>172.45</ele>
        <time>2015-09-20T07:21:15Z</time>
      </trkpt>
      <trkpt lat="49.23862" lon="1.42424">
        <ele>175.63</ele>
        <time>2015-09-20T07:21:30Z</time>
      </trkpt>
      <trkpt lat="49.23816" lon="1.42414">
        <ele>178.67</ele>
        <time>2015-09-20T07:21:44Z</time>
      </trkpt>
      <trkpt lat="49.23775" lon="1.42409">
        <ele>181.71</ele>
        <time>2015-09-20T07:22:00Z</time>
      </trkpt>
      <trkpt lat="49.23755" lon="1.4241">
        <ele>183.35</ele>
        <time>2015-09-20T07:22:08Z</time>
      </trkpt>
      <trkpt lat="49.23754" lon="1.42412">
        <ele>183.55</ele>
        <time>2015-09-20T07:22:09Z</time>
      </trkpt>
      <trkpt lat="49.23754" lon="1.42414">
        <ele>183.65</ele>
        <time>2015-09-20T07:22:10Z</time>
      </trkpt>
      <trkpt lat="49.23756" lon="1.42415">
        <ele>183.57</ele>
        <time>2015-09-20T07:22:11Z</time>
      </trkpt>
      <trkpt lat="49.23758" lon="1.42415">
        <ele>183.41</ele>
        <time>2015-09-20T07:22:12Z</time>
      </trkpt>
      <trkpt lat="49.23761" lon="1.42414">
        <ele>183.3</ele>
        <time>2015-09-20T07:22:13Z</time>
      </trkpt>
      <trkpt lat="49.23765" lon="1.42414">
        <ele>183.14</ele>
        <time>2015-09-20T07:22:14Z</time>
      </trkpt>
      <trkpt lat="49.23769" lon="1.42413">
        <ele>182.87</ele>
        <time>2015-09-20T07:22:15Z</time>
      </trkpt>
      <trkpt lat="49.23783" lon="1.42416">
        <ele>182.14</ele>
        <time>2015-09-20T07:22:18Z</time>
      </trkpt>
      <trkpt lat="49.23788" lon="1.42416">
        <ele>181.67</ele>
        <time>2015-09-20T07:22:19Z</time>
      </trkpt>
      <trkpt lat="49.23792" lon="1.42417">
        <ele>181.25</ele>
        <time>2015-09-20T07:22:20Z</time>
      </trkpt>
      <trkpt lat="49.23833" lon="1.42422">
        <ele>177.93</ele>
        <time>2015-09-20T07:22:28Z</time>
      </trkpt>
      <trkpt lat="49.2387" lon="1.42428">
        <ele>174.62</ele>
        <time>2015-09-20T07:22:35Z</time>
      </trkpt>
      <trkpt lat="49.23919" lon="1.42436">
        <ele>171.07</ele>
        <time>2015-09-20T07:22:42Z</time>
      </trkpt>
      <trkpt lat="49.23959" lon="1.4244">
        <ele>167.95</ele>
        <time>2015-09-20T07:22:48Z</time>
      </trkpt>
      <trkpt lat="49.23981" lon="1.42444">
        <ele>166.66</ele>
        <time>2015-09-20T07:22:51Z</time>
      </trkpt>
      <trkpt lat="49.23989" lon="1.42448">
        <ele>166.03</ele>
        <time>2015-09-20T07:22:52Z</time>
      </trkpt>
      <trkpt lat="49.23994" lon="1.42452">
        <ele>165.62</ele>
        <time>2015-09-20T07:22:53Z</time>
      </trkpt>
      <trkpt lat="49.23997" lon="1.42458">
        <ele>165.19</ele>
        <time>2015-09-20T07:22:54Z</time>
      </trkpt>
      <trkpt lat="49.24" lon="1.42464">
        <ele>164.78</ele>
        <time>2015-09-20T07:22:55Z</time>
      </trkpt>
      <trkpt lat="49.24001" lon="1.42471">
        <ele>164.4</ele>
        <time>2015-09-20T07:22:56Z</time>
      </trkpt>
      <trkpt lat="49.24001" lon="1.42477">
        <ele>164.08</ele>
        <time>2015-09-20T07:22:57Z</time>
      </trkpt>
      <trkpt lat="49.23998" lon="1.42482">
        <ele>163.76</ele>
        <time>2015-09-20T07:22:58Z</time>
      </trkpt>
      <trkpt lat="49.23995" lon="1.42485">
        <ele>163.44</ele>
        <time>2015-09-20T07:22:59Z</time>
      </trkpt>
      <trkpt lat="49.23991" lon="1.42488">
        <ele>163.15</ele>
        <time>2015-09-20T07:23:00Z</time>
      </trkpt>
      <trkpt lat="49.23986" lon="1.42489">
        <ele>162.84</ele>
        <time>2015-09-20T07:23:01Z</time>
      </trkpt>
      <trkpt lat="49.23981" lon="1.42491">
        <ele>162.45</ele>
        <time>2015-09-20T07:23:02Z</time>
      </trkpt>
      <trkpt lat="49.23975" lon="1.42492">
        <ele>162.17</ele>
        <time>2015-09-20T07:23:03Z</time>
      </trkpt>
      <trkpt lat="49.23926" lon="1.42499">
        <ele>158.77</ele>
        <time>2015-09-20T07:23:10Z</time>
      </trkpt>
      <trkpt lat="49.23885" lon="1.42505">
        <ele>155.67</ele>
        <time>2015-09-20T07:23:17Z</time>
      </trkpt>
      <trkpt lat="49.23877" lon="1.42508">
        <ele>155.09</ele>
        <time>2015-09-20T07:23:19Z</time>
      </trkpt>
      <trkpt lat="49.23874" lon="1.42511">
        <ele>154.87</ele>
        <time>2015-09-20T07:23:20Z</time>
      </trkpt>
      <trkpt lat="49.23871" lon="1.42514">
        <ele>154.69</ele>
        <time>2015-09-20T07:23:21Z</time>
      </trkpt>
      <trkpt lat="49.23874" lon="1.42517">
        <ele>154.2</ele>
        <time>2015-09-20T07:23:24Z</time>
      </trkpt>
      <trkpt lat="49.23877" lon="1.42515">
        <ele>154.14</ele>
        <time>2015-09-20T07:23:25Z</time>
      </trkpt>
      <trkpt lat="49.23915" lon="1.42501">
        <ele>157.29</ele>
        <time>2015-09-20T07:23:42Z</time>
      </trkpt>
      <trkpt lat="49.23961" lon="1.42496">
        <ele>160.57</ele>
        <time>2015-09-20T07:23:58Z</time>
      </trkpt>
      <trkpt lat="49.23997" lon="1.42482">
        <ele>163.64</ele>
        <time>2015-09-20T07:24:13Z</time>
      </trkpt>
      <trkpt lat="49.23998" lon="1.42446">
        <ele>164.64</ele>
        <time>2015-09-20T07:24:23Z</time>
      </trkpt>
      <trkpt lat="49.23996" lon="1.42444">
        <ele>164.8</ele>
        <time>2015-09-20T07:24:24Z</time>
      </trkpt>
      <trkpt lat="49.23993" lon="1.42442">
        <ele>164.92</ele>
        <time>2015-09-20T07:24:25Z</time>
      </trkpt>
      <trkpt lat="49.23991" lon="1.42441">
        <ele>165.01</ele>
        <time>2015-09-20T07:24:26Z</time>
      </trkpt>
      <trkpt lat="49.23988" lon="1.4244">
        <ele>165.1</ele>
        <time>2015-09-20T07:24:27Z</time>
      </trkpt>
      <trkpt lat="49.23942" lon="1.42431">
        <ele>168.12</ele>
        <time>2015-09-20T07:24:44Z</time>
      </trkpt>
      <trkpt lat="49.23901" lon="1.42422">
        <ele>171.21</ele>
        <time>2015-09-20T07:25:01Z</time>
      </trkpt>
      <trkpt lat="49.23866" lon="1.42422">
        <ele>174.23</ele>
        <time>2015-09-20T07:25:17Z</time>
      </trkpt>
      <trkpt lat="49.23832" lon="1.42418">
        <ele>177.38</ele>
        <time>2015-09-20T07:25:32Z</time>
      </trkpt>
      <trkpt lat="49.23783" lon="1.42409">
        <ele>180.47</ele>
        <time>2015-09-20T07:25:47Z</time>
      </trkpt>
      <trkpt lat="49.2375" lon="1.42402">
        <ele>183.19</ele>
        <time>2015-09-20T07:26:02Z</time>
      </trkpt>
      <trkpt lat="49.23748" lon="1.42397">
        <ele>183.33</ele>
        <time>2015-09-20T07:26:04Z</time>
      </trkpt>
      <trkpt lat="49.23748" lon="1.42395">
        <ele>183.44</ele>
        <time>2015-09-20T07:26:05Z</time>
      </trkpt>
      <trkpt lat="49.23748" lon="1.42393">
        <ele>183.47</ele>
        <time>2015-09-20T07:26:06Z</time>
      </trkpt>
      <trkpt lat="49.23749" lon="1.42391">
        <ele>183.51</ele>
        <time>2015-09-20T07:26:07Z</time>
      </trkpt>
      <trkpt lat="49.23749" lon="1.42389">
        <ele>183.57</ele>
        <time>2015-09-20T07:26:08Z</time>
      </trkpt>
      <trkpt lat="49.23749" lon="1.42388">
        <ele>183.59</ele>
        <time>2015-09-20T07:26:09Z</time>
      </trkpt>
      <trkpt lat="49.2375" lon="1.42386">
        <ele>183.59</ele>
        <time>2015-09-20T07:26:10Z</time>
      </trkpt>
      <trkpt lat="49.23751" lon="1.42385">
        <ele>183.6</ele>
        <time>2015-09-20T07:26:11Z</time>
      </trkpt>
      <trkpt lat="49.23752" lon="1.42383">
        <ele>183.66</ele>
        <time>2015-09-20T07:26:12Z</time>
      </trkpt>
      <trkpt lat="49.23752" lon="1.42381">
        <ele>183.74</ele>
        <time>2015-09-20T07:26:13Z</time>
      </trkpt>
      <trkpt lat="49.23752" lon="1.4238">
        <ele>183.8</ele>
        <time>2015-09-20T07:26:14Z</time>
      </trkpt>
      <trkpt lat="49.23751" lon="1.42381">
        <ele>183.83</ele>
        <time>2015-09-20T07:26:15Z</time>
      </trkpt>
      <trkpt lat="49.23751" lon="1.42382">
        <ele>183.85</ele>
        <time>2015-09-20T07:26:16Z</time>
      </trkpt>
      <trkpt lat="49.23751" lon="1.42384">
        <ele>183.84</ele>
        <time>2015-09-20T07:26:17Z</time>
      </trkpt>
      <trkpt lat="49.23751" lon="1.42386">
        <ele>183.84</ele>
        <time>2015-09-20T07:26:18Z</time>
      </trkpt>
      <trkpt lat="49.23751" lon="1.42391">
        <ele>183.65</ele>
        <time>2015-09-20T07:26:22Z</time>
      </trkpt>
      <trkpt lat="49.2375" lon="1.42392">
        <ele>183.62</ele>
        <time>2015-09-20T07:26:23Z</time>
      </trkpt>
      <trkpt lat="49.23749" lon="1.42394">
        <ele>183.6</ele>
        <time>2015-09-20T07:26:24Z</time>
      </trkpt>
      <trkpt lat="49.23748" lon="1.42396">
        <ele>183.6</ele>
        <time>2015-09-20T07:26:25Z</time>
      </trkpt>
      <trkpt lat="49.23747" lon="1.42397">
        <ele>183.6</ele>
        <time>2015-09-20T07:26:26Z</time>
      </trkpt>
      <trkpt lat="49.23745" lon="1.42398">
        <ele>183.62</ele>
        <time>2015-09-20T07:26:27Z</time>
      </trkpt>
      <trkpt lat="49.23742" lon="1.424">
        <ele>183.66</ele>
        <time>2015-09-20T07:26:30Z</time>
      </trkpt>
      <trkpt lat="49.23742" lon="1.42401">
        <ele>183.68</ele>
        <time>2015-09-20T07:26:31Z</time>
      </trkpt>
      <trkpt lat="49.23742" lon="1.42402">
        <ele>183.63</ele>
        <time>2015-09-20T07:26:41Z</time>
      </trkpt>
      <trkpt lat="49.23743" lon="1.424">
        <ele>183.56</ele>
        <time>2015-09-20T07:26:42Z</time>
      </trkpt>
      <trkpt lat="49.23743" lon="1.42398">
        <ele>183.52</ele>
        <time>2015-09-20T07:26:43Z</time>
      </trkpt>
      <trkpt lat="49.23743" lon="1.42396">
        <ele>183.56</ele>
        <time>2015-09-20T07:26:44Z</time>
      </trkpt>
      <trkpt lat="49.23744" lon="1.42394">
        <ele>183.61</ele>
        <time>2015-09-20T07:26:45Z</time>
      </trkpt>
      <trkpt lat="49.23745" lon="1.42392">
        <ele>183.62</ele>
        <time>2015-09-20T07:26:46Z</time>
      </trkpt>
      <trkpt lat="49.23755" lon="1.4236">
        <ele>184.41</ele>
        <time>2015-09-20T07:26:56Z</time>
      </trkpt>
      <trkpt lat="49.23755" lon="1.42358">
        <ele>184.49</ele>
        <time>2015-09-20T07:26:57Z</time>
      </trkpt>
      <trkpt lat="49.23753" lon="1.42359">
        <ele>184.54</ele>
        <time>2015-09-20T07:26:59Z</time>
      </trkpt>
      <trkpt lat="49.23753" lon="1.4236">
        <ele>184.52</ele>
        <time>2015-09-20T07:27:00Z</time>
      </trkpt>
      <trkpt lat="49.23753" lon="1.42363">
        <ele>184.49</ele>
        <time>2015-09-20T07:27:01Z</time>
      </trkpt>
      <trkpt lat="49.23747" lon="1.42397">
        <ele>183.63</ele>
        <time>2015-09-20T07:27:17Z</time>
      </trkpt>
      <trkpt lat="49.23746" lon="1.42398">
        <ele>183.65</ele>
        <time>2015-09-20T07:27:18Z</time>
      </trkpt>
      <trkpt lat="49.23744" lon="1.42399">
        <ele>183.7</ele>
        <time>2015-09-20T07:27:19Z</time>
      </trkpt>
      <trkpt lat="49.23742" lon="1.42402">
        <ele>183.85</ele>
        <time>2015-09-20T07:27:21Z</time>
      </trkpt>
      <trkpt lat="49.23742" lon="1.42405">
        <ele>183.89</ele>
        <time>2015-09-20T07:27:22Z</time>
      </trkpt>
      <trkpt lat="49.23744" lon="1.42404">
        <ele>183.89</ele>
        <time>2015-09-20T07:27:23Z</time>
      </trkpt>
      <trkpt lat="49.23746" lon="1.42401">
        <ele>183.9</ele>
        <time>2015-09-20T07:27:24Z</time>
      </trkpt>
      <trkpt lat="49.23747" lon="1.42398">
        <ele>183.87</ele>
        <time>2015-09-20T07:27:25Z</time>
      </trkpt>
      <trkpt lat="49.23749" lon="1.42394">
        <ele>183.85</ele>
        <time>2015-09-20T07:27:26Z</time>
      </trkpt>
      <trkpt lat="49.2375" lon="1.4239">
        <ele>183.81</ele>
        <time>2015-09-20T07:27:27Z</time>
      </trkpt>
      <trkpt lat="49.23752" lon="1.42386">
        <ele>183.85</ele>
        <time>2015-09-20T07:27:28Z</time>
      </trkpt>
      <trkpt lat="49.2376" lon="1.42315">
        <ele>186.06</ele>
        <time>2015-09-20T07:27:42Z</time>
      </trkpt>
      <trkpt lat="49.23756" lon="1.42238">
        <ele>187.62</ele>
        <time>2015-09-20T07:27:55Z</time>
      </trkpt>
      <trkpt lat="49.23751" lon="1.42159">
        <ele>188.86</ele>
        <time>2015-09-20T07:28:09Z</time>
      </trkpt>
      <trkpt lat="49.23748" lon="1.42085">
        <ele>189.42</ele>
        <time>2015-09-20T07:28:21Z</time>
      </trkpt>
      <trkpt lat="49.23754" lon="1.42005">
        <ele>190.54</ele>
        <time>2015-09-20T07:28:32Z</time>
      </trkpt>
      <trkpt lat="49.23749" lon="1.41927">
        <ele>190.92</ele>
        <time>2015-09-20T07:28:42Z</time>
      </trkpt>
      <trkpt lat="49.23734" lon="1.41848">
        <ele>191.86</ele>
        <time>2015-09-20T07:28:52Z</time>
      </trkpt>
      <trkpt lat="49.23716" lon="1.4177">
        <ele>192.49</ele>
        <time>2015-09-20T07:29:02Z</time>
      </trkpt>
      <trkpt lat="49.23699" lon="1.41701">
        <ele>193.06</ele>
        <time>2015-09-20T07:29:11Z</time>
      </trkpt>
      <trkpt lat="49.23687" lon="1.41623">
        <ele>193.53</ele>
        <time>2015-09-20T07:29:21Z</time>
      </trkpt>
      <trkpt lat="49.23683" lon="1.4155">
        <ele>193.82</ele>
        <time>2015-09-20T07:29:30Z</time>
      </trkpt>
      <trkpt lat="49.23688" lon="1.41476">
        <ele>194.08</ele>
        <time>2015-09-20T07:29:39Z</time>
      </trkpt>
      <trkpt lat="49.23693" lon="1.41442">
        <ele>194.19</ele>
        <time>2015-09-20T07:29:43Z</time>
      </trkpt>
      <trkpt lat="49.23709" lon="1.41367">
        <ele>194.52</ele>
        <time>2015-09-20T07:29:52Z</time>
      </trkpt>
      <trkpt lat="49.23722" lon="1.41293">
        <ele>195.05</ele>
        <time>2015-09-20T07:30:01Z</time>
      </trkpt>
      <trkpt lat="49.23735" lon="1.41221">
        <ele>195.31</ele>
        <time>2015-09-20T07:30:11Z</time>
      </trkpt>
      <trkpt lat="49.23754" lon="1.4115">
        <ele>195</ele>
        <time>2015-09-20T07:30:21Z</time>
      </trkpt>
      <trkpt lat="49.23757" lon="1.41137">
        <ele>194.95</ele>
        <time>2015-09-20T07:30:23Z</time>
      </trkpt>
      <trkpt lat="49.23759" lon="1.41132">
        <ele>194.93</ele>
        <time>2015-09-20T07:30:24Z</time>
      </trkpt>
      <trkpt lat="49.23788" lon="1.41072">
        <ele>193.6</ele>
        <time>2015-09-20T07:30:36Z</time>
      </trkpt>
      <trkpt lat="49.23795" lon="1.41046">
        <ele>192.96</ele>
        <time>2015-09-20T07:30:45Z</time>
      </trkpt>
      <trkpt lat="49.23791" lon="1.41045">
        <ele>193.25</ele>
        <time>2015-09-20T07:30:47Z</time>
      </trkpt>
      <trkpt lat="49.23788" lon="1.41045">
        <ele>193.5</ele>
        <time>2015-09-20T07:30:48Z</time>
      </trkpt>
      <trkpt lat="49.23786" lon="1.41044">
        <ele>193.61</ele>
        <time>2015-09-20T07:30:49Z</time>
      </trkpt>
      <trkpt lat="49.23782" lon="1.41044">
        <ele>193.69</ele>
        <time>2015-09-20T07:30:50Z</time>
      </trkpt>
      <trkpt lat="49.23779" lon="1.41042">
        <ele>193.7</ele>
        <time>2015-09-20T07:30:51Z</time>
      </trkpt>
      <trkpt lat="49.23777" lon="1.41039">
        <ele>193.59</ele>
        <time>2015-09-20T07:30:52Z</time>
      </trkpt>
      <trkpt lat="49.23774" lon="1.41035">
        <ele>193.49</ele>
        <time>2015-09-20T07:30:53Z</time>
      </trkpt>
      <trkpt lat="49.23772" lon="1.41031">
        <ele>193.43</ele>
        <time>2015-09-20T07:30:54Z</time>
      </trkpt>
      <trkpt lat="49.23771" lon="1.41026">
        <ele>193.51</ele>
        <time>2015-09-20T07:30:55Z</time>
      </trkpt>
      <trkpt lat="49.2377" lon="1.41021">
        <ele>193.49</ele>
        <time>2015-09-20T07:30:56Z</time>
      </trkpt>
      <trkpt lat="49.2372" lon="1.40945">
        <ele>194.54</ele>
        <time>2015-09-20T07:31:14Z</time>
      </trkpt>
      <trkpt lat="49.23666" lon="1.4089">
        <ele>194.09</ele>
        <time>2015-09-20T07:31:27Z</time>
      </trkpt>
      <trkpt lat="49.23617" lon="1.4085">
        <ele>193.6</ele>
        <time>2015-09-20T07:31:38Z</time>
      </trkpt>
      <trkpt lat="49.2361" lon="1.40844">
        <ele>193.52</ele>
        <time>2015-09-20T07:31:40Z</time>
      </trkpt>
      <trkpt lat="49.23607" lon="1.40842">
        <ele>193.39</ele>
        <time>2015-09-20T07:31:41Z</time>
      </trkpt>
      <trkpt lat="49.23603" lon="1.40841">
        <ele>193.35</ele>
        <time>2015-09-20T07:31:42Z</time>
      </trkpt>
      <trkpt lat="49.23587" lon="1.40839">
        <ele>190.99</ele>
        <time>2015-09-20T07:31:45Z</time>
      </trkpt>
      <trkpt lat="49.2357" lon="1.4082">
        <ele>187.74</ele>
        <time>2015-09-20T07:31:51Z</time>
      </trkpt>
      <trkpt lat="49.23561" lon="1.40792">
        <ele>184.71</ele>
        <time>2015-09-20T07:31:55Z</time>
      </trkpt>
      <trkpt lat="49.23554" lon="1.40737">
        <ele>181.5</ele>
        <time>2015-09-20T07:32:03Z</time>
      </trkpt>
      <trkpt lat="49.23555" lon="1.40703">
        <ele>178.56</ele>
        <time>2015-09-20T07:32:08Z</time>
      </trkpt>
      <trkpt lat="49.2356" lon="1.40679">
        <ele>177.48</ele>
        <time>2015-09-20T07:32:12Z</time>
      </trkpt>
      <trkpt lat="49.23563" lon="1.40676">
        <ele>177.39</ele>
        <time>2015-09-20T07:32:13Z</time>
      </trkpt>
      <trkpt lat="49.23582" lon="1.40608">
        <ele>175.44</ele>
        <time>2015-09-20T07:32:30Z</time>
      </trkpt>
      <trkpt lat="49.23612" lon="1.406">
        <ele>171.8</ele>
        <time>2015-09-20T07:32:37Z</time>
      </trkpt>
      <trkpt lat="49.23639" lon="1.40599">
        <ele>167.87</ele>
        <time>2015-09-20T07:32:41Z</time>
      </trkpt>
      <trkpt lat="49.23655" lon="1.40601">
        <ele>164.78</ele>
        <time>2015-09-20T07:32:45Z</time>
      </trkpt>
      <trkpt lat="49.23682" lon="1.40602">
        <ele>161.59</ele>
        <time>2015-09-20T07:32:56Z</time>
      </trkpt>
      <trkpt lat="49.23694" lon="1.40589">
        <ele>158.44</ele>
        <time>2015-09-20T07:33:01Z</time>
      </trkpt>
      <trkpt lat="49.23706" lon="1.40583">
        <ele>155.42</ele>
        <time>2015-09-20T07:33:08Z</time>
      </trkpt>
      <trkpt lat="49.23707" lon="1.40584">
        <ele>155.07</ele>
        <time>2015-09-20T07:33:09Z</time>
      </trkpt>
      <trkpt lat="49.23709" lon="1.40585">
        <ele>154.83</ele>
        <time>2015-09-20T07:33:10Z</time>
      </trkpt>
      <trkpt lat="49.23711" lon="1.40587">
        <ele>154.53</ele>
        <time>2015-09-20T07:33:11Z</time>
      </trkpt>
      <trkpt lat="49.23713" lon="1.4059">
        <ele>154.26</ele>
        <time>2015-09-20T07:33:12Z</time>
      </trkpt>
      <trkpt lat="49.23714" lon="1.40593">
        <ele>153.79</ele>
        <time>2015-09-20T07:33:13Z</time>
      </trkpt>
      <trkpt lat="49.23723" lon="1.40605">
        <ele>150.33</ele>
        <time>2015-09-20T07:33:19Z</time>
      </trkpt>
      <trkpt lat="49.2373" lon="1.40614">
        <ele>146.23</ele>
        <time>2015-09-20T07:33:23Z</time>
      </trkpt>
      <trkpt lat="49.23733" lon="1.40623">
        <ele>142.12</ele>
        <time>2015-09-20T07:33:27Z</time>
      </trkpt>
      <trkpt lat="49.23734" lon="1.40627">
        <ele>140.61</ele>
        <time>2015-09-20T07:33:29Z</time>
      </trkpt>
      <trkpt lat="49.23734" lon="1.40631">
        <ele>139.91</ele>
        <time>2015-09-20T07:33:30Z</time>
      </trkpt>
      <trkpt lat="49.23734" lon="1.40634">
        <ele>139.24</ele>
        <time>2015-09-20T07:33:31Z</time>
      </trkpt>
      <trkpt lat="49.23735" lon="1.4064">
        <ele>135.93</ele>
        <time>2015-09-20T07:33:36Z</time>
      </trkpt>
      <trkpt lat="49.23734" lon="1.40637">
        <ele>135.39</ele>
        <time>2015-09-20T07:33:37Z</time>
      </trkpt>
      <trkpt lat="49.23733" lon="1.40634">
        <ele>134.96</ele>
        <time>2015-09-20T07:33:38Z</time>
      </trkpt>
      <trkpt lat="49.23732" lon="1.40631">
        <ele>134.49</ele>
        <time>2015-09-20T07:33:39Z</time>
      </trkpt>
      <trkpt lat="49.23732" lon="1.40628">
        <ele>134.12</ele>
        <time>2015-09-20T07:33:40Z</time>
      </trkpt>
      <trkpt lat="49.23755" lon="1.40559">
        <ele>135.21</ele>
        <time>2015-09-20T07:33:59Z</time>
      </trkpt>
      <trkpt lat="49.23759" lon="1.40491">
        <ele>136.47</ele>
        <time>2015-09-20T07:34:21Z</time>
      </trkpt>
      <trkpt lat="49.23759" lon="1.40489">
        <ele>136.54</ele>
        <time>2015-09-20T07:34:22Z</time>
      </trkpt>
      <trkpt lat="49.23733" lon="1.40461">
        <ele>136.54</ele>
        <time>2015-09-20T07:34:52Z</time>
      </trkpt>
      <trkpt lat="49.23721" lon="1.40458">
        <ele>136.52</ele>
        <time>2015-09-20T07:35:01Z</time>
      </trkpt>
      <trkpt lat="49.2372" lon="1.40457">
        <ele>136.49</ele>
        <time>2015-09-20T07:35:02Z</time>
      </trkpt>
      <trkpt lat="49.23727" lon="1.40455">
        <ele>136.42</ele>
        <time>2015-09-20T07:35:10Z</time>
      </trkpt>
      <trkpt lat="49.23738" lon="1.40458">
        <ele>136.44</ele>
        <time>2015-09-20T07:35:22Z</time>
      </trkpt>
      <trkpt lat="49.2374" lon="1.40458">
        <ele>136.4</ele>
        <time>2015-09-20T07:35:24Z</time>
      </trkpt>
      <trkpt lat="49.23741" lon="1.40458">
        <ele>136.44</ele>
        <time>2015-09-20T07:35:26Z</time>
      </trkpt>
      <trkpt lat="49.23742" lon="1.40458">
        <ele>136.41</ele>
        <time>2015-09-20T07:35:36Z</time>
      </trkpt>
      <trkpt lat="49.23733" lon="1.40459">
        <ele>136.39</ele>
        <time>2015-09-20T07:35:51Z</time>
      </trkpt>
      <trkpt lat="49.23732" lon="1.40459">
        <ele>136.41</ele>
        <time>2015-09-20T07:35:52Z</time>
      </trkpt>
      <trkpt lat="49.23723" lon="1.40455">
        <ele>136.39</ele>
        <time>2015-09-20T07:36:00Z</time>
      </trkpt>
      <trkpt lat="49.2372" lon="1.40453">
        <ele>136.43</ele>
        <time>2015-09-20T07:36:04Z</time>
      </trkpt>
      <trkpt lat="49.23719" lon="1.40451">
        <ele>136.36</ele>
        <time>2015-09-20T07:36:05Z</time>
      </trkpt>
      <trkpt lat="49.23717" lon="1.40448">
        <ele>136.18</ele>
        <time>2015-09-20T07:36:06Z</time>
      </trkpt>
      <trkpt lat="49.23725" lon="1.40448">
        <ele>135.67</ele>
        <time>2015-09-20T07:36:07Z</time>
      </trkpt>
      <trkpt lat="49.23726" lon="1.40444">
        <ele>135.29</ele>
        <time>2015-09-20T07:36:08Z</time>
      </trkpt>
      <trkpt lat="49.23726" lon="1.4044">
        <ele>134.97</ele>
        <time>2015-09-20T07:36:09Z</time>
      </trkpt>
      <trkpt lat="49.23729" lon="1.40431">
        <ele>133.61</ele>
        <time>2015-09-20T07:36:12Z</time>
      </trkpt>
      <trkpt lat="49.23731" lon="1.40411">
        <ele>130.37</ele>
        <time>2015-09-20T07:36:17Z</time>
      </trkpt>
      <trkpt lat="49.23736" lon="1.40376">
        <ele>127.24</ele>
        <time>2015-09-20T07:36:23Z</time>
      </trkpt>
      <trkpt lat="49.2374" lon="1.40358">
        <ele>124.11</ele>
        <time>2015-09-20T07:36:26Z</time>
      </trkpt>
      <trkpt lat="49.23742" lon="1.40354">
        <ele>123.16</ele>
        <time>2015-09-20T07:36:28Z</time>
      </trkpt>
      <trkpt lat="49.23745" lon="1.40354">
        <ele>122.79</ele>
        <time>2015-09-20T07:36:29Z</time>
      </trkpt>
      <trkpt lat="49.23747" lon="1.40355">
        <ele>122.23</ele>
        <time>2015-09-20T07:36:30Z</time>
      </trkpt>
      <trkpt lat="49.2375" lon="1.40355">
        <ele>121.64</ele>
        <time>2015-09-20T07:36:31Z</time>
      </trkpt>
      <trkpt lat="49.23751" lon="1.40352">
        <ele>121.34</ele>
        <time>2015-09-20T07:36:32Z</time>
      </trkpt>
      <trkpt lat="49.23753" lon="1.40349">
        <ele>121.08</ele>
        <time>2015-09-20T07:36:33Z</time>
      </trkpt>
      <trkpt lat="49.23755" lon="1.40347">
        <ele>120.72</ele>
        <time>2015-09-20T07:36:34Z</time>
      </trkpt>
      <trkpt lat="49.23758" lon="1.40345">
        <ele>120.29</ele>
        <time>2015-09-20T07:36:35Z</time>
      </trkpt>
      <trkpt lat="49.23761" lon="1.40345">
        <ele>120.05</ele>
        <time>2015-09-20T07:36:36Z</time>
      </trkpt>
      <trkpt lat="49.23763" lon="1.40345">
        <ele>120.19</ele>
        <time>2015-09-20T07:36:37Z</time>
      </trkpt>
      <trkpt lat="49.23766" lon="1.40346">
        <ele>120.41</ele>
        <time>2015-09-20T07:36:38Z</time>
      </trkpt>
      <trkpt lat="49.23767" lon="1.40348">
        <ele>120.85</ele>
        <time>2015-09-20T07:36:39Z</time>
      </trkpt>
      <trkpt lat="49.23768" lon="1.4035">
        <ele>121.32</ele>
        <time>2015-09-20T07:36:40Z</time>
      </trkpt>
      <trkpt lat="49.23769" lon="1.4035">
        <ele>121.93</ele>
        <time>2015-09-20T07:36:41Z</time>
      </trkpt>
      <trkpt lat="49.2377" lon="1.4035">
        <ele>122.27</ele>
        <time>2015-09-20T07:36:42Z</time>
      </trkpt>
      <trkpt lat="49.23771" lon="1.40351">
        <ele>122.37</ele>
        <time>2015-09-20T07:36:43Z</time>
      </trkpt>
      <trkpt lat="49.23772" lon="1.40352">
        <ele>122.69</ele>
        <time>2015-09-20T07:36:44Z</time>
      </trkpt>
      <trkpt lat="49.23775" lon="1.40353">
        <ele>123.8</ele>
        <time>2015-09-20T07:36:46Z</time>
      </trkpt>
      <trkpt lat="49.23776" lon="1.40353">
        <ele>124.19</ele>
        <time>2015-09-20T07:36:47Z</time>
      </trkpt>
      <trkpt lat="49.23777" lon="1.40353">
        <ele>124.56</ele>
        <time>2015-09-20T07:36:48Z</time>
      </trkpt>
      <trkpt lat="49.23778" lon="1.40353">
        <ele>124.84</ele>
        <time>2015-09-20T07:36:49Z</time>
      </trkpt>
      <trkpt lat="49.23779" lon="1.40353">
        <ele>125.15</ele>
        <time>2015-09-20T07:36:50Z</time>
      </trkpt>
      <trkpt lat="49.2378" lon="1.40352">
        <ele>125.42</ele>
        <time>2015-09-20T07:36:51Z</time>
      </trkpt>
      <trkpt lat="49.23781" lon="1.40352">
        <ele>125.55</ele>
        <time>2015-09-20T07:36:52Z</time>
      </trkpt>
      <trkpt lat="49.23782" lon="1.40353">
        <ele>125.56</ele>
        <time>2015-09-20T07:36:53Z</time>
      </trkpt>
      <trkpt lat="49.23783" lon="1.40353">
        <ele>125.65</ele>
        <time>2015-09-20T07:36:54Z</time>
      </trkpt>
      <trkpt lat="49.23784" lon="1.40352">
        <ele>125.86</ele>
        <time>2015-09-20T07:36:55Z</time>
      </trkpt>
      <trkpt lat="49.23785" lon="1.40352">
        <ele>126.02</ele>
        <time>2015-09-20T07:36:56Z</time>
      </trkpt>
      <trkpt lat="49.23786" lon="1.40352">
        <ele>126.15</ele>
        <time>2015-09-20T07:36:57Z</time>
      </trkpt>
      <trkpt lat="49.23787" lon="1.40352">
        <ele>126.4</ele>
        <time>2015-09-20T07:36:58Z</time>
      </trkpt>
      <trkpt lat="49.23787" lon="1.40352">
        <ele>127.18</ele>
        <time>2015-09-20T07:37:00Z</time>
      </trkpt>
      <trkpt lat="49.23788" lon="1.40349">
        <ele>127.84</ele>
        <time>2015-09-20T07:37:04Z</time>
      </trkpt>
      <trkpt lat="49.23787" lon="1.40348">
        <ele>127.94</ele>
        <time>2015-09-20T07:37:05Z</time>
      </trkpt>
      <trkpt lat="49.2379" lon="1.40332">
        <ele>129.8</ele>
        <time>2015-09-20T07:37:22Z</time>
      </trkpt>
      <trkpt lat="49.23793" lon="1.40333">
        <ele>130.06</ele>
        <time>2015-09-20T07:37:26Z</time>
      </trkpt>
      <trkpt lat="49.23799" lon="1.40333">
        <ele>130.36</ele>
        <time>2015-09-20T07:37:55Z</time>
      </trkpt>
      <trkpt lat="49.23801" lon="1.40335">
        <ele>130.1</ele>
        <time>2015-09-20T07:38:25Z</time>
      </trkpt>
      <trkpt lat="49.23803" lon="1.40335">
        <ele>130.12</ele>
        <time>2015-09-20T07:38:26Z</time>
      </trkpt>
      <trkpt lat="49.23804" lon="1.40334">
        <ele>130.16</ele>
        <time>2015-09-20T07:38:27Z</time>
      </trkpt>
      <trkpt lat="49.23806" lon="1.40333">
        <ele>130.09</ele>
        <time>2015-09-20T07:38:28Z</time>
      </trkpt>
      <trkpt lat="49.23807" lon="1.40332">
        <ele>129.99</ele>
        <time>2015-09-20T07:38:29Z</time>
      </trkpt>
      <trkpt lat="49.2381" lon="1.40331">
        <ele>130.04</ele>
        <time>2015-09-20T07:38:30Z</time>
      </trkpt>
      <trkpt lat="49.23831" lon="1.4031">
        <ele>128.29</ele>
        <time>2015-09-20T07:38:39Z</time>
      </trkpt>
      <trkpt lat="49.23844" lon="1.40284">
        <ele>126.32</ele>
        <time>2015-09-20T07:38:43Z</time>
      </trkpt>
      <trkpt lat="49.23846" lon="1.40277">
        <ele>125.18</ele>
        <time>2015-09-20T07:38:44Z</time>
      </trkpt>
      <trkpt lat="49.23848" lon="1.40271">
        <ele>124.89</ele>
        <time>2015-09-20T07:38:45Z</time>
      </trkpt>
      <trkpt lat="49.23852" lon="1.40255">
        <ele>124.52</ele>
        <time>2015-09-20T07:38:52Z</time>
      </trkpt>
      <trkpt lat="49.23855" lon="1.40256">
        <ele>124.07</ele>
        <time>2015-09-20T07:38:53Z</time>
      </trkpt>
      <trkpt lat="49.23856" lon="1.40257">
        <ele>123.22</ele>
        <time>2015-09-20T07:38:54Z</time>
      </trkpt>
      <trkpt lat="49.23864" lon="1.40258">
        <ele>121.28</ele>
        <time>2015-09-20T07:38:57Z</time>
      </trkpt>
      <trkpt lat="49.23866" lon="1.40257">
        <ele>120.6</ele>
        <time>2015-09-20T07:38:58Z</time>
      </trkpt>
      <trkpt lat="49.23867" lon="1.40254">
        <ele>119.88</ele>
        <time>2015-09-20T07:38:59Z</time>
      </trkpt>
      <trkpt lat="49.2387" lon="1.4025">
        <ele>119.19</ele>
        <time>2015-09-20T07:39:01Z</time>
      </trkpt>
      <trkpt lat="49.23877" lon="1.40244">
        <ele>116.35</ele>
        <time>2015-09-20T07:39:06Z</time>
      </trkpt>
      <trkpt lat="49.2388" lon="1.40245">
        <ele>115.97</ele>
        <time>2015-09-20T07:39:07Z</time>
      </trkpt>
      <trkpt lat="49.23881" lon="1.40246">
        <ele>115.7</ele>
        <time>2015-09-20T07:39:08Z</time>
      </trkpt>
      <trkpt lat="49.23884" lon="1.40248">
        <ele>115.16</ele>
        <time>2015-09-20T07:39:10Z</time>
      </trkpt>
      <trkpt lat="49.23885" lon="1.40249">
        <ele>114.87</ele>
        <time>2015-09-20T07:39:11Z</time>
      </trkpt>
      <trkpt lat="49.23886" lon="1.4025">
        <ele>114.64</ele>
        <time>2015-09-20T07:39:12Z</time>
      </trkpt>
      <trkpt lat="49.23887" lon="1.40252">
        <ele>114.41</ele>
        <time>2015-09-20T07:39:13Z</time>
      </trkpt>
      <trkpt lat="49.23887" lon="1.40253">
        <ele>113.84</ele>
        <time>2015-09-20T07:39:14Z</time>
      </trkpt>
      <trkpt lat="49.23886" lon="1.40255">
        <ele>113.49</ele>
        <time>2015-09-20T07:39:15Z</time>
      </trkpt>
      <trkpt lat="49.23886" lon="1.40258">
        <ele>113.3</ele>
        <time>2015-09-20T07:39:16Z</time>
      </trkpt>
      <trkpt lat="49.23886" lon="1.40261">
        <ele>112.81</ele>
        <time>2015-09-20T07:39:17Z</time>
      </trkpt>
      <trkpt lat="49.23886" lon="1.40265">
        <ele>112.3</ele>
        <time>2015-09-20T07:39:18Z</time>
      </trkpt>
      <trkpt lat="49.23888" lon="1.40286">
        <ele>109.44</ele>
        <time>2015-09-20T07:39:23Z</time>
      </trkpt>
      <trkpt lat="49.23889" lon="1.40286">
        <ele>109.15</ele>
        <time>2015-09-20T07:39:24Z</time>
      </trkpt>
      <trkpt lat="49.23887" lon="1.40286">
        <ele>108.42</ele>
        <time>2015-09-20T07:39:31Z</time>
      </trkpt>
      <trkpt lat="49.2389" lon="1.40287">
        <ele>108.45</ele>
        <time>2015-09-20T07:39:34Z</time>
      </trkpt>
      <trkpt lat="49.2389" lon="1.40286">
        <ele>108.53</ele>
        <time>2015-09-20T07:39:50Z</time>
      </trkpt>
      <trkpt lat="49.23892" lon="1.40283">
        <ele>108.59</ele>
        <time>2015-09-20T07:39:52Z</time>
      </trkpt>
      <trkpt lat="49.23894" lon="1.40281">
        <ele>108.47</ele>
        <time>2015-09-20T07:39:53Z</time>
      </trkpt>
      <trkpt lat="49.23897" lon="1.40279">
        <ele>108.43</ele>
        <time>2015-09-20T07:39:54Z</time>
      </trkpt>
      <trkpt lat="49.239" lon="1.40277">
        <ele>108.2</ele>
        <time>2015-09-20T07:39:55Z</time>
      </trkpt>
      <trkpt lat="49.23903" lon="1.40274">
        <ele>107.74</ele>
        <time>2015-09-20T07:39:56Z</time>
      </trkpt>
      <trkpt lat="49.23905" lon="1.40272">
        <ele>107.31</ele>
        <time>2015-09-20T07:39:57Z</time>
      </trkpt>
      <trkpt lat="49.23909" lon="1.40269">
        <ele>106.45</ele>
        <time>2015-09-20T07:39:58Z</time>
      </trkpt>
      <trkpt lat="49.23918" lon="1.40262">
        <ele>103.21</ele>
        <time>2015-09-20T07:40:02Z</time>
      </trkpt>
      <trkpt lat="49.2393" lon="1.40249">
        <ele>99.24</ele>
        <time>2015-09-20T07:40:06Z</time>
      </trkpt>
      <trkpt lat="49.23944" lon="1.40237">
        <ele>95.59</ele>
        <time>2015-09-20T07:40:10Z</time>
      </trkpt>
      <trkpt lat="49.23952" lon="1.40223">
        <ele>91.03</ele>
        <time>2015-09-20T07:40:14Z</time>
      </trkpt>
      <trkpt lat="49.23955" lon="1.40201">
        <ele>87.7</ele>
        <time>2015-09-20T07:40:19Z</time>
      </trkpt>
      <trkpt lat="49.23952" lon="1.40192">
        <ele>84.09</ele>
        <time>2015-09-20T07:40:22Z</time>
      </trkpt>
      <trkpt lat="49.23954" lon="1.40192">
        <ele>82.53</ele>
        <time>2015-09-20T07:40:25Z</time>
      </trkpt>
      <trkpt lat="49.2396" lon="1.40204">
        <ele>79.29</ele>
        <time>2015-09-20T07:40:30Z</time>
      </trkpt>
      <trkpt lat="49.2396" lon="1.40233">
        <ele>76.1</ele>
        <time>2015-09-20T07:40:36Z</time>
      </trkpt>
      <trkpt lat="49.23955" lon="1.4026">
        <ele>76.88</ele>
        <time>2015-09-20T07:40:47Z</time>
      </trkpt>
      <trkpt lat="49.23955" lon="1.40262">
        <ele>76.97</ele>
        <time>2015-09-20T07:40:48Z</time>
      </trkpt>
      <trkpt lat="49.23942" lon="1.40289">
        <ele>80</ele>
        <time>2015-09-20T07:41:00Z</time>
      </trkpt>
      <trkpt lat="49.23924" lon="1.40318">
        <ele>83.2</ele>
        <time>2015-09-20T07:41:11Z</time>
      </trkpt>
      <trkpt lat="49.23907" lon="1.40339">
        <ele>86.43</ele>
        <time>2015-09-20T07:41:22Z</time>
      </trkpt>
      <trkpt lat="49.23906" lon="1.40359">
        <ele>89.55</ele>
        <time>2015-09-20T07:41:32Z</time>
      </trkpt>
      <trkpt lat="49.23893" lon="1.40372">
        <ele>92.56</ele>
        <time>2015-09-20T07:41:42Z</time>
      </trkpt>
      <trkpt lat="49.23877" lon="1.4039">
        <ele>95.72</ele>
        <time>2015-09-20T07:41:54Z</time>
      </trkpt>
      <trkpt lat="49.23876" lon="1.40391">
        <ele>95.95</ele>
        <time>2015-09-20T07:41:55Z</time>
      </trkpt>
      <trkpt lat="49.23876" lon="1.40393">
        <ele>96.22</ele>
        <time>2015-09-20T07:41:56Z</time>
      </trkpt>
      <trkpt lat="49.23875" lon="1.40395">
        <ele>96.47</ele>
        <time>2015-09-20T07:41:57Z</time>
      </trkpt>
      <trkpt lat="49.23867" lon="1.40413">
        <ele>99.66</ele>
        <time>2015-09-20T07:42:07Z</time>
      </trkpt>
      <trkpt lat="49.23843" lon="1.40437">
        <ele>102.76</ele>
        <time>2015-09-20T07:42:21Z</time>
      </trkpt>
      <trkpt lat="49.23827" lon="1.40458">
        <ele>105.8</ele>
        <time>2015-09-20T07:42:33Z</time>
      </trkpt>
      <trkpt lat="49.23814" lon="1.4048">
        <ele>108.87</ele>
        <time>2015-09-20T07:42:44Z</time>
      </trkpt>
      <trkpt lat="49.23802" lon="1.40503">
        <ele>111.92</ele>
        <time>2015-09-20T07:42:55Z</time>
      </trkpt>
      <trkpt lat="49.238" lon="1.40509">
        <ele>112.75</ele>
        <time>2015-09-20T07:42:58Z</time>
      </trkpt>
      <trkpt lat="49.238" lon="1.40511">
        <ele>113.06</ele>
        <time>2015-09-20T07:42:59Z</time>
      </trkpt>
      <trkpt lat="49.23799" lon="1.40513">
        <ele>113.35</ele>
        <time>2015-09-20T07:43:00Z</time>
      </trkpt>
      <trkpt lat="49.23797" lon="1.40515">
        <ele>113.73</ele>
        <time>2015-09-20T07:43:01Z</time>
      </trkpt>
      <trkpt lat="49.23796" lon="1.40517">
        <ele>114.07</ele>
        <time>2015-09-20T07:43:02Z</time>
      </trkpt>
      <trkpt lat="49.23795" lon="1.40519">
        <ele>114.35</ele>
        <time>2015-09-20T07:43:03Z</time>
      </trkpt>
      <trkpt lat="49.23783" lon="1.4054">
        <ele>117.53</ele>
        <time>2015-09-20T07:43:14Z</time>
      </trkpt>
      <trkpt lat="49.23772" lon="1.40559">
        <ele>120.86</ele>
        <time>2015-09-20T07:43:24Z</time>
      </trkpt>
      <trkpt lat="49.23766" lon="1.4058">
        <ele>123.97</ele>
        <time>2015-09-20T07:43:34Z</time>
      </trkpt>
      <trkpt lat="49.23753" lon="1.406">
        <ele>127.16</ele>
        <time>2015-09-20T07:43:44Z</time>
      </trkpt>
      <trkpt lat="49.23751" lon="1.40605">
        <ele>127.97</ele>
        <time>2015-09-20T07:43:46Z</time>
      </trkpt>
      <trkpt lat="49.23749" lon="1.40607">
        <ele>128.28</ele>
        <time>2015-09-20T07:43:47Z</time>
      </trkpt>
      <trkpt lat="49.23747" lon="1.40609">
        <ele>128.59</ele>
        <time>2015-09-20T07:43:48Z</time>
      </trkpt>
      <trkpt lat="49.23747" lon="1.40611">
        <ele>128.86</ele>
        <time>2015-09-20T07:43:49Z</time>
      </trkpt>
      <trkpt lat="49.23746" lon="1.40613">
        <ele>129.23</ele>
        <time>2015-09-20T07:43:50Z</time>
      </trkpt>
      <trkpt lat="49.23746" lon="1.40616">
        <ele>129.55</ele>
        <time>2015-09-20T07:43:51Z</time>
      </trkpt>
      <trkpt lat="49.23746" lon="1.40618">
        <ele>129.86</ele>
        <time>2015-09-20T07:43:52Z</time>
      </trkpt>
      <trkpt lat="49.23746" lon="1.4062">
        <ele>130.07</ele>
        <time>2015-09-20T07:43:53Z</time>
      </trkpt>
      <trkpt lat="49.23748" lon="1.40623">
        <ele>130.38</ele>
        <time>2015-09-20T07:43:54Z</time>
      </trkpt>
      <trkpt lat="49.23763" lon="1.40648">
        <ele>133.57</ele>
        <time>2015-09-20T07:44:05Z</time>
      </trkpt>
      <trkpt lat="49.23784" lon="1.40652">
        <ele>136.79</ele>
        <time>2015-09-20T07:44:19Z</time>
      </trkpt>
      <trkpt lat="49.23803" lon="1.40653">
        <ele>139.95</ele>
        <time>2015-09-20T07:44:31Z</time>
      </trkpt>
      <trkpt lat="49.23823" lon="1.4065">
        <ele>143.09</ele>
        <time>2015-09-20T07:44:44Z</time>
      </trkpt>
      <trkpt lat="49.23855" lon="1.40638">
        <ele>146.21</ele>
        <time>2015-09-20T07:45:01Z</time>
      </trkpt>
      <trkpt lat="49.23885" lon="1.40638">
        <ele>149.38</ele>
        <time>2015-09-20T07:45:14Z</time>
      </trkpt>
      <trkpt lat="49.23901" lon="1.40652">
        <ele>151.35</ele>
        <time>2015-09-20T07:45:23Z</time>
      </trkpt>
      <trkpt lat="49.23901" lon="1.40655">
        <ele>151.71</ele>
        <time>2015-09-20T07:45:24Z</time>
      </trkpt>
      <trkpt lat="49.239" lon="1.40693">
        <ele>154.77</ele>
        <time>2015-09-20T07:45:37Z</time>
      </trkpt>
      <trkpt lat="49.23889" lon="1.40726">
        <ele>157.8</ele>
        <time>2015-09-20T07:45:49Z</time>
      </trkpt>
      <trkpt lat="49.2388" lon="1.40757">
        <ele>161.16</ele>
        <time>2015-09-20T07:46:01Z</time>
      </trkpt>
      <trkpt lat="49.23872" lon="1.40781">
        <ele>164.3</ele>
        <time>2015-09-20T07:46:13Z</time>
      </trkpt>
      <trkpt lat="49.23863" lon="1.40799">
        <ele>167.4</ele>
        <time>2015-09-20T07:46:23Z</time>
      </trkpt>
      <trkpt lat="49.23861" lon="1.40824">
        <ele>170.73</ele>
        <time>2015-09-20T07:46:34Z</time>
      </trkpt>
      <trkpt lat="49.23854" lon="1.40847">
        <ele>173.88</ele>
        <time>2015-09-20T07:46:45Z</time>
      </trkpt>
      <trkpt lat="49.2386" lon="1.4088">
        <ele>177.01</ele>
        <time>2015-09-20T07:46:57Z</time>
      </trkpt>
      <trkpt lat="49.23864" lon="1.40923">
        <ele>180.08</ele>
        <time>2015-09-20T07:47:10Z</time>
      </trkpt>
      <trkpt lat="49.23859" lon="1.40962">
        <ele>183.11</ele>
        <time>2015-09-20T07:47:21Z</time>
      </trkpt>
      <trkpt lat="49.23853" lon="1.40984">
        <ele>186.18</ele>
        <time>2015-09-20T07:47:30Z</time>
      </trkpt>
      <trkpt lat="49.23834" lon="1.41006">
        <ele>189.45</ele>
        <time>2015-09-20T07:47:42Z</time>
      </trkpt>
      <trkpt lat="49.23805" lon="1.4104">
        <ele>191.39</ele>
        <time>2015-09-20T07:48:01Z</time>
      </trkpt>
      <trkpt lat="49.23803" lon="1.41038">
        <ele>191.32</ele>
        <time>2015-09-20T07:48:02Z</time>
      </trkpt>
      <trkpt lat="49.23802" lon="1.41036">
        <ele>191.26</ele>
        <time>2015-09-20T07:48:03Z</time>
      </trkpt>
      <trkpt lat="49.23801" lon="1.41035">
        <ele>191.2</ele>
        <time>2015-09-20T07:48:04Z</time>
      </trkpt>
      <trkpt lat="49.23801" lon="1.41033">
        <ele>191.13</ele>
        <time>2015-09-20T07:48:05Z</time>
      </trkpt>
      <trkpt lat="49.238" lon="1.4103">
        <ele>191.02</ele>
        <time>2015-09-20T07:48:06Z</time>
      </trkpt>
      <trkpt lat="49.23799" lon="1.41027">
        <ele>190.85</ele>
        <time>2015-09-20T07:48:07Z</time>
      </trkpt>
      <trkpt lat="49.23822" lon="1.40989">
        <ele>187.33</ele>
        <time>2015-09-20T07:48:18Z</time>
      </trkpt>
      <trkpt lat="49.23834" lon="1.40969">
        <ele>185.36</ele>
        <time>2015-09-20T07:48:21Z</time>
      </trkpt>
      <trkpt lat="49.23837" lon="1.40961">
        <ele>184.32</ele>
        <time>2015-09-20T07:48:22Z</time>
      </trkpt>
      <trkpt lat="49.23841" lon="1.40947">
        <ele>182.89</ele>
        <time>2015-09-20T07:48:24Z</time>
      </trkpt>
      <trkpt lat="49.23845" lon="1.40931">
        <ele>181.43</ele>
        <time>2015-09-20T07:48:26Z</time>
      </trkpt>
      <trkpt lat="49.23846" lon="1.40914">
        <ele>180.04</ele>
        <time>2015-09-20T07:48:28Z</time>
      </trkpt>
      <trkpt lat="49.23844" lon="1.40898">
        <ele>178.81</ele>
        <time>2015-09-20T07:48:30Z</time>
      </trkpt>
      <trkpt lat="49.23843" lon="1.40859">
        <ele>175.15</ele>
        <time>2015-09-20T07:48:35Z</time>
      </trkpt>
      <trkpt lat="49.23848" lon="1.40825">
        <ele>171.57</ele>
        <time>2015-09-20T07:48:39Z</time>
      </trkpt>
      <trkpt lat="49.23857" lon="1.40789">
        <ele>167.72</ele>
        <time>2015-09-20T07:48:43Z</time>
      </trkpt>
      <trkpt lat="49.23863" lon="1.40762">
        <ele>164.6</ele>
        <time>2015-09-20T07:48:46Z</time>
      </trkpt>
      <trkpt lat="49.23869" lon="1.40737">
        <ele>161.22</ele>
        <time>2015-09-20T07:48:49Z</time>
      </trkpt>
      <trkpt lat="49.23888" lon="1.4071">
        <ele>158.14</ele>
        <time>2015-09-20T07:48:53Z</time>
      </trkpt>
      <trkpt lat="49.23897" lon="1.40682">
        <ele>154.82</ele>
        <time>2015-09-20T07:48:58Z</time>
      </trkpt>
      <trkpt lat="49.23901" lon="1.40653">
        <ele>152.41</ele>
        <time>2015-09-20T07:49:09Z</time>
      </trkpt>
      <trkpt lat="49.23902" lon="1.40651">
        <ele>152.09</ele>
        <time>2015-09-20T07:49:10Z</time>
      </trkpt>
      <trkpt lat="49.23904" lon="1.4065">
        <ele>151.89</ele>
        <time>2015-09-20T07:49:11Z</time>
      </trkpt>
      <trkpt lat="49.23905" lon="1.40653">
        <ele>151.81</ele>
        <time>2015-09-20T07:49:12Z</time>
      </trkpt>
      <trkpt lat="49.23905" lon="1.40655">
        <ele>151.85</ele>
        <time>2015-09-20T07:49:13Z</time>
      </trkpt>
      <trkpt lat="49.23905" lon="1.40658">
        <ele>152.11</ele>
        <time>2015-09-20T07:49:14Z</time>
      </trkpt>
      <trkpt lat="49.23903" lon="1.40661">
        <ele>152.5</ele>
        <time>2015-09-20T07:49:15Z</time>
      </trkpt>
      <trkpt lat="49.23903" lon="1.40664">
        <ele>152.65</ele>
        <time>2015-09-20T07:49:16Z</time>
      </trkpt>
      <trkpt lat="49.23902" lon="1.40668">
        <ele>152.86</ele>
        <time>2015-09-20T07:49:17Z</time>
      </trkpt>
      <trkpt lat="49.23902" lon="1.40671">
        <ele>153.08</ele>
        <time>2015-09-20T07:49:18Z</time>
      </trkpt>
      <trkpt lat="49.23901" lon="1.40674">
        <ele>153.21</ele>
        <time>2015-09-20T07:49:19Z</time>
      </trkpt>
      <trkpt lat="49.23901" lon="1.40676">
        <ele>153.32</ele>
        <time>2015-09-20T07:49:20Z</time>
      </trkpt>
      <trkpt lat="49.23897" lon="1.40688">
        <ele>154.03</ele>
        <time>2015-09-20T07:49:53Z</time>
      </trkpt>
      <trkpt lat="49.23896" lon="1.40691">
        <ele>154.17</ele>
        <time>2015-09-20T07:49:54Z</time>
      </trkpt>
      <trkpt lat="49.23895" lon="1.40695">
        <ele>154.48</ele>
        <time>2015-09-20T07:49:55Z</time>
      </trkpt>
      <trkpt lat="49.23894" lon="1.40698">
        <ele>154.77</ele>
        <time>2015-09-20T07:49:56Z</time>
      </trkpt>
      <trkpt lat="49.23885" lon="1.4073">
        <ele>158.2</ele>
        <time>2015-09-20T07:50:06Z</time>
      </trkpt>
      <trkpt lat="49.23878" lon="1.40756">
        <ele>161.39</ele>
        <time>2015-09-20T07:50:15Z</time>
      </trkpt>
      <trkpt lat="49.23872" lon="1.40781">
        <ele>164.63</ele>
        <time>2015-09-20T07:50:26Z</time>
      </trkpt>
      <trkpt lat="49.23863" lon="1.40799">
        <ele>167.85</ele>
        <time>2015-09-20T07:50:36Z</time>
      </trkpt>
      <trkpt lat="49.23855" lon="1.40818">
        <ele>171.01</ele>
        <time>2015-09-20T07:50:46Z</time>
      </trkpt>
      <trkpt lat="49.2385" lon="1.40844">
        <ele>174.16</ele>
        <time>2015-09-20T07:50:56Z</time>
      </trkpt>
      <trkpt lat="49.23851" lon="1.40881">
        <ele>177.43</ele>
        <time>2015-09-20T07:51:07Z</time>
      </trkpt>
      <trkpt lat="49.23852" lon="1.40921">
        <ele>180.67</ele>
        <time>2015-09-20T07:51:19Z</time>
      </trkpt>
      <trkpt lat="49.23847" lon="1.40963">
        <ele>183.9</ele>
        <time>2015-09-20T07:51:31Z</time>
      </trkpt>
      <trkpt lat="49.2384" lon="1.4099">
        <ele>187.25</ele>
        <time>2015-09-20T07:51:42Z</time>
      </trkpt>
      <trkpt lat="49.23829" lon="1.41012">
        <ele>190.33</ele>
        <time>2015-09-20T07:51:53Z</time>
      </trkpt>
      <trkpt lat="49.23818" lon="1.41037">
        <ele>191.96</ele>
        <time>2015-09-20T07:52:04Z</time>
      </trkpt>
      <trkpt lat="49.23767" lon="1.41004">
        <ele>192.61</ele>
        <time>2015-09-20T07:52:34Z</time>
      </trkpt>
      <trkpt lat="49.23758" lon="1.40988">
        <ele>193.05</ele>
        <time>2015-09-20T07:52:45Z</time>
      </trkpt>
      <trkpt lat="49.23757" lon="1.40987">
        <ele>193.01</ele>
        <time>2015-09-20T07:52:46Z</time>
      </trkpt>
      <trkpt lat="49.23756" lon="1.40986">
        <ele>192.98</ele>
        <time>2015-09-20T07:52:47Z</time>
      </trkpt>
      <trkpt lat="49.23755" lon="1.40984">
        <ele>193.01</ele>
        <time>2015-09-20T07:52:48Z</time>
      </trkpt>
      <trkpt lat="49.23754" lon="1.40982">
        <ele>193.03</ele>
        <time>2015-09-20T07:52:49Z</time>
      </trkpt>
      <trkpt lat="49.23752" lon="1.40979">
        <ele>193.07</ele>
        <time>2015-09-20T07:52:51Z</time>
      </trkpt>
      <trkpt lat="49.23751" lon="1.40977">
        <ele>193.07</ele>
        <time>2015-09-20T07:52:52Z</time>
      </trkpt>
      <trkpt lat="49.2373" lon="1.40949">
        <ele>193.2</ele>
        <time>2015-09-20T07:53:12Z</time>
      </trkpt>
      <trkpt lat="49.23729" lon="1.40948">
        <ele>193.22</ele>
        <time>2015-09-20T07:53:13Z</time>
      </trkpt>
      <trkpt lat="49.23724" lon="1.40943">
        <ele>193.31</ele>
        <time>2015-09-20T07:53:17Z</time>
      </trkpt>
      <trkpt lat="49.2367" lon="1.40892">
        <ele>193.6</ele>
        <time>2015-09-20T07:53:38Z</time>
      </trkpt>
      <trkpt lat="49.23617" lon="1.40848">
        <ele>193.34</ele>
        <time>2015-09-20T07:53:49Z</time>
      </trkpt>
      <trkpt lat="49.23582" lon="1.40835">
        <ele>191.18</ele>
        <time>2015-09-20T07:53:56Z</time>
      </trkpt>
      <trkpt lat="49.23577" lon="1.40835">
        <ele>190.36</ele>
        <time>2015-09-20T07:53:57Z</time>
      </trkpt>
      <trkpt lat="49.23572" lon="1.40835">
        <ele>189.46</ele>
        <time>2015-09-20T07:53:58Z</time>
      </trkpt>
      <trkpt lat="49.23567" lon="1.40835">
        <ele>188.69</ele>
        <time>2015-09-20T07:53:59Z</time>
      </trkpt>
      <trkpt lat="49.23562" lon="1.40836">
        <ele>187.93</ele>
        <time>2015-09-20T07:54:00Z</time>
      </trkpt>
      <trkpt lat="49.23559" lon="1.40838">
        <ele>187.29</ele>
        <time>2015-09-20T07:54:01Z</time>
      </trkpt>
      <trkpt lat="49.23548" lon="1.40846">
        <ele>183.56</ele>
        <time>2015-09-20T07:54:05Z</time>
      </trkpt>
      <trkpt lat="49.23542" lon="1.40851">
        <ele>180.25</ele>
        <time>2015-09-20T07:54:08Z</time>
      </trkpt>
      <trkpt lat="49.23533" lon="1.40859">
        <ele>176.59</ele>
        <time>2015-09-20T07:54:11Z</time>
      </trkpt>
      <trkpt lat="49.2352" lon="1.40873">
        <ele>173.08</ele>
        <time>2015-09-20T07:54:15Z</time>
      </trkpt>
      <trkpt lat="49.23509" lon="1.40888">
        <ele>169.98</ele>
        <time>2015-09-20T07:54:20Z</time>
      </trkpt>
      <trkpt lat="49.23504" lon="1.40892">
        <ele>169.24</ele>
        <time>2015-09-20T07:54:22Z</time>
      </trkpt>
      <trkpt lat="49.2348" lon="1.40898">
        <ele>168.79</ele>
        <time>2015-09-20T07:54:34Z</time>
      </trkpt>
      <trkpt lat="49.23477" lon="1.40898">
        <ele>168.48</ele>
        <time>2015-09-20T07:54:35Z</time>
      </trkpt>
      <trkpt lat="49.23475" lon="1.40898">
        <ele>168.12</ele>
        <time>2015-09-20T07:54:36Z</time>
      </trkpt>
      <trkpt lat="49.23473" lon="1.40898">
        <ele>167.89</ele>
        <time>2015-09-20T07:54:37Z</time>
      </trkpt>
      <trkpt lat="49.23472" lon="1.409">
        <ele>167.73</ele>
        <time>2015-09-20T07:54:38Z</time>
      </trkpt>
      <trkpt lat="49.2347" lon="1.40901">
        <ele>167.54</ele>
        <time>2015-09-20T07:54:39Z</time>
      </trkpt>
      <trkpt lat="49.23469" lon="1.40903">
        <ele>167.15</ele>
        <time>2015-09-20T07:54:40Z</time>
      </trkpt>
      <trkpt lat="49.23434" lon="1.40935">
        <ele>164.03</ele>
        <time>2015-09-20T07:54:54Z</time>
      </trkpt>
      <trkpt lat="49.23419" lon="1.4094">
        <ele>161</ele>
        <time>2015-09-20T07:55:06Z</time>
      </trkpt>
      <trkpt lat="49.23417" lon="1.40942">
        <ele>160.08</ele>
        <time>2015-09-20T07:55:08Z</time>
      </trkpt>
      <trkpt lat="49.23413" lon="1.40947">
        <ele>160.37</ele>
        <time>2015-09-20T07:55:12Z</time>
      </trkpt>
      <trkpt lat="49.2341" lon="1.40947">
        <ele>160.22</ele>
        <time>2015-09-20T07:55:13Z</time>
      </trkpt>
      <trkpt lat="49.23391" lon="1.40954">
        <ele>159.48</ele>
        <time>2015-09-20T07:55:26Z</time>
      </trkpt>
      <trkpt lat="49.23391" lon="1.40954">
        <ele>159.73</ele>
        <time>2015-09-20T07:55:27Z</time>
      </trkpt>
      <trkpt lat="49.2339" lon="1.40954">
        <ele>159.96</ele>
        <time>2015-09-20T07:55:28Z</time>
      </trkpt>
      <trkpt lat="49.23389" lon="1.40955">
        <ele>160.1</ele>
        <time>2015-09-20T07:55:29Z</time>
      </trkpt>
      <trkpt lat="49.23388" lon="1.40955">
        <ele>160.12</ele>
        <time>2015-09-20T07:55:30Z</time>
      </trkpt>
      <trkpt lat="49.23389" lon="1.40956">
        <ele>160.17</ele>
        <time>2015-09-20T07:55:31Z</time>
      </trkpt>
      <trkpt lat="49.2339" lon="1.40961">
        <ele>160.87</ele>
        <time>2015-09-20T07:55:37Z</time>
      </trkpt>
      <trkpt lat="49.23369" lon="1.40966">
        <ele>161.03</ele>
        <time>2015-09-20T07:55:49Z</time>
      </trkpt>
      <trkpt lat="49.23367" lon="1.40967">
        <ele>160.93</ele>
        <time>2015-09-20T07:55:50Z</time>
      </trkpt>
      <trkpt lat="49.23365" lon="1.40968">
        <ele>160.71</ele>
        <time>2015-09-20T07:55:51Z</time>
      </trkpt>
      <trkpt lat="49.23362" lon="1.40969">
        <ele>160.57</ele>
        <time>2015-09-20T07:55:52Z</time>
      </trkpt>
      <trkpt lat="49.2336" lon="1.4097">
        <ele>160.4</ele>
        <time>2015-09-20T07:55:53Z</time>
      </trkpt>
      <trkpt lat="49.23357" lon="1.40971">
        <ele>160.23</ele>
        <time>2015-09-20T07:55:54Z</time>
      </trkpt>
      <trkpt lat="49.23355" lon="1.40972">
        <ele>160.08</ele>
        <time>2015-09-20T07:55:55Z</time>
      </trkpt>
      <trkpt lat="49.23304" lon="1.40929">
        <ele>156.44</ele>
        <time>2015-09-20T07:56:22Z</time>
      </trkpt>
      <trkpt lat="49.233" lon="1.40917">
        <ele>152.74</ele>
        <time>2015-09-20T07:56:27Z</time>
      </trkpt>
      <trkpt lat="49.23302" lon="1.4091">
        <ele>149.62</ele>
        <time>2015-09-20T07:56:30Z</time>
      </trkpt>
      <trkpt lat="49.23305" lon="1.40902">
        <ele>146.09</ele>
        <time>2015-09-20T07:56:34Z</time>
      </trkpt>
      <trkpt lat="49.23303" lon="1.40887">
        <ele>142.82</ele>
        <time>2015-09-20T07:56:40Z</time>
      </trkpt>
      <trkpt lat="49.23301" lon="1.40866">
        <ele>139.65</ele>
        <time>2015-09-20T07:56:47Z</time>
      </trkpt>
      <trkpt lat="49.23294" lon="1.40852">
        <ele>137.22</ele>
        <time>2015-09-20T07:56:52Z</time>
      </trkpt>
      <trkpt lat="49.23294" lon="1.4085">
        <ele>137.01</ele>
        <time>2015-09-20T07:56:53Z</time>
      </trkpt>
      <trkpt lat="49.23294" lon="1.40847">
        <ele>136.72</ele>
        <time>2015-09-20T07:56:54Z</time>
      </trkpt>
      <trkpt lat="49.23294" lon="1.40845">
        <ele>136.43</ele>
        <time>2015-09-20T07:56:55Z</time>
      </trkpt>
      <trkpt lat="49.23294" lon="1.40843">
        <ele>136.27</ele>
        <time>2015-09-20T07:56:56Z</time>
      </trkpt>
      <trkpt lat="49.23288" lon="1.40824">
        <ele>133.59</ele>
        <time>2015-09-20T07:57:08Z</time>
      </trkpt>
      <trkpt lat="49.23255" lon="1.40816">
        <ele>136.71</ele>
        <time>2015-09-20T07:57:33Z</time>
      </trkpt>
      <trkpt lat="49.23248" lon="1.40814">
        <ele>137.99</ele>
        <time>2015-09-20T07:57:48Z</time>
      </trkpt>
      <trkpt lat="49.23244" lon="1.40808">
        <ele>138.62</ele>
        <time>2015-09-20T07:57:53Z</time>
      </trkpt>
      <trkpt lat="49.23241" lon="1.40806">
        <ele>138.92</ele>
        <time>2015-09-20T07:57:56Z</time>
      </trkpt>
      <trkpt lat="49.2324" lon="1.40805">
        <ele>139.01</ele>
        <time>2015-09-20T07:57:57Z</time>
      </trkpt>
      <trkpt lat="49.23238" lon="1.40805">
        <ele>139.25</ele>
        <time>2015-09-20T07:57:58Z</time>
      </trkpt>
      <trkpt lat="49.23237" lon="1.40804">
        <ele>139.46</ele>
        <time>2015-09-20T07:57:59Z</time>
      </trkpt>
      <trkpt lat="49.23235" lon="1.40803">
        <ele>139.61</ele>
        <time>2015-09-20T07:58:00Z</time>
      </trkpt>
      <trkpt lat="49.23234" lon="1.40802">
        <ele>139.71</ele>
        <time>2015-09-20T07:58:01Z</time>
      </trkpt>
      <trkpt lat="49.23234" lon="1.40802">
        <ele>139.75</ele>
        <time>2015-09-20T07:58:02Z</time>
      </trkpt>
      <trkpt lat="49.23232" lon="1.40799">
        <ele>139.77</ele>
        <time>2015-09-20T07:58:03Z</time>
      </trkpt>
      <trkpt lat="49.23231" lon="1.40798">
        <ele>139.96</ele>
        <time>2015-09-20T07:58:04Z</time>
      </trkpt>
      <trkpt lat="49.23231" lon="1.40796">
        <ele>140</ele>
        <time>2015-09-20T07:58:05Z</time>
      </trkpt>
      <trkpt lat="49.23229" lon="1.40794">
        <ele>139.99</ele>
        <time>2015-09-20T07:58:06Z</time>
      </trkpt>
      <trkpt lat="49.23226" lon="1.40793">
        <ele>140.01</ele>
        <time>2015-09-20T07:58:07Z</time>
      </trkpt>
      <trkpt lat="49.23225" lon="1.40793">
        <ele>140.04</ele>
        <time>2015-09-20T07:58:08Z</time>
      </trkpt>
      <trkpt lat="49.23224" lon="1.40792">
        <ele>140.13</ele>
        <time>2015-09-20T07:58:09Z</time>
      </trkpt>
      <trkpt lat="49.23223" lon="1.40792">
        <ele>140.41</ele>
        <time>2015-09-20T07:58:10Z</time>
      </trkpt>
      <trkpt lat="49.2322" lon="1.40797">
        <ele>142.38</ele>
        <time>2015-09-20T07:58:19Z</time>
      </trkpt>
      <trkpt lat="49.23219" lon="1.40797">
        <ele>142.61</ele>
        <time>2015-09-20T07:58:20Z</time>
      </trkpt>
      <trkpt lat="49.23217" lon="1.40797">
        <ele>143.18</ele>
        <time>2015-09-20T07:58:23Z</time>
      </trkpt>
      <trkpt lat="49.23216" lon="1.40796">
        <ele>143.31</ele>
        <time>2015-09-20T07:58:24Z</time>
      </trkpt>
      <trkpt lat="49.23215" lon="1.40796">
        <ele>143.45</ele>
        <time>2015-09-20T07:58:25Z</time>
      </trkpt>
      <trkpt lat="49.23214" lon="1.40795">
        <ele>143.61</ele>
        <time>2015-09-20T07:58:26Z</time>
      </trkpt>
      <trkpt lat="49.23213" lon="1.40793">
        <ele>143.74</ele>
        <time>2015-09-20T07:58:27Z</time>
      </trkpt>
      <trkpt lat="49.2321" lon="1.40786">
        <ele>143.92</ele>
        <time>2015-09-20T07:58:31Z</time>
      </trkpt>
      <trkpt lat="49.23206" lon="1.40788">
        <ele>144.34</ele>
        <time>2015-09-20T07:58:35Z</time>
      </trkpt>
      <trkpt lat="49.23205" lon="1.40789">
        <ele>144.68</ele>
        <time>2015-09-20T07:58:36Z</time>
      </trkpt>
      <trkpt lat="49.23204" lon="1.40789">
        <ele>144.98</ele>
        <time>2015-09-20T07:58:37Z</time>
      </trkpt>
      <trkpt lat="49.23203" lon="1.40789">
        <ele>145.11</ele>
        <time>2015-09-20T07:58:38Z</time>
      </trkpt>
      <trkpt lat="49.23202" lon="1.40788">
        <ele>145.17</ele>
        <time>2015-09-20T07:58:39Z</time>
      </trkpt>
      <trkpt lat="49.23179" lon="1.40802">
        <ele>147.9</ele>
        <time>2015-09-20T07:58:58Z</time>
      </trkpt>
      <trkpt lat="49.23177" lon="1.40802">
        <ele>147.71</ele>
        <time>2015-09-20T07:59:21Z</time>
      </trkpt>
      <trkpt lat="49.23177" lon="1.40804">
        <ele>147.92</ele>
        <time>2015-09-20T07:59:24Z</time>
      </trkpt>
      <trkpt lat="49.23177" lon="1.40803">
        <ele>147.47</ele>
        <time>2015-09-20T07:59:29Z</time>
      </trkpt>
      <trkpt lat="49.23174" lon="1.40803">
        <ele>147.86</ele>
        <time>2015-09-20T07:59:43Z</time>
      </trkpt>
      <trkpt lat="49.23174" lon="1.4081">
        <ele>149.44</ele>
        <time>2015-09-20T07:59:50Z</time>
      </trkpt>
      <trkpt lat="49.23173" lon="1.40819">
        <ele>149.66</ele>
        <time>2015-09-20T07:59:59Z</time>
      </trkpt>
      <trkpt lat="49.23173" lon="1.4082">
        <ele>149.85</ele>
        <time>2015-09-20T08:00:00Z</time>
      </trkpt>
      <trkpt lat="49.23173" lon="1.40824">
        <ele>150.6</ele>
        <time>2015-09-20T08:00:04Z</time>
      </trkpt>
      <trkpt lat="49.23171" lon="1.40834">
        <ele>151</ele>
        <time>2015-09-20T08:00:19Z</time>
      </trkpt>
      <trkpt lat="49.23171" lon="1.40836">
        <ele>151</ele>
        <time>2015-09-20T08:00:20Z</time>
      </trkpt>
      <trkpt lat="49.23171" lon="1.40838">
        <ele>150.94</ele>
        <time>2015-09-20T08:00:21Z</time>
      </trkpt>
      <trkpt lat="49.23171" lon="1.4084">
        <ele>150.98</ele>
        <time>2015-09-20T08:00:22Z</time>
      </trkpt>
      <trkpt lat="49.23171" lon="1.40842">
        <ele>151.18</ele>
        <time>2015-09-20T08:00:23Z</time>
      </trkpt>
      <trkpt lat="49.23171" lon="1.40843">
        <ele>151.25</ele>
        <time>2015-09-20T08:00:24Z</time>
      </trkpt>
      <trkpt lat="49.23179" lon="1.40861">
        <ele>152.44</ele>
        <time>2015-09-20T08:00:43Z</time>
      </trkpt>
      <trkpt lat="49.2318" lon="1.40863">
        <ele>152.49</ele>
        <time>2015-09-20T08:00:44Z</time>
      </trkpt>
      <trkpt lat="49.23181" lon="1.40865">
        <ele>152.61</ele>
        <time>2015-09-20T08:00:50Z</time>
      </trkpt>
      <trkpt lat="49.23182" lon="1.40869">
        <ele>152.89</ele>
        <time>2015-09-20T08:00:52Z</time>
      </trkpt>
      <trkpt lat="49.23192" lon="1.40898">
        <ele>155.93</ele>
        <time>2015-09-20T08:01:11Z</time>
      </trkpt>
      <trkpt lat="49.23195" lon="1.409">
        <ele>156.01</ele>
        <time>2015-09-20T08:01:28Z</time>
      </trkpt>
      <trkpt lat="49.23196" lon="1.409">
        <ele>156.27</ele>
        <time>2015-09-20T08:01:32Z</time>
      </trkpt>
      <trkpt lat="49.23198" lon="1.40901">
        <ele>157.27</ele>
        <time>2015-09-20T08:01:36Z</time>
      </trkpt>
      <trkpt lat="49.23203" lon="1.409">
        <ele>156.99</ele>
        <time>2015-09-20T08:01:47Z</time>
      </trkpt>
      <trkpt lat="49.23207" lon="1.40905">
        <ele>157.01</ele>
        <time>2015-09-20T08:01:52Z</time>
      </trkpt>
      <trkpt lat="49.23209" lon="1.40914">
        <ele>158.24</ele>
        <time>2015-09-20T08:02:03Z</time>
      </trkpt>
      <trkpt lat="49.23209" lon="1.40915">
        <ele>158.5</ele>
        <time>2015-09-20T08:02:04Z</time>
      </trkpt>
      <trkpt lat="49.23209" lon="1.40917">
        <ele>158.62</ele>
        <time>2015-09-20T08:02:05Z</time>
      </trkpt>
      <trkpt lat="49.23218" lon="1.40943">
        <ele>160.35</ele>
        <time>2015-09-20T08:02:21Z</time>
      </trkpt>
      <trkpt lat="49.23219" lon="1.40944">
        <ele>160.46</ele>
        <time>2015-09-20T08:02:22Z</time>
      </trkpt>
      <trkpt lat="49.23221" lon="1.4095">
        <ele>161.46</ele>
        <time>2015-09-20T08:02:30Z</time>
      </trkpt>
      <trkpt lat="49.23224" lon="1.4096">
        <ele>163.53</ele>
        <time>2015-09-20T08:02:44Z</time>
      </trkpt>
      <trkpt lat="49.23226" lon="1.40962">
        <ele>163.69</ele>
        <time>2015-09-20T08:02:45Z</time>
      </trkpt>
      <trkpt lat="49.23227" lon="1.40964">
        <ele>163.95</ele>
        <time>2015-09-20T08:02:46Z</time>
      </trkpt>
      <trkpt lat="49.23228" lon="1.40966">
        <ele>164.08</ele>
        <time>2015-09-20T08:02:47Z</time>
      </trkpt>
      <trkpt lat="49.23229" lon="1.40968">
        <ele>164.26</ele>
        <time>2015-09-20T08:02:48Z</time>
      </trkpt>
      <trkpt lat="49.23229" lon="1.40971">
        <ele>164.6</ele>
        <time>2015-09-20T08:02:49Z</time>
      </trkpt>
      <trkpt lat="49.2323" lon="1.40973">
        <ele>164.84</ele>
        <time>2015-09-20T08:02:50Z</time>
      </trkpt>
      <trkpt lat="49.23244" lon="1.41003">
        <ele>168.02</ele>
        <time>2015-09-20T08:03:06Z</time>
      </trkpt>
      <trkpt lat="49.23253" lon="1.41019">
        <ele>171.18</ele>
        <time>2015-09-20T08:03:28Z</time>
      </trkpt>
      <trkpt lat="49.23254" lon="1.41017">
        <ele>171.61</ele>
        <time>2015-09-20T08:03:30Z</time>
      </trkpt>
      <trkpt lat="49.23254" lon="1.41015">
        <ele>171.8</ele>
        <time>2015-09-20T08:03:31Z</time>
      </trkpt>
      <trkpt lat="49.23255" lon="1.41014">
        <ele>172.04</ele>
        <time>2015-09-20T08:03:32Z</time>
      </trkpt>
      <trkpt lat="49.23256" lon="1.41011">
        <ele>172.46</ele>
        <time>2015-09-20T08:03:33Z</time>
      </trkpt>
      <trkpt lat="49.23256" lon="1.41009">
        <ele>172.63</ele>
        <time>2015-09-20T08:03:34Z</time>
      </trkpt>
      <trkpt lat="49.23257" lon="1.41008">
        <ele>172.72</ele>
        <time>2015-09-20T08:03:35Z</time>
      </trkpt>
      <trkpt lat="49.23258" lon="1.41006">
        <ele>172.71</ele>
        <time>2015-09-20T08:03:36Z</time>
      </trkpt>
      <trkpt lat="49.23258" lon="1.41004">
        <ele>172.72</ele>
        <time>2015-09-20T08:03:37Z</time>
      </trkpt>
      <trkpt lat="49.23259" lon="1.41002">
        <ele>172.79</ele>
        <time>2015-09-20T08:03:38Z</time>
      </trkpt>
      <trkpt lat="49.23259" lon="1.41001">
        <ele>173.13</ele>
        <time>2015-09-20T08:03:39Z</time>
      </trkpt>
      <trkpt lat="49.2326" lon="1.41">
        <ele>173.54</ele>
        <time>2015-09-20T08:03:40Z</time>
      </trkpt>
      <trkpt lat="49.23259" lon="1.41002">
        <ele>176.67</ele>
        <time>2015-09-20T08:03:52Z</time>
      </trkpt>
      <trkpt lat="49.23259" lon="1.41005">
        <ele>176.9</ele>
        <time>2015-09-20T08:03:53Z</time>
      </trkpt>
      <trkpt lat="49.23257" lon="1.4101">
        <ele>177.06</ele>
        <time>2015-09-20T08:03:54Z</time>
      </trkpt>
      <trkpt lat="49.23269" lon="1.41025">
        <ele>179.18</ele>
        <time>2015-09-20T08:04:16Z</time>
      </trkpt>
      <trkpt lat="49.2327" lon="1.41025">
        <ele>178.79</ele>
        <time>2015-09-20T08:04:18Z</time>
      </trkpt>
      <trkpt lat="49.23276" lon="1.41025">
        <ele>179</ele>
        <time>2015-09-20T08:04:33Z</time>
      </trkpt>
      <trkpt lat="49.23273" lon="1.41026">
        <ele>179.13</ele>
        <time>2015-09-20T08:04:52Z</time>
      </trkpt>
      <trkpt lat="49.23276" lon="1.4103">
        <ele>179.36</ele>
        <time>2015-09-20T08:04:56Z</time>
      </trkpt>
      <trkpt lat="49.23277" lon="1.4103">
        <ele>179.35</ele>
        <time>2015-09-20T08:04:57Z</time>
      </trkpt>
      <trkpt lat="49.23278" lon="1.41031">
        <ele>179.21</ele>
        <time>2015-09-20T08:04:58Z</time>
      </trkpt>
      <trkpt lat="49.2333" lon="1.41049">
        <ele>177.62</ele>
        <time>2015-09-20T08:05:14Z</time>
      </trkpt>
      <trkpt lat="49.2334" lon="1.41051">
        <ele>179.45</ele>
        <time>2015-09-20T08:05:17Z</time>
      </trkpt>
      <trkpt lat="49.23364" lon="1.41058">
        <ele>182.49</ele>
        <time>2015-09-20T08:05:25Z</time>
      </trkpt>
      <trkpt lat="49.2339" lon="1.41068">
        <ele>185.52</ele>
        <time>2015-09-20T08:05:33Z</time>
      </trkpt>
      <trkpt lat="49.23394" lon="1.41068">
        <ele>185.77</ele>
        <time>2015-09-20T08:05:34Z</time>
      </trkpt>
      <trkpt lat="49.23435" lon="1.41057">
        <ele>188.94</ele>
        <time>2015-09-20T08:05:47Z</time>
      </trkpt>
      <trkpt lat="49.23485" lon="1.41025">
        <ele>190.63</ele>
        <time>2015-09-20T08:06:03Z</time>
      </trkpt>
      <trkpt lat="49.23518" lon="1.4096">
        <ele>190.77</ele>
        <time>2015-09-20T08:06:18Z</time>
      </trkpt>
      <trkpt lat="49.23556" lon="1.4089">
        <ele>192.83</ele>
        <time>2015-09-20T08:06:33Z</time>
      </trkpt>
      <trkpt lat="49.23579" lon="1.40811">
        <ele>192.94</ele>
        <time>2015-09-20T08:06:48Z</time>
      </trkpt>
      <trkpt lat="49.23602" lon="1.40765">
        <ele>190.45</ele>
        <time>2015-09-20T08:06:57Z</time>
      </trkpt>
      <trkpt lat="49.23603" lon="1.40759">
        <ele>189.99</ele>
        <time>2015-09-20T08:06:58Z</time>
      </trkpt>
      <trkpt lat="49.23605" lon="1.40755">
        <ele>189.73</ele>
        <time>2015-09-20T08:06:59Z</time>
      </trkpt>
      <trkpt lat="49.23605" lon="1.40751">
        <ele>189.4</ele>
        <time>2015-09-20T08:07:00Z</time>
      </trkpt>
      <trkpt lat="49.23605" lon="1.40748">
        <ele>189.1</ele>
        <time>2015-09-20T08:07:01Z</time>
      </trkpt>
      <trkpt lat="49.23604" lon="1.40746">
        <ele>189.12</ele>
        <time>2015-09-20T08:07:02Z</time>
      </trkpt>
      <trkpt lat="49.23604" lon="1.40744">
        <ele>189.27</ele>
        <time>2015-09-20T08:07:03Z</time>
      </trkpt>
      <trkpt lat="49.23604" lon="1.40741">
        <ele>189.26</ele>
        <time>2015-09-20T08:07:04Z</time>
      </trkpt>
      <trkpt lat="49.23606" lon="1.40738">
        <ele>189.25</ele>
        <time>2015-09-20T08:07:05Z</time>
      </trkpt>
      <trkpt lat="49.2361" lon="1.40733">
        <ele>189.18</ele>
        <time>2015-09-20T08:07:06Z</time>
      </trkpt>
      <trkpt lat="49.23612" lon="1.40728">
        <ele>189.09</ele>
        <time>2015-09-20T08:07:07Z</time>
      </trkpt>
      <trkpt lat="49.23614" lon="1.40723">
        <ele>188.99</ele>
        <time>2015-09-20T08:07:08Z</time>
      </trkpt>
      <trkpt lat="49.23619" lon="1.40695">
        <ele>185.16</ele>
        <time>2015-09-20T08:07:12Z</time>
      </trkpt>
      <trkpt lat="49.23621" lon="1.40684">
        <ele>184.46</ele>
        <time>2015-09-20T08:07:14Z</time>
      </trkpt>
      <trkpt lat="49.2363" lon="1.40666">
        <ele>181.24</ele>
        <time>2015-09-20T08:07:19Z</time>
      </trkpt>
      <trkpt lat="49.23637" lon="1.40658">
        <ele>177.71</ele>
        <time>2015-09-20T08:07:22Z</time>
      </trkpt>
      <trkpt lat="49.2364" lon="1.40656">
        <ele>175.92</ele>
        <time>2015-09-20T08:07:24Z</time>
      </trkpt>
      <trkpt lat="49.2364" lon="1.40653">
        <ele>175.07</ele>
        <time>2015-09-20T08:07:25Z</time>
      </trkpt>
      <trkpt lat="49.23642" lon="1.40651">
        <ele>174.2</ele>
        <time>2015-09-20T08:07:26Z</time>
      </trkpt>
      <trkpt lat="49.23643" lon="1.40651">
        <ele>173.59</ele>
        <time>2015-09-20T08:07:27Z</time>
      </trkpt>
      <trkpt lat="49.23645" lon="1.40651">
        <ele>173.2</ele>
        <time>2015-09-20T08:07:28Z</time>
      </trkpt>
      <trkpt lat="49.23646" lon="1.40651">
        <ele>172.98</ele>
        <time>2015-09-20T08:07:29Z</time>
      </trkpt>
      <trkpt lat="49.23649" lon="1.4065">
        <ele>172.68</ele>
        <time>2015-09-20T08:07:30Z</time>
      </trkpt>
      <trkpt lat="49.2365" lon="1.40649">
        <ele>172.23</ele>
        <time>2015-09-20T08:07:31Z</time>
      </trkpt>
      <trkpt lat="49.23652" lon="1.40648">
        <ele>171.66</ele>
        <time>2015-09-20T08:07:32Z</time>
      </trkpt>
      <trkpt lat="49.23653" lon="1.40648">
        <ele>171.21</ele>
        <time>2015-09-20T08:07:33Z</time>
      </trkpt>
      <trkpt lat="49.23661" lon="1.40637">
        <ele>167.95</ele>
        <time>2015-09-20T08:07:39Z</time>
      </trkpt>
      <trkpt lat="49.2367" lon="1.40616">
        <ele>164.9</ele>
        <time>2015-09-20T08:07:44Z</time>
      </trkpt>
      <trkpt lat="49.23677" lon="1.40636">
        <ele>165.41</ele>
        <time>2015-09-20T08:08:00Z</time>
      </trkpt>
      <trkpt lat="49.23676" lon="1.40638">
        <ele>165.71</ele>
        <time>2015-09-20T08:08:01Z</time>
      </trkpt>
      <trkpt lat="49.23675" lon="1.4064">
        <ele>166.06</ele>
        <time>2015-09-20T08:08:02Z</time>
      </trkpt>
      <trkpt lat="49.23673" lon="1.40641">
        <ele>166.36</ele>
        <time>2015-09-20T08:08:03Z</time>
      </trkpt>
      <trkpt lat="49.23673" lon="1.40643">
        <ele>166.72</ele>
        <time>2015-09-20T08:08:04Z</time>
      </trkpt>
      <trkpt lat="49.23673" lon="1.40644">
        <ele>167.08</ele>
        <time>2015-09-20T08:08:05Z</time>
      </trkpt>
      <trkpt lat="49.2367" lon="1.40647">
        <ele>167.68</ele>
        <time>2015-09-20T08:08:09Z</time>
      </trkpt>
      <trkpt lat="49.23658" lon="1.40653">
        <ele>170.28</ele>
        <time>2015-09-20T08:08:16Z</time>
      </trkpt>
      <trkpt lat="49.23657" lon="1.40654">
        <ele>170.43</ele>
        <time>2015-09-20T08:08:17Z</time>
      </trkpt>
      <trkpt lat="49.23655" lon="1.40657">
        <ele>170.87</ele>
        <time>2015-09-20T08:08:20Z</time>
      </trkpt>
      <trkpt lat="49.23651" lon="1.40665">
        <ele>171.93</ele>
        <time>2015-09-20T08:08:25Z</time>
      </trkpt>
      <trkpt lat="49.2365" lon="1.40667">
        <ele>172.24</ele>
        <time>2015-09-20T08:08:26Z</time>
      </trkpt>
      <trkpt lat="49.23649" lon="1.40668">
        <ele>172.47</ele>
        <time>2015-09-20T08:08:27Z</time>
      </trkpt>
      <trkpt lat="49.23647" lon="1.40669">
        <ele>172.71</ele>
        <time>2015-09-20T08:08:28Z</time>
      </trkpt>
      <trkpt lat="49.23646" lon="1.4067">
        <ele>172.97</ele>
        <time>2015-09-20T08:08:29Z</time>
      </trkpt>
      <trkpt lat="49.23641" lon="1.40683">
        <ele>174.81</ele>
        <time>2015-09-20T08:08:37Z</time>
      </trkpt>
      <trkpt lat="49.23641" lon="1.40684">
        <ele>175.11</ele>
        <time>2015-09-20T08:08:38Z</time>
      </trkpt>
      <trkpt lat="49.2364" lon="1.40685">
        <ele>175.25</ele>
        <time>2015-09-20T08:08:39Z</time>
      </trkpt>
      <trkpt lat="49.23639" lon="1.40686">
        <ele>175.4</ele>
        <time>2015-09-20T08:08:40Z</time>
      </trkpt>
      <trkpt lat="49.23638" lon="1.40688">
        <ele>175.62</ele>
        <time>2015-09-20T08:08:41Z</time>
      </trkpt>
      <trkpt lat="49.23635" lon="1.40692">
        <ele>176.71</ele>
        <time>2015-09-20T08:08:47Z</time>
      </trkpt>
      <trkpt lat="49.23635" lon="1.40693">
        <ele>176.81</ele>
        <time>2015-09-20T08:08:48Z</time>
      </trkpt>
      <trkpt lat="49.23635" lon="1.40695">
        <ele>176.94</ele>
        <time>2015-09-20T08:08:49Z</time>
      </trkpt>
      <trkpt lat="49.23637" lon="1.40703">
        <ele>178.33</ele>
        <time>2015-09-20T08:08:55Z</time>
      </trkpt>
      <trkpt lat="49.23638" lon="1.40705">
        <ele>178.58</ele>
        <time>2015-09-20T08:08:56Z</time>
      </trkpt>
      <trkpt lat="49.23637" lon="1.40707">
        <ele>178.86</ele>
        <time>2015-09-20T08:08:57Z</time>
      </trkpt>
      <trkpt lat="49.23638" lon="1.40709">
        <ele>179.05</ele>
        <time>2015-09-20T08:08:58Z</time>
      </trkpt>
      <trkpt lat="49.23638" lon="1.40709">
        <ele>179.36</ele>
        <time>2015-09-20T08:09:04Z</time>
      </trkpt>
      <trkpt lat="49.23627" lon="1.4072">
        <ele>181.73</ele>
        <time>2015-09-20T08:09:21Z</time>
      </trkpt>
      <trkpt lat="49.23618" lon="1.40721">
        <ele>183.55</ele>
        <time>2015-09-20T08:09:31Z</time>
      </trkpt>
      <trkpt lat="49.23616" lon="1.40726">
        <ele>184.26</ele>
        <time>2015-09-20T08:09:34Z</time>
      </trkpt>
      <trkpt lat="49.23615" lon="1.40726">
        <ele>184.46</ele>
        <time>2015-09-20T08:09:35Z</time>
      </trkpt>
      <trkpt lat="49.23605" lon="1.40731">
        <ele>186.73</ele>
        <time>2015-09-20T08:09:43Z</time>
      </trkpt>
      <trkpt lat="49.23605" lon="1.40733">
        <ele>186.94</ele>
        <time>2015-09-20T08:09:44Z</time>
      </trkpt>
      <trkpt lat="49.23605" lon="1.40735">
        <ele>187.22</ele>
        <time>2015-09-20T08:09:45Z</time>
      </trkpt>
      <trkpt lat="49.23608" lon="1.40748">
        <ele>188.78</ele>
        <time>2015-09-20T08:10:01Z</time>
      </trkpt>
      <trkpt lat="49.23609" lon="1.40749">
        <ele>188.82</ele>
        <time>2015-09-20T08:10:02Z</time>
      </trkpt>
      <trkpt lat="49.2361" lon="1.40746">
        <ele>189.53</ele>
        <time>2015-09-20T08:10:14Z</time>
      </trkpt>
      <trkpt lat="49.23612" lon="1.40746">
        <ele>189.54</ele>
        <time>2015-09-20T08:10:16Z</time>
      </trkpt>
      <trkpt lat="49.23614" lon="1.40744">
        <ele>189.45</ele>
        <time>2015-09-20T08:10:19Z</time>
      </trkpt>
      <trkpt lat="49.23614" lon="1.40751">
        <ele>189.45</ele>
        <time>2015-09-20T08:10:49Z</time>
      </trkpt>
      <trkpt lat="49.23614" lon="1.40753">
        <ele>189.77</ele>
        <time>2015-09-20T08:10:50Z</time>
      </trkpt>
      <trkpt lat="49.23613" lon="1.40754">
        <ele>189.88</ele>
        <time>2015-09-20T08:10:51Z</time>
      </trkpt>
      <trkpt lat="49.23612" lon="1.40755">
        <ele>190.21</ele>
        <time>2015-09-20T08:10:52Z</time>
      </trkpt>
      <trkpt lat="49.2361" lon="1.40756">
        <ele>190.57</ele>
        <time>2015-09-20T08:10:53Z</time>
      </trkpt>
      <trkpt lat="49.23607" lon="1.40758">
        <ele>190.81</ele>
        <time>2015-09-20T08:10:54Z</time>
      </trkpt>
      <trkpt lat="49.23605" lon="1.40758">
        <ele>191.23</ele>
        <time>2015-09-20T08:10:55Z</time>
      </trkpt>
      <trkpt lat="49.23603" lon="1.40759">
        <ele>191.59</ele>
        <time>2015-09-20T08:10:56Z</time>
      </trkpt>
      <trkpt lat="49.236" lon="1.40761">
        <ele>191.77</ele>
        <time>2015-09-20T08:10:57Z</time>
      </trkpt>
      <trkpt lat="49.23598" lon="1.40763">
        <ele>191.97</ele>
        <time>2015-09-20T08:10:58Z</time>
      </trkpt>
      <trkpt lat="49.23597" lon="1.40768">
        <ele>192.1</ele>
        <time>2015-09-20T08:10:59Z</time>
      </trkpt>
      <trkpt lat="49.23596" lon="1.40771">
        <ele>192.12</ele>
        <time>2015-09-20T08:11:00Z</time>
      </trkpt>
      <trkpt lat="49.23595" lon="1.40775">
        <ele>192.15</ele>
        <time>2015-09-20T08:11:01Z</time>
      </trkpt>
      <trkpt lat="49.23595" lon="1.40779">
        <ele>192.39</ele>
        <time>2015-09-20T08:11:02Z</time>
      </trkpt>
      <trkpt lat="49.23594" lon="1.40783">
        <ele>192.5</ele>
        <time>2015-09-20T08:11:03Z</time>
      </trkpt>
      <trkpt lat="49.23592" lon="1.40787">
        <ele>192.53</ele>
        <time>2015-09-20T08:11:04Z</time>
      </trkpt>
      <trkpt lat="49.23591" lon="1.4079">
        <ele>192.6</ele>
        <time>2015-09-20T08:11:05Z</time>
      </trkpt>
      <trkpt lat="49.2359" lon="1.40792">
        <ele>192.66</ele>
        <time>2015-09-20T08:11:06Z</time>
      </trkpt>
      <trkpt lat="49.2359" lon="1.40796">
        <ele>192.7</ele>
        <time>2015-09-20T08:11:07Z</time>
      </trkpt>
      <trkpt lat="49.2359" lon="1.40799">
        <ele>192.78</ele>
        <time>2015-09-20T08:11:08Z</time>
      </trkpt>
      <trkpt lat="49.23591" lon="1.40804">
        <ele>192.88</ele>
        <time>2015-09-20T08:11:09Z</time>
      </trkpt>
      <trkpt lat="49.23591" lon="1.40808">
        <ele>192.85</ele>
        <time>2015-09-20T08:11:10Z</time>
      </trkpt>
      <trkpt lat="49.23593" lon="1.40811">
        <ele>192.78</ele>
        <time>2015-09-20T08:11:11Z</time>
      </trkpt>
      <trkpt lat="49.23595" lon="1.40813">
        <ele>192.7</ele>
        <time>2015-09-20T08:11:12Z</time>
      </trkpt>
      <trkpt lat="49.23598" lon="1.40817">
        <ele>192.75</ele>
        <time>2015-09-20T08:11:13Z</time>
      </trkpt>
      <trkpt lat="49.2364" lon="1.40862">
        <ele>193.32</ele>
        <time>2015-09-20T08:11:30Z</time>
      </trkpt>
      <trkpt lat="49.23657" lon="1.40881">
        <ele>192.83</ele>
        <time>2015-09-20T08:12:01Z</time>
      </trkpt>
      <trkpt lat="49.23701" lon="1.40926">
        <ele>193.5</ele>
        <time>2015-09-20T08:12:25Z</time>
      </trkpt>
      <trkpt lat="49.23741" lon="1.40978">
        <ele>193.02</ele>
        <time>2015-09-20T08:12:42Z</time>
      </trkpt>
      <trkpt lat="49.23771" lon="1.41027">
        <ele>193.35</ele>
        <time>2015-09-20T08:12:54Z</time>
      </trkpt>
      <trkpt lat="49.23773" lon="1.41027">
        <ele>192.91</ele>
        <time>2015-09-20T08:12:55Z</time>
      </trkpt>
      <trkpt lat="49.23777" lon="1.41028">
        <ele>192.65</ele>
        <time>2015-09-20T08:12:56Z</time>
      </trkpt>
      <trkpt lat="49.2378" lon="1.41029">
        <ele>192.17</ele>
        <time>2015-09-20T08:12:57Z</time>
      </trkpt>
      <trkpt lat="49.23783" lon="1.4103">
        <ele>192.22</ele>
        <time>2015-09-20T08:12:58Z</time>
      </trkpt>
      <trkpt lat="49.23788" lon="1.41037">
        <ele>192.5</ele>
        <time>2015-09-20T08:13:02Z</time>
      </trkpt>
      <trkpt lat="49.23788" lon="1.4104">
        <ele>192.55</ele>
        <time>2015-09-20T08:13:03Z</time>
      </trkpt>
      <trkpt lat="49.23787" lon="1.41043">
        <ele>192.58</ele>
        <time>2015-09-20T08:13:04Z</time>
      </trkpt>
      <trkpt lat="49.23785" lon="1.41046">
        <ele>192.62</ele>
        <time>2015-09-20T08:13:05Z</time>
      </trkpt>
      <trkpt lat="49.23784" lon="1.4105">
        <ele>192.71</ele>
        <time>2015-09-20T08:13:06Z</time>
      </trkpt>
      <trkpt lat="49.23782" lon="1.41054">
        <ele>192.78</ele>
        <time>2015-09-20T08:13:07Z</time>
      </trkpt>
      <trkpt lat="49.23762" lon="1.411">
        <ele>193.76</ele>
        <time>2015-09-20T08:13:18Z</time>
      </trkpt>
      <trkpt lat="49.2376" lon="1.41107">
        <ele>193.88</ele>
        <time>2015-09-20T08:13:19Z</time>
      </trkpt>
      <trkpt lat="49.2376" lon="1.41138">
        <ele>194.25</ele>
        <time>2015-09-20T08:13:25Z</time>
      </trkpt>
      <trkpt lat="49.23763" lon="1.4114">
        <ele>194.21</ele>
        <time>2015-09-20T08:13:26Z</time>
      </trkpt>
      <trkpt lat="49.23767" lon="1.41142">
        <ele>194.01</ele>
        <time>2015-09-20T08:13:27Z</time>
      </trkpt>
      <trkpt lat="49.23771" lon="1.41143">
        <ele>193.63</ele>
        <time>2015-09-20T08:13:28Z</time>
      </trkpt>
      <trkpt lat="49.23775" lon="1.41145">
        <ele>193.38</ele>
        <time>2015-09-20T08:13:29Z</time>
      </trkpt>
      <trkpt lat="49.23825" lon="1.41169">
        <ele>193.09</ele>
        <time>2015-09-20T08:13:41Z</time>
      </trkpt>
      <trkpt lat="49.23838" lon="1.41175">
        <ele>192.69</ele>
        <time>2015-09-20T08:13:44Z</time>
      </trkpt>
      <trkpt lat="49.23887" lon="1.41204">
        <ele>190.77</ele>
        <time>2015-09-20T08:14:00Z</time>
      </trkpt>
      <trkpt lat="49.23931" lon="1.41245">
        <ele>187.55</ele>
        <time>2015-09-20T08:14:18Z</time>
      </trkpt>
      <trkpt lat="49.23959" lon="1.41257">
        <ele>184.38</ele>
        <time>2015-09-20T08:14:28Z</time>
      </trkpt>
      <trkpt lat="49.23983" lon="1.41281">
        <ele>181.3</ele>
        <time>2015-09-20T08:14:35Z</time>
      </trkpt>
      <trkpt lat="49.23993" lon="1.41278">
        <ele>178.11</ele>
        <time>2015-09-20T08:14:42Z</time>
      </trkpt>
      <trkpt lat="49.24004" lon="1.41272">
        <ele>174.82</ele>
        <time>2015-09-20T08:14:49Z</time>
      </trkpt>
      <trkpt lat="49.24004" lon="1.4127">
        <ele>174.57</ele>
        <time>2015-09-20T08:14:50Z</time>
      </trkpt>
      <trkpt lat="49.24004" lon="1.41268">
        <ele>174.39</ele>
        <time>2015-09-20T08:14:51Z</time>
      </trkpt>
      <trkpt lat="49.24009" lon="1.41261">
        <ele>172.3</ele>
        <time>2015-09-20T08:14:56Z</time>
      </trkpt>
      <trkpt lat="49.24012" lon="1.41261">
        <ele>171.34</ele>
        <time>2015-09-20T08:14:59Z</time>
      </trkpt>
      <trkpt lat="49.24014" lon="1.41262">
        <ele>171.17</ele>
        <time>2015-09-20T08:15:00Z</time>
      </trkpt>
      <trkpt lat="49.24016" lon="1.41264">
        <ele>171.08</ele>
        <time>2015-09-20T08:15:01Z</time>
      </trkpt>
      <trkpt lat="49.24017" lon="1.41265">
        <ele>170.92</ele>
        <time>2015-09-20T08:15:02Z</time>
      </trkpt>
      <trkpt lat="49.24018" lon="1.41267">
        <ele>170.71</ele>
        <time>2015-09-20T08:15:03Z</time>
      </trkpt>
      <trkpt lat="49.24019" lon="1.41268">
        <ele>170.62</ele>
        <time>2015-09-20T08:15:04Z</time>
      </trkpt>
      <trkpt lat="49.2402" lon="1.41269">
        <ele>170.6</ele>
        <time>2015-09-20T08:15:05Z</time>
      </trkpt>
      <trkpt lat="49.24022" lon="1.4127">
        <ele>170.58</ele>
        <time>2015-09-20T08:15:06Z</time>
      </trkpt>
      <trkpt lat="49.24031" lon="1.41273">
        <ele>168.05</ele>
        <time>2015-09-20T08:15:11Z</time>
      </trkpt>
      <trkpt lat="49.24033" lon="1.41272">
        <ele>167.28</ele>
        <time>2015-09-20T08:15:12Z</time>
      </trkpt>
      <trkpt lat="49.24043" lon="1.41268">
        <ele>164.09</ele>
        <time>2015-09-20T08:15:19Z</time>
      </trkpt>
      <trkpt lat="49.24054" lon="1.41261">
        <ele>159.6</ele>
        <time>2015-09-20T08:15:23Z</time>
      </trkpt>
      <trkpt lat="49.24064" lon="1.41256">
        <ele>156.27</ele>
        <time>2015-09-20T08:15:27Z</time>
      </trkpt>
      <trkpt lat="49.24068" lon="1.41242">
        <ele>152.8</ele>
        <time>2015-09-20T08:15:31Z</time>
      </trkpt>
      <trkpt lat="49.24074" lon="1.41234">
        <ele>149.67</ele>
        <time>2015-09-20T08:15:35Z</time>
      </trkpt>
      <trkpt lat="49.24077" lon="1.41228">
        <ele>146.59</ele>
        <time>2015-09-20T08:15:38Z</time>
      </trkpt>
      <trkpt lat="49.24083" lon="1.4122">
        <ele>142.76</ele>
        <time>2015-09-20T08:15:42Z</time>
      </trkpt>
      <trkpt lat="49.24089" lon="1.41209">
        <ele>139.15</ele>
        <time>2015-09-20T08:15:46Z</time>
      </trkpt>
      <trkpt lat="49.24094" lon="1.41207">
        <ele>136.34</ele>
        <time>2015-09-20T08:15:49Z</time>
      </trkpt>
      <trkpt lat="49.24105" lon="1.41199">
        <ele>133.07</ele>
        <time>2015-09-20T08:15:55Z</time>
      </trkpt>
      <trkpt lat="49.24113" lon="1.41187">
        <ele>129.2</ele>
        <time>2015-09-20T08:15:59Z</time>
      </trkpt>
      <trkpt lat="49.24124" lon="1.41171">
        <ele>125.46</ele>
        <time>2015-09-20T08:16:04Z</time>
      </trkpt>
      <trkpt lat="49.24136" lon="1.41162">
        <ele>121.93</ele>
        <time>2015-09-20T08:16:09Z</time>
      </trkpt>
      <trkpt lat="49.24138" lon="1.41158">
        <ele>121.25</ele>
        <time>2015-09-20T08:16:10Z</time>
      </trkpt>
      <trkpt lat="49.2414" lon="1.41153">
        <ele>120.72</ele>
        <time>2015-09-20T08:16:11Z</time>
      </trkpt>
      <trkpt lat="49.2414" lon="1.41148">
        <ele>120.09</ele>
        <time>2015-09-20T08:16:12Z</time>
      </trkpt>
      <trkpt lat="49.24139" lon="1.41142">
        <ele>119.32</ele>
        <time>2015-09-20T08:16:13Z</time>
      </trkpt>
      <trkpt lat="49.24139" lon="1.41138">
        <ele>118.35</ele>
        <time>2015-09-20T08:16:14Z</time>
      </trkpt>
      <trkpt lat="49.24139" lon="1.41135">
        <ele>117.5</ele>
        <time>2015-09-20T08:16:15Z</time>
      </trkpt>
      <trkpt lat="49.24141" lon="1.41122">
        <ele>113.98</ele>
        <time>2015-09-20T08:16:18Z</time>
      </trkpt>
      <trkpt lat="49.24148" lon="1.41104">
        <ele>109.99</ele>
        <time>2015-09-20T08:16:21Z</time>
      </trkpt>
      <trkpt lat="49.24153" lon="1.41091">
        <ele>106.56</ele>
        <time>2015-09-20T08:16:23Z</time>
      </trkpt>
      <trkpt lat="49.24156" lon="1.41073">
        <ele>102.36</ele>
        <time>2015-09-20T08:16:26Z</time>
      </trkpt>
      <trkpt lat="49.24162" lon="1.41056">
        <ele>99.06</ele>
        <time>2015-09-20T08:16:30Z</time>
      </trkpt>
      <trkpt lat="49.24175" lon="1.41046">
        <ele>94.9</ele>
        <time>2015-09-20T08:16:33Z</time>
      </trkpt>
      <trkpt lat="49.24185" lon="1.41045">
        <ele>91.62</ele>
        <time>2015-09-20T08:16:37Z</time>
      </trkpt>
      <trkpt lat="49.24186" lon="1.41045">
        <ele>91.42</ele>
        <time>2015-09-20T08:16:38Z</time>
      </trkpt>
      <trkpt lat="49.24189" lon="1.41043">
        <ele>91.26</ele>
        <time>2015-09-20T08:16:48Z</time>
      </trkpt>
      <trkpt lat="49.2419" lon="1.41041">
        <ele>91.8</ele>
        <time>2015-09-20T08:16:59Z</time>
      </trkpt>
      <trkpt lat="49.24191" lon="1.41039">
        <ele>91.86</ele>
        <time>2015-09-20T08:17:01Z</time>
      </trkpt>
      <trkpt lat="49.24192" lon="1.41039">
        <ele>91.87</ele>
        <time>2015-09-20T08:17:04Z</time>
      </trkpt>
      <trkpt lat="49.24194" lon="1.41036">
        <ele>91.68</ele>
        <time>2015-09-20T08:17:15Z</time>
      </trkpt>
      <trkpt lat="49.24197" lon="1.41044">
        <ele>90.84</ele>
        <time>2015-09-20T08:17:35Z</time>
      </trkpt>
      <trkpt lat="49.24197" lon="1.41043">
        <ele>90.69</ele>
        <time>2015-09-20T08:17:47Z</time>
      </trkpt>
      <trkpt lat="49.24194" lon="1.41044">
        <ele>90.77</ele>
        <time>2015-09-20T08:17:53Z</time>
      </trkpt>
      <trkpt lat="49.24191" lon="1.41048">
        <ele>90.78</ele>
        <time>2015-09-20T08:17:56Z</time>
      </trkpt>
      <trkpt lat="49.24187" lon="1.4105">
        <ele>90.79</ele>
        <time>2015-09-20T08:17:59Z</time>
      </trkpt>
      <trkpt lat="49.24186" lon="1.41052">
        <ele>90.77</ele>
        <time>2015-09-20T08:18:03Z</time>
      </trkpt>
      <trkpt lat="49.24184" lon="1.41054">
        <ele>90.82</ele>
        <time>2015-09-20T08:18:06Z</time>
      </trkpt>
      <trkpt lat="49.24184" lon="1.41053">
        <ele>90.86</ele>
        <time>2015-09-20T08:18:19Z</time>
      </trkpt>
      <trkpt lat="49.24184" lon="1.41052">
        <ele>90.82</ele>
        <time>2015-09-20T08:18:20Z</time>
      </trkpt>
      <trkpt lat="49.24187" lon="1.41048">
        <ele>91.31</ele>
        <time>2015-09-20T08:18:40Z</time>
      </trkpt>
      <trkpt lat="49.24187" lon="1.41044">
        <ele>91.17</ele>
        <time>2015-09-20T08:19:08Z</time>
      </trkpt>
      <trkpt lat="49.24187" lon="1.41045">
        <ele>91</ele>
        <time>2015-09-20T08:19:11Z</time>
      </trkpt>
      <trkpt lat="49.24187" lon="1.41046">
        <ele>91.02</ele>
        <time>2015-09-20T08:19:12Z</time>
      </trkpt>
      <trkpt lat="49.24189" lon="1.4105">
        <ele>90.85</ele>
        <time>2015-09-20T08:19:17Z</time>
      </trkpt>
      <trkpt lat="49.24189" lon="1.41056">
        <ele>90.87</ele>
        <time>2015-09-20T08:19:26Z</time>
      </trkpt>
      <trkpt lat="49.2419" lon="1.41057">
        <ele>90.9</ele>
        <time>2015-09-20T08:19:38Z</time>
      </trkpt>
      <trkpt lat="49.24188" lon="1.41051">
        <ele>90.68</ele>
        <time>2015-09-20T08:19:43Z</time>
      </trkpt>
      <trkpt lat="49.24187" lon="1.41048">
        <ele>90.64</ele>
        <time>2015-09-20T08:19:47Z</time>
      </trkpt>
      <trkpt lat="49.24187" lon="1.41046">
        <ele>90.67</ele>
        <time>2015-09-20T08:19:49Z</time>
      </trkpt>
      <trkpt lat="49.24185" lon="1.41046">
        <ele>90.69</ele>
        <time>2015-09-20T08:19:50Z</time>
      </trkpt>
      <trkpt lat="49.24189" lon="1.41047">
        <ele>90.65</ele>
        <time>2015-09-20T08:20:06Z</time>
      </trkpt>
      <trkpt lat="49.2419" lon="1.41044">
        <ele>90.68</ele>
        <time>2015-09-20T08:20:14Z</time>
      </trkpt>
      <trkpt lat="49.24185" lon="1.41048">
        <ele>90.68</ele>
        <time>2015-09-20T08:20:30Z</time>
      </trkpt>
      <trkpt lat="49.24183" lon="1.41049">
        <ele>90.84</ele>
        <time>2015-09-20T08:20:31Z</time>
      </trkpt>
      <trkpt lat="49.24188" lon="1.41048">
        <ele>91.04</ele>
        <time>2015-09-20T08:20:39Z</time>
      </trkpt>
      <trkpt lat="49.24193" lon="1.41046">
        <ele>91.04</ele>
        <time>2015-09-20T08:20:48Z</time>
      </trkpt>
      <trkpt lat="49.24193" lon="1.41045">
        <ele>91.28</ele>
        <time>2015-09-20T08:20:52Z</time>
      </trkpt>
      <trkpt lat="49.24192" lon="1.4105">
        <ele>90.91</ele>
        <time>2015-09-20T08:21:02Z</time>
      </trkpt>
      <trkpt lat="49.2419" lon="1.41053">
        <ele>90.53</ele>
        <time>2015-09-20T08:21:05Z</time>
      </trkpt>
      <trkpt lat="49.24188" lon="1.41055">
        <ele>90.69</ele>
        <time>2015-09-20T08:21:10Z</time>
      </trkpt>
      <trkpt lat="49.24188" lon="1.41056">
        <ele>90.71</ele>
        <time>2015-09-20T08:21:11Z</time>
      </trkpt>
      <trkpt lat="49.24185" lon="1.41054">
        <ele>91.08</ele>
        <time>2015-09-20T08:21:25Z</time>
      </trkpt>
      <trkpt lat="49.24186" lon="1.41054">
        <ele>91.03</ele>
        <time>2015-09-20T08:21:26Z</time>
      </trkpt>
      <trkpt lat="49.24189" lon="1.4105">
        <ele>90.86</ele>
        <time>2015-09-20T08:21:32Z</time>
      </trkpt>
      <trkpt lat="49.2419" lon="1.41049">
        <ele>90.86</ele>
        <time>2015-09-20T08:21:33Z</time>
      </trkpt>
      <trkpt lat="49.24191" lon="1.41046">
        <ele>90.91</ele>
        <time>2015-09-20T08:21:52Z</time>
      </trkpt>
      <trkpt lat="49.24192" lon="1.41045">
        <ele>90.9</ele>
        <time>2015-09-20T08:21:53Z</time>
      </trkpt>
      <trkpt lat="49.24192" lon="1.41041">
        <ele>90.75</ele>
        <time>2015-09-20T08:22:05Z</time>
      </trkpt>
      <trkpt lat="49.2419" lon="1.41042">
        <ele>90.75</ele>
        <time>2015-09-20T08:22:07Z</time>
      </trkpt>
      <trkpt lat="49.24189" lon="1.41043">
        <ele>90.73</ele>
        <time>2015-09-20T08:22:09Z</time>
      </trkpt>
      <trkpt lat="49.24187" lon="1.41043">
        <ele>90.45</ele>
        <time>2015-09-20T08:22:16Z</time>
      </trkpt>
      <trkpt lat="49.24189" lon="1.41041">
        <ele>90.4</ele>
        <time>2015-09-20T08:22:22Z</time>
      </trkpt>
      <trkpt lat="49.24189" lon="1.41042">
        <ele>90.8</ele>
        <time>2015-09-20T08:22:55Z</time>
      </trkpt>
      <trkpt lat="49.24192" lon="1.41043">
        <ele>90.38</ele>
        <time>2015-09-20T08:23:03Z</time>
      </trkpt>
      <trkpt lat="49.24192" lon="1.41044">
        <ele>90.98</ele>
        <time>2015-09-20T08:23:18Z</time>
      </trkpt>
      <trkpt lat="49.24191" lon="1.41046">
        <ele>90.23</ele>
        <time>2015-09-20T08:23:21Z</time>
      </trkpt>
      <trkpt lat="49.24188" lon="1.41049">
        <ele>91.63</ele>
        <time>2015-09-20T08:23:27Z</time>
      </trkpt>
      <trkpt lat="49.24189" lon="1.41053">
        <ele>90.38</ele>
        <time>2015-09-20T08:23:59Z</time>
      </trkpt>
      <trkpt lat="49.24192" lon="1.41049">
        <ele>90.1</ele>
        <time>2015-09-20T08:24:13Z</time>
      </trkpt>
      <trkpt lat="49.24188" lon="1.41039">
        <ele>90.22</ele>
        <time>2015-09-20T08:25:17Z</time>
      </trkpt>
      <trkpt lat="49.24186" lon="1.41044">
        <ele>90.84</ele>
        <time>2015-09-20T08:25:36Z</time>
      </trkpt>
      <trkpt lat="49.24188" lon="1.41046">
        <ele>90.54</ele>
        <time>2015-09-20T08:26:12Z</time>
      </trkpt>
      <trkpt lat="49.24189" lon="1.41045">
        <ele>90.09</ele>
        <time>2015-09-20T08:26:17Z</time>
      </trkpt>
      <trkpt lat="49.24188" lon="1.41045">
        <ele>90.06</ele>
        <time>2015-09-20T08:26:20Z</time>
      </trkpt>
      <trkpt lat="49.24186" lon="1.41039">
        <ele>91.2</ele>
        <time>2015-09-20T08:26:30Z</time>
      </trkpt>
      <trkpt lat="49.24186" lon="1.41037">
        <ele>90.74</ele>
        <time>2015-09-20T08:26:31Z</time>
      </trkpt>
      <trkpt lat="49.24186" lon="1.41035">
        <ele>90.24</ele>
        <time>2015-09-20T08:26:33Z</time>
      </trkpt>
      <trkpt lat="49.24188" lon="1.41037">
        <ele>90.61</ele>
        <time>2015-09-20T08:26:44Z</time>
      </trkpt>
      <trkpt lat="49.24188" lon="1.41039">
        <ele>90.66</ele>
        <time>2015-09-20T08:26:45Z</time>
      </trkpt>
      <trkpt lat="49.24189" lon="1.41041">
        <ele>91.15</ele>
        <time>2015-09-20T08:26:47Z</time>
      </trkpt>
      <trkpt lat="49.24191" lon="1.41041">
        <ele>91.25</ele>
        <time>2015-09-20T08:26:49Z</time>
      </trkpt>
      <trkpt lat="49.24199" lon="1.41043">
        <ele>89.96</ele>
        <time>2015-09-20T08:27:02Z</time>
      </trkpt>
      <trkpt lat="49.24204" lon="1.41047">
        <ele>88.53</ele>
        <time>2015-09-20T08:27:37Z</time>
      </trkpt>
      <trkpt lat="49.24206" lon="1.41046">
        <ele>88.34</ele>
        <time>2015-09-20T08:27:40Z</time>
      </trkpt>
      <trkpt lat="49.24223" lon="1.41043">
        <ele>86.51</ele>
        <time>2015-09-20T08:27:56Z</time>
      </trkpt>
      <trkpt lat="49.24222" lon="1.41043">
        <ele>86.53</ele>
        <time>2015-09-20T08:27:57Z</time>
      </trkpt>
      <trkpt lat="49.24221" lon="1.41043">
        <ele>86.49</ele>
        <time>2015-09-20T08:27:58Z</time>
      </trkpt>
      <trkpt lat="49.24219" lon="1.41043">
        <ele>86.43</ele>
        <time>2015-09-20T08:28:02Z</time>
      </trkpt>
      <trkpt lat="49.24218" lon="1.41043">
        <ele>86.55</ele>
        <time>2015-09-20T08:28:03Z</time>
      </trkpt>
      <trkpt lat="49.24206" lon="1.4104">
        <ele>87.42</ele>
        <time>2015-09-20T08:28:09Z</time>
      </trkpt>
      <trkpt lat="49.24204" lon="1.41035">
        <ele>87.29</ele>
        <time>2015-09-20T08:28:10Z</time>
      </trkpt>
      <trkpt lat="49.24203" lon="1.4103">
        <ele>86.57</ele>
        <time>2015-09-20T08:28:11Z</time>
      </trkpt>
      <trkpt lat="49.24203" lon="1.41024">
        <ele>86.09</ele>
        <time>2015-09-20T08:28:12Z</time>
      </trkpt>
      <trkpt lat="49.24202" lon="1.4102">
        <ele>85.6</ele>
        <time>2015-09-20T08:28:13Z</time>
      </trkpt>
      <trkpt lat="49.24199" lon="1.40991">
        <ele>82.56</ele>
        <time>2015-09-20T08:28:19Z</time>
      </trkpt>
      <trkpt lat="49.24213" lon="1.40966">
        <ele>80.16</ele>
        <time>2015-09-20T08:28:27Z</time>
      </trkpt>
      <trkpt lat="49.24215" lon="1.40966">
        <ele>79.81</ele>
        <time>2015-09-20T08:28:28Z</time>
      </trkpt>
      <trkpt lat="49.24218" lon="1.40966">
        <ele>79.15</ele>
        <time>2015-09-20T08:28:29Z</time>
      </trkpt>
      <trkpt lat="49.24222" lon="1.40966">
        <ele>78.46</ele>
        <time>2015-09-20T08:28:30Z</time>
      </trkpt>
      <trkpt lat="49.24226" lon="1.40966">
        <ele>77.57</ele>
        <time>2015-09-20T08:28:31Z</time>
      </trkpt>
      <trkpt lat="49.2423" lon="1.40966">
        <ele>76.81</ele>
        <time>2015-09-20T08:28:32Z</time>
      </trkpt>
      <trkpt lat="49.24234" lon="1.40965">
        <ele>75.87</ele>
        <time>2015-09-20T08:28:33Z</time>
      </trkpt>
      <trkpt lat="49.24238" lon="1.40964">
        <ele>75.14</ele>
        <time>2015-09-20T08:28:34Z</time>
      </trkpt>
      <trkpt lat="49.24252" lon="1.4097">
        <ele>73.29</ele>
        <time>2015-09-20T08:28:38Z</time>
      </trkpt>
      <trkpt lat="49.2426" lon="1.40977">
        <ele>72.67</ele>
        <time>2015-09-20T08:28:43Z</time>
      </trkpt>
      <trkpt lat="49.24262" lon="1.40977">
        <ele>72.35</ele>
        <time>2015-09-20T08:28:44Z</time>
      </trkpt>
      <trkpt lat="49.24265" lon="1.40976">
        <ele>71.92</ele>
        <time>2015-09-20T08:28:45Z</time>
      </trkpt>
      <trkpt lat="49.24278" lon="1.40976">
        <ele>69.21</ele>
        <time>2015-09-20T08:28:50Z</time>
      </trkpt>
      <trkpt lat="49.24296" lon="1.40995">
        <ele>65.96</ele>
        <time>2015-09-20T08:28:55Z</time>
      </trkpt>
      <trkpt lat="49.24316" lon="1.4103">
        <ele>63.16</ele>
        <time>2015-09-20T08:29:04Z</time>
      </trkpt>
      <trkpt lat="49.24327" lon="1.41057">
        <ele>59.82</ele>
        <time>2015-09-20T08:29:10Z</time>
      </trkpt>
      <trkpt lat="49.24329" lon="1.4106">
        <ele>59.7</ele>
        <time>2015-09-20T08:29:11Z</time>
      </trkpt>
      <trkpt lat="49.24341" lon="1.41095">
        <ele>56.6</ele>
        <time>2015-09-20T08:29:21Z</time>
      </trkpt>
      <trkpt lat="49.24342" lon="1.41099">
        <ele>56.32</ele>
        <time>2015-09-20T08:29:22Z</time>
      </trkpt>
      <trkpt lat="49.24341" lon="1.41122">
        <ele>54.18</ele>
        <time>2015-09-20T08:29:38Z</time>
      </trkpt>
      <trkpt lat="49.2437" lon="1.41187">
        <ele>54.47</ele>
        <time>2015-09-20T08:30:04Z</time>
      </trkpt>
      <trkpt lat="49.24401" lon="1.41247">
        <ele>55.17</ele>
        <time>2015-09-20T08:30:19Z</time>
      </trkpt>
      <trkpt lat="49.24431" lon="1.41314">
        <ele>55.2</ele>
        <time>2015-09-20T08:30:30Z</time>
      </trkpt>
      <trkpt lat="49.24434" lon="1.4132">
        <ele>55.31</ele>
        <time>2015-09-20T08:30:31Z</time>
      </trkpt>
      <trkpt lat="49.24452" lon="1.41397">
        <ele>55.48</ele>
        <time>2015-09-20T08:30:42Z</time>
      </trkpt>
      <trkpt lat="49.24465" lon="1.41473">
        <ele>55.34</ele>
        <time>2015-09-20T08:30:52Z</time>
      </trkpt>
      <trkpt lat="49.24483" lon="1.41547">
        <ele>55.31</ele>
        <time>2015-09-20T08:31:02Z</time>
      </trkpt>
      <trkpt lat="49.24496" lon="1.4159">
        <ele>55.4</ele>
        <time>2015-09-20T08:31:08Z</time>
      </trkpt>
      <trkpt lat="49.2451" lon="1.41663">
        <ele>56.76</ele>
        <time>2015-09-20T08:31:18Z</time>
      </trkpt>
      <trkpt lat="49.24515" lon="1.41742">
        <ele>57.09</ele>
        <time>2015-09-20T08:31:28Z</time>
      </trkpt>
      <trkpt lat="49.24519" lon="1.41823">
        <ele>57.62</ele>
        <time>2015-09-20T08:31:38Z</time>
      </trkpt>
      <trkpt lat="49.24513" lon="1.41898">
        <ele>58.33</ele>
        <time>2015-09-20T08:31:49Z</time>
      </trkpt>
      <trkpt lat="49.24508" lon="1.41976">
        <ele>59.4</ele>
        <time>2015-09-20T08:31:59Z</time>
      </trkpt>
      <trkpt lat="49.24519" lon="1.42052">
        <ele>60.25</ele>
        <time>2015-09-20T08:32:09Z</time>
      </trkpt>
      <trkpt lat="49.24521" lon="1.42068">
        <ele>60.48</ele>
        <time>2015-09-20T08:32:11Z</time>
      </trkpt>
      <trkpt lat="49.24522" lon="1.42076">
        <ele>60.59</ele>
        <time>2015-09-20T08:32:12Z</time>
      </trkpt>
      <trkpt lat="49.24523" lon="1.42084">
        <ele>60.62</ele>
        <time>2015-09-20T08:32:13Z</time>
      </trkpt>
      <trkpt lat="49.24526" lon="1.42147">
        <ele>61.24</ele>
        <time>2015-09-20T08:32:21Z</time>
      </trkpt>
      <trkpt lat="49.24533" lon="1.42225">
        <ele>63.25</ele>
        <time>2015-09-20T08:32:32Z</time>
      </trkpt>
      <trkpt lat="49.24534" lon="1.42231">
        <ele>63.45</ele>
        <time>2015-09-20T08:32:33Z</time>
      </trkpt>
      <trkpt lat="49.24534" lon="1.42237">
        <ele>63.59</ele>
        <time>2015-09-20T08:32:34Z</time>
      </trkpt>
      <trkpt lat="49.24542" lon="1.42314">
        <ele>65.38</ele>
        <time>2015-09-20T08:32:47Z</time>
      </trkpt>
      <trkpt lat="49.24541" lon="1.42348">
        <ele>66.47</ele>
        <time>2015-09-20T08:32:53Z</time>
      </trkpt>
      <trkpt lat="49.24538" lon="1.42353">
        <ele>66.51</ele>
        <time>2015-09-20T08:32:54Z</time>
      </trkpt>
      <trkpt lat="49.24536" lon="1.42356">
        <ele>66.66</ele>
        <time>2015-09-20T08:32:55Z</time>
      </trkpt>
      <trkpt lat="49.24533" lon="1.42356">
        <ele>66.85</ele>
        <time>2015-09-20T08:32:56Z</time>
      </trkpt>
      <trkpt lat="49.2453" lon="1.42355">
        <ele>67.16</ele>
        <time>2015-09-20T08:32:57Z</time>
      </trkpt>
      <trkpt lat="49.24527" lon="1.42353">
        <ele>67.57</ele>
        <time>2015-09-20T08:32:58Z</time>
      </trkpt>
      <trkpt lat="49.24525" lon="1.42352">
        <ele>67.76</ele>
        <time>2015-09-20T08:32:59Z</time>
      </trkpt>
      <trkpt lat="49.24498" lon="1.42344">
        <ele>71.07</ele>
        <time>2015-09-20T08:33:10Z</time>
      </trkpt>
      <trkpt lat="49.24473" lon="1.42337">
        <ele>74.28</ele>
        <time>2015-09-20T08:33:21Z</time>
      </trkpt>
      <trkpt lat="49.2445" lon="1.42331">
        <ele>77.3</ele>
        <time>2015-09-20T08:33:32Z</time>
      </trkpt>
      <trkpt lat="49.24428" lon="1.42325">
        <ele>80.42</ele>
        <time>2015-09-20T08:33:43Z</time>
      </trkpt>
      <trkpt lat="49.24408" lon="1.42323">
        <ele>83.56</ele>
        <time>2015-09-20T08:33:53Z</time>
      </trkpt>
      <trkpt lat="49.24386" lon="1.42316">
        <ele>86.66</ele>
        <time>2015-09-20T08:34:03Z</time>
      </trkpt>
      <trkpt lat="49.24353" lon="1.42299">
        <ele>89.91</ele>
        <time>2015-09-20T08:34:18Z</time>
      </trkpt>
      <trkpt lat="49.24329" lon="1.42271">
        <ele>92.92</ele>
        <time>2015-09-20T08:34:32Z</time>
      </trkpt>
      <trkpt lat="49.24313" lon="1.42233">
        <ele>96.02</ele>
        <time>2015-09-20T08:34:47Z</time>
      </trkpt>
      <trkpt lat="49.24309" lon="1.42229">
        <ele>96.14</ele>
        <time>2015-09-20T08:34:50Z</time>
      </trkpt>
      <trkpt lat="49.24309" lon="1.42227">
        <ele>96.32</ele>
        <time>2015-09-20T08:34:51Z</time>
      </trkpt>
      <trkpt lat="49.24308" lon="1.42226">
        <ele>96.48</ele>
        <time>2015-09-20T08:34:52Z</time>
      </trkpt>
      <trkpt lat="49.24307" lon="1.42225">
        <ele>96.87</ele>
        <time>2015-09-20T08:34:54Z</time>
      </trkpt>
      <trkpt lat="49.24306" lon="1.42224">
        <ele>97.05</ele>
        <time>2015-09-20T08:34:55Z</time>
      </trkpt>
      <trkpt lat="49.24305" lon="1.42222">
        <ele>97.16</ele>
        <time>2015-09-20T08:34:56Z</time>
      </trkpt>
      <trkpt lat="49.24291" lon="1.42181">
        <ele>100.28</ele>
        <time>2015-09-20T08:35:18Z</time>
      </trkpt>
      <trkpt lat="49.24288" lon="1.42178">
        <ele>101.38</ele>
        <time>2015-09-20T08:35:23Z</time>
      </trkpt>
      <trkpt lat="49.24288" lon="1.42176">
        <ele>101.61</ele>
        <time>2015-09-20T08:35:24Z</time>
      </trkpt>
      <trkpt lat="49.24289" lon="1.42175">
        <ele>101.82</ele>
        <time>2015-09-20T08:35:25Z</time>
      </trkpt>
      <trkpt lat="49.24289" lon="1.42174">
        <ele>101.97</ele>
        <time>2015-09-20T08:35:26Z</time>
      </trkpt>
      <trkpt lat="49.24288" lon="1.42173">
        <ele>102.11</ele>
        <time>2015-09-20T08:35:27Z</time>
      </trkpt>
      <trkpt lat="49.24289" lon="1.42172">
        <ele>102.2</ele>
        <time>2015-09-20T08:35:28Z</time>
      </trkpt>
      <trkpt lat="49.2429" lon="1.42171">
        <ele>102.32</ele>
        <time>2015-09-20T08:35:29Z</time>
      </trkpt>
      <trkpt lat="49.24291" lon="1.4217">
        <ele>102.42</ele>
        <time>2015-09-20T08:35:30Z</time>
      </trkpt>
      <trkpt lat="49.24291" lon="1.42169">
        <ele>102.5</ele>
        <time>2015-09-20T08:35:31Z</time>
      </trkpt>
      <trkpt lat="49.24292" lon="1.42168">
        <ele>102.67</ele>
        <time>2015-09-20T08:35:32Z</time>
      </trkpt>
      <trkpt lat="49.24292" lon="1.42167">
        <ele>102.9</ele>
        <time>2015-09-20T08:35:33Z</time>
      </trkpt>
      <trkpt lat="49.24303" lon="1.42152">
        <ele>105.93</ele>
        <time>2015-09-20T08:35:52Z</time>
      </trkpt>
      <trkpt lat="49.24306" lon="1.42145">
        <ele>107.77</ele>
        <time>2015-09-20T08:36:00Z</time>
      </trkpt>
      <trkpt lat="49.2431" lon="1.42132">
        <ele>110.94</ele>
        <time>2015-09-20T08:36:15Z</time>
      </trkpt>
      <trkpt lat="49.24315" lon="1.42129">
        <ele>112.36</ele>
        <time>2015-09-20T08:36:23Z</time>
      </trkpt>
      <trkpt lat="49.24316" lon="1.42128">
        <ele>112.5</ele>
        <time>2015-09-20T08:36:24Z</time>
      </trkpt>
      <trkpt lat="49.24324" lon="1.42127">
        <ele>114.36</ele>
        <time>2015-09-20T08:36:33Z</time>
      </trkpt>
      <trkpt lat="49.24324" lon="1.42126">
        <ele>114.56</ele>
        <time>2015-09-20T08:36:34Z</time>
      </trkpt>
      <trkpt lat="49.24328" lon="1.42119">
        <ele>115.8</ele>
        <time>2015-09-20T08:36:42Z</time>
      </trkpt>
      <trkpt lat="49.24329" lon="1.42115">
        <ele>116.4</ele>
        <time>2015-09-20T08:36:45Z</time>
      </trkpt>
      <trkpt lat="49.2433" lon="1.42113">
        <ele>116.56</ele>
        <time>2015-09-20T08:36:46Z</time>
      </trkpt>
      <trkpt lat="49.24332" lon="1.42109">
        <ele>117.25</ele>
        <time>2015-09-20T08:36:58Z</time>
      </trkpt>
      <trkpt lat="49.24331" lon="1.42108">
        <ele>117.1</ele>
        <time>2015-09-20T08:37:00Z</time>
      </trkpt>
      <trkpt lat="49.24318" lon="1.4208">
        <ele>120.2</ele>
        <time>2015-09-20T08:37:23Z</time>
      </trkpt>
      <trkpt lat="49.24311" lon="1.42055">
        <ele>123.27</ele>
        <time>2015-09-20T08:37:36Z</time>
      </trkpt>
      <trkpt lat="49.24297" lon="1.4202">
        <ele>126.56</ele>
        <time>2015-09-20T08:37:51Z</time>
      </trkpt>
      <trkpt lat="49.24289" lon="1.41992">
        <ele>129.87</ele>
        <time>2015-09-20T08:38:03Z</time>
      </trkpt>
      <trkpt lat="49.24286" lon="1.41975">
        <ele>133.01</ele>
        <time>2015-09-20T08:38:12Z</time>
      </trkpt>
      <trkpt lat="49.24283" lon="1.41952">
        <ele>134.93</ele>
        <time>2015-09-20T08:38:23Z</time>
      </trkpt>
      <trkpt lat="49.24283" lon="1.4195">
        <ele>135.15</ele>
        <time>2015-09-20T08:38:24Z</time>
      </trkpt>
      <trkpt lat="49.24283" lon="1.41947">
        <ele>135.32</ele>
        <time>2015-09-20T08:38:25Z</time>
      </trkpt>
      <trkpt lat="49.24279" lon="1.41931">
        <ele>137.2</ele>
        <time>2015-09-20T08:38:34Z</time>
      </trkpt>
      <trkpt lat="49.24278" lon="1.41928">
        <ele>137.45</ele>
        <time>2015-09-20T08:38:35Z</time>
      </trkpt>
      <trkpt lat="49.24278" lon="1.41927">
        <ele>137.65</ele>
        <time>2015-09-20T08:38:36Z</time>
      </trkpt>
      <trkpt lat="49.24277" lon="1.41925">
        <ele>137.89</ele>
        <time>2015-09-20T08:38:37Z</time>
      </trkpt>
      <trkpt lat="49.24276" lon="1.41924">
        <ele>138.07</ele>
        <time>2015-09-20T08:38:38Z</time>
      </trkpt>
      <trkpt lat="49.24275" lon="1.41923">
        <ele>138.2</ele>
        <time>2015-09-20T08:38:39Z</time>
      </trkpt>
      <trkpt lat="49.24268" lon="1.4191">
        <ele>139.7</ele>
        <time>2015-09-20T08:38:47Z</time>
      </trkpt>
      <trkpt lat="49.24267" lon="1.41908">
        <ele>140.01</ele>
        <time>2015-09-20T08:38:48Z</time>
      </trkpt>
      <trkpt lat="49.24266" lon="1.41907">
        <ele>140.2</ele>
        <time>2015-09-20T08:38:49Z</time>
      </trkpt>
      <trkpt lat="49.24265" lon="1.41906">
        <ele>140.27</ele>
        <time>2015-09-20T08:38:50Z</time>
      </trkpt>
      <trkpt lat="49.24264" lon="1.41905">
        <ele>140.33</ele>
        <time>2015-09-20T08:38:51Z</time>
      </trkpt>
      <trkpt lat="49.24263" lon="1.41903">
        <ele>140.46</ele>
        <time>2015-09-20T08:38:52Z</time>
      </trkpt>
      <trkpt lat="49.24263" lon="1.41901">
        <ele>140.55</ele>
        <time>2015-09-20T08:38:53Z</time>
      </trkpt>
      <trkpt lat="49.24262" lon="1.41899">
        <ele>140.68</ele>
        <time>2015-09-20T08:38:54Z</time>
      </trkpt>
      <trkpt lat="49.24244" lon="1.41872">
        <ele>143.71</ele>
        <time>2015-09-20T08:39:12Z</time>
      </trkpt>
      <trkpt lat="49.24238" lon="1.41856">
        <ele>145.19</ele>
        <time>2015-09-20T08:39:20Z</time>
      </trkpt>
      <trkpt lat="49.24237" lon="1.41854">
        <ele>145.48</ele>
        <time>2015-09-20T08:39:21Z</time>
      </trkpt>
      <trkpt lat="49.24236" lon="1.41852">
        <ele>145.71</ele>
        <time>2015-09-20T08:39:22Z</time>
      </trkpt>
      <trkpt lat="49.24235" lon="1.41851">
        <ele>145.9</ele>
        <time>2015-09-20T08:39:23Z</time>
      </trkpt>
      <trkpt lat="49.24234" lon="1.41849">
        <ele>146.23</ele>
        <time>2015-09-20T08:39:24Z</time>
      </trkpt>
      <trkpt lat="49.24234" lon="1.41847">
        <ele>146.47</ele>
        <time>2015-09-20T08:39:25Z</time>
      </trkpt>
      <trkpt lat="49.24233" lon="1.41845">
        <ele>146.58</ele>
        <time>2015-09-20T08:39:26Z</time>
      </trkpt>
      <trkpt lat="49.24233" lon="1.41843">
        <ele>146.71</ele>
        <time>2015-09-20T08:39:27Z</time>
      </trkpt>
      <trkpt lat="49.24232" lon="1.4184">
        <ele>146.88</ele>
        <time>2015-09-20T08:39:28Z</time>
      </trkpt>
      <trkpt lat="49.24231" lon="1.41838">
        <ele>147.11</ele>
        <time>2015-09-20T08:39:29Z</time>
      </trkpt>
      <trkpt lat="49.2423" lon="1.41836">
        <ele>147.36</ele>
        <time>2015-09-20T08:39:30Z</time>
      </trkpt>
      <trkpt lat="49.24229" lon="1.41834">
        <ele>147.6</ele>
        <time>2015-09-20T08:39:31Z</time>
      </trkpt>
      <trkpt lat="49.24228" lon="1.41832">
        <ele>147.74</ele>
        <time>2015-09-20T08:39:32Z</time>
      </trkpt>
      <trkpt lat="49.242" lon="1.41795">
        <ele>150.86</ele>
        <time>2015-09-20T08:39:52Z</time>
      </trkpt>
      <trkpt lat="49.2418" lon="1.41773">
        <ele>154.13</ele>
        <time>2015-09-20T08:40:06Z</time>
      </trkpt>
      <trkpt lat="49.24164" lon="1.41754">
        <ele>157.31</ele>
        <time>2015-09-20T08:40:18Z</time>
      </trkpt>
      <trkpt lat="49.24154" lon="1.41736">
        <ele>160.31</ele>
        <time>2015-09-20T08:40:28Z</time>
      </trkpt>
      <trkpt lat="49.24144" lon="1.41722">
        <ele>163.49</ele>
        <time>2015-09-20T08:40:36Z</time>
      </trkpt>
      <trkpt lat="49.24132" lon="1.41707">
        <ele>166.63</ele>
        <time>2015-09-20T08:40:46Z</time>
      </trkpt>
      <trkpt lat="49.24117" lon="1.41691">
        <ele>169.68</ele>
        <time>2015-09-20T08:40:57Z</time>
      </trkpt>
      <trkpt lat="49.2408" lon="1.41688">
        <ele>172.86</ele>
        <time>2015-09-20T08:41:15Z</time>
      </trkpt>
      <trkpt lat="49.24046" lon="1.4169">
        <ele>175.97</ele>
        <time>2015-09-20T08:41:31Z</time>
      </trkpt>
      <trkpt lat="49.24009" lon="1.41684">
        <ele>179.01</ele>
        <time>2015-09-20T08:41:49Z</time>
      </trkpt>
      <trkpt lat="49.23962" lon="1.4168">
        <ele>181.28</ele>
        <time>2015-09-20T08:42:09Z</time>
      </trkpt>
      <trkpt lat="49.23914" lon="1.41677">
        <ele>183.42</ele>
        <time>2015-09-20T08:42:29Z</time>
      </trkpt>
      <trkpt lat="49.23867" lon="1.41678">
        <ele>185.94</ele>
        <time>2015-09-20T08:42:49Z</time>
      </trkpt>
      <trkpt lat="49.23817" lon="1.41679">
        <ele>188.36</ele>
        <time>2015-09-20T08:43:07Z</time>
      </trkpt>
      <trkpt lat="49.23764" lon="1.4168">
        <ele>189.87</ele>
        <time>2015-09-20T08:43:23Z</time>
      </trkpt>
      <trkpt lat="49.23715" lon="1.41682">
        <ele>191.32</ele>
        <time>2015-09-20T08:43:39Z</time>
      </trkpt>
      <trkpt lat="49.23691" lon="1.41681">
        <ele>191.62</ele>
        <time>2015-09-20T08:43:47Z</time>
      </trkpt>
      <trkpt lat="49.23689" lon="1.41678">
        <ele>191.77</ele>
        <time>2015-09-20T08:43:48Z</time>
      </trkpt>
      <trkpt lat="49.23689" lon="1.41672">
        <ele>191.9</ele>
        <time>2015-09-20T08:43:49Z</time>
      </trkpt>
      <trkpt lat="49.23681" lon="1.41593">
        <ele>192.42</ele>
        <time>2015-09-20T08:44:01Z</time>
      </trkpt>
      <trkpt lat="49.2368" lon="1.41568">
        <ele>192.44</ele>
        <time>2015-09-20T08:44:05Z</time>
      </trkpt>
      <trkpt lat="49.23681" lon="1.41494">
        <ele>192.89</ele>
        <time>2015-09-20T08:44:16Z</time>
      </trkpt>
      <trkpt lat="49.23694" lon="1.41416">
        <ele>192.99</ele>
        <time>2015-09-20T08:44:27Z</time>
      </trkpt>
      <trkpt lat="49.23708" lon="1.41339">
        <ele>193.63</ele>
        <time>2015-09-20T08:44:37Z</time>
      </trkpt>
      <trkpt lat="49.23721" lon="1.41265">
        <ele>193.93</ele>
        <time>2015-09-20T08:44:47Z</time>
      </trkpt>
      <trkpt lat="49.23722" lon="1.41258">
        <ele>193.98</ele>
        <time>2015-09-20T08:44:48Z</time>
      </trkpt>
      <trkpt lat="49.23722" lon="1.41251">
        <ele>194.11</ele>
        <time>2015-09-20T08:44:49Z</time>
      </trkpt>
      <trkpt lat="49.23742" lon="1.41179">
        <ele>193.98</ele>
        <time>2015-09-20T08:45:00Z</time>
      </trkpt>
      <trkpt lat="49.23747" lon="1.4116">
        <ele>193.76</ele>
        <time>2015-09-20T08:45:03Z</time>
      </trkpt>
      <trkpt lat="49.2375" lon="1.41156">
        <ele>193.64</ele>
        <time>2015-09-20T08:45:04Z</time>
      </trkpt>
      <trkpt lat="49.23752" lon="1.41152">
        <ele>193.54</ele>
        <time>2015-09-20T08:45:05Z</time>
      </trkpt>
      <trkpt lat="49.23755" lon="1.41151">
        <ele>193.41</ele>
        <time>2015-09-20T08:45:06Z</time>
      </trkpt>
      <trkpt lat="49.2376" lon="1.41151">
        <ele>193.32</ele>
        <time>2015-09-20T08:45:07Z</time>
      </trkpt>
      <trkpt lat="49.23765" lon="1.41153">
        <ele>193.38</ele>
        <time>2015-09-20T08:45:08Z</time>
      </trkpt>
      <trkpt lat="49.23769" lon="1.41155">
        <ele>193.44</ele>
        <time>2015-09-20T08:45:09Z</time>
      </trkpt>
      <trkpt lat="49.23773" lon="1.41158">
        <ele>193.28</ele>
        <time>2015-09-20T08:45:10Z</time>
      </trkpt>
      <trkpt lat="49.23827" lon="1.41178">
        <ele>192.15</ele>
        <time>2015-09-20T08:45:21Z</time>
      </trkpt>
      <trkpt lat="49.23832" lon="1.4118">
        <ele>192.15</ele>
        <time>2015-09-20T08:45:22Z</time>
      </trkpt>
      <trkpt lat="49.2388" lon="1.41196">
        <ele>189.98</ele>
        <time>2015-09-20T08:45:34Z</time>
      </trkpt>
      <trkpt lat="49.23888" lon="1.4119">
        <ele>188.5</ele>
        <time>2015-09-20T08:45:37Z</time>
      </trkpt>
      <trkpt lat="49.23891" lon="1.41187">
        <ele>188.13</ele>
        <time>2015-09-20T08:45:38Z</time>
      </trkpt>
      <trkpt lat="49.23894" lon="1.41184">
        <ele>187.87</ele>
        <time>2015-09-20T08:45:39Z</time>
      </trkpt>
      <trkpt lat="49.23898" lon="1.41184">
        <ele>187.69</ele>
        <time>2015-09-20T08:45:40Z</time>
      </trkpt>
      <trkpt lat="49.23903" lon="1.41182">
        <ele>187.48</ele>
        <time>2015-09-20T08:45:41Z</time>
      </trkpt>
      <trkpt lat="49.23907" lon="1.4118">
        <ele>186.79</ele>
        <time>2015-09-20T08:45:42Z</time>
      </trkpt>
      <trkpt lat="49.23924" lon="1.41172">
        <ele>182.79</ele>
        <time>2015-09-20T08:45:46Z</time>
      </trkpt>
      <trkpt lat="49.2394" lon="1.41165">
        <ele>179.39</ele>
        <time>2015-09-20T08:45:49Z</time>
      </trkpt>
      <trkpt lat="49.23954" lon="1.41158">
        <ele>176.08</ele>
        <time>2015-09-20T08:45:52Z</time>
      </trkpt>
      <trkpt lat="49.2397" lon="1.41149">
        <ele>172.92</ele>
        <time>2015-09-20T08:45:56Z</time>
      </trkpt>
      <trkpt lat="49.23985" lon="1.4114">
        <ele>169.38</ele>
        <time>2015-09-20T08:46:00Z</time>
      </trkpt>
      <trkpt lat="49.23994" lon="1.41138">
        <ele>165.57</ele>
        <time>2015-09-20T08:46:03Z</time>
      </trkpt>
      <trkpt lat="49.24004" lon="1.4114">
        <ele>162.08</ele>
        <time>2015-09-20T08:46:07Z</time>
      </trkpt>
      <trkpt lat="49.24013" lon="1.41141">
        <ele>158.45</ele>
        <time>2015-09-20T08:46:11Z</time>
      </trkpt>
      <trkpt lat="49.24036" lon="1.41162">
        <ele>155.03</ele>
        <time>2015-09-20T08:46:21Z</time>
      </trkpt>
      <trkpt lat="49.24059" lon="1.41191">
        <ele>151.32</ele>
        <time>2015-09-20T08:46:29Z</time>
      </trkpt>
      <trkpt lat="49.24072" lon="1.41203">
        <ele>147.68</ele>
        <time>2015-09-20T08:46:33Z</time>
      </trkpt>
      <trkpt lat="49.24074" lon="1.41203">
        <ele>146.76</ele>
        <time>2015-09-20T08:46:35Z</time>
      </trkpt>
      <trkpt lat="49.24076" lon="1.41201">
        <ele>146.09</ele>
        <time>2015-09-20T08:46:36Z</time>
      </trkpt>
      <trkpt lat="49.24077" lon="1.41199">
        <ele>145.16</ele>
        <time>2015-09-20T08:46:37Z</time>
      </trkpt>
      <trkpt lat="49.24084" lon="1.41193">
        <ele>141.61</ele>
        <time>2015-09-20T08:46:41Z</time>
      </trkpt>
      <trkpt lat="49.24087" lon="1.41186">
        <ele>138.44</ele>
        <time>2015-09-20T08:46:44Z</time>
      </trkpt>
      <trkpt lat="49.2409" lon="1.41183">
        <ele>136.46</ele>
        <time>2015-09-20T08:46:46Z</time>
      </trkpt>
      <trkpt lat="49.24092" lon="1.41184">
        <ele>135.54</ele>
        <time>2015-09-20T08:46:47Z</time>
      </trkpt>
      <trkpt lat="49.24094" lon="1.41184">
        <ele>134.82</ele>
        <time>2015-09-20T08:46:48Z</time>
      </trkpt>
      <trkpt lat="49.24095" lon="1.41184">
        <ele>134.25</ele>
        <time>2015-09-20T08:46:49Z</time>
      </trkpt>
      <trkpt lat="49.24097" lon="1.41183">
        <ele>133.79</ele>
        <time>2015-09-20T08:46:50Z</time>
      </trkpt>
      <trkpt lat="49.24104" lon="1.41172">
        <ele>130.45</ele>
        <time>2015-09-20T08:46:55Z</time>
      </trkpt>
      <trkpt lat="49.24115" lon="1.41163">
        <ele>126.92</ele>
        <time>2015-09-20T08:46:59Z</time>
      </trkpt>
      <trkpt lat="49.24126" lon="1.41152">
        <ele>123.68</ele>
        <time>2015-09-20T08:47:03Z</time>
      </trkpt>
      <trkpt lat="49.24137" lon="1.41142">
        <ele>120.63</ele>
        <time>2015-09-20T08:47:08Z</time>
      </trkpt>
      <trkpt lat="49.24138" lon="1.4114">
        <ele>119.85</ele>
        <time>2015-09-20T08:47:09Z</time>
      </trkpt>
      <trkpt lat="49.24138" lon="1.41137">
        <ele>118.67</ele>
        <time>2015-09-20T08:47:10Z</time>
      </trkpt>
      <trkpt lat="49.24138" lon="1.41134">
        <ele>117.74</ele>
        <time>2015-09-20T08:47:11Z</time>
      </trkpt>
      <trkpt lat="49.24139" lon="1.41128">
        <ele>116.13</ele>
        <time>2015-09-20T08:47:13Z</time>
      </trkpt>
      <trkpt lat="49.2414" lon="1.41125">
        <ele>115.37</ele>
        <time>2015-09-20T08:47:14Z</time>
      </trkpt>
      <trkpt lat="49.24142" lon="1.41121">
        <ele>114.02</ele>
        <time>2015-09-20T08:47:15Z</time>
      </trkpt>
      <trkpt lat="49.24147" lon="1.41105">
        <ele>109.67</ele>
        <time>2015-09-20T08:47:18Z</time>
      </trkpt>
      <trkpt lat="49.24151" lon="1.41094">
        <ele>106.2</ele>
        <time>2015-09-20T08:47:20Z</time>
      </trkpt>
      <trkpt lat="49.24156" lon="1.41078">
        <ele>102.46</ele>
        <time>2015-09-20T08:47:23Z</time>
      </trkpt>
      <trkpt lat="49.24161" lon="1.41066">
        <ele>99.31</ele>
        <time>2015-09-20T08:47:26Z</time>
      </trkpt>
      <trkpt lat="49.24167" lon="1.41055">
        <ele>95.93</ele>
        <time>2015-09-20T08:47:29Z</time>
      </trkpt>
      <trkpt lat="49.24175" lon="1.41048">
        <ele>92.55</ele>
        <time>2015-09-20T08:47:32Z</time>
      </trkpt>
      <trkpt lat="49.24189" lon="1.41044">
        <ele>91.04</ele>
        <time>2015-09-20T08:47:35Z</time>
      </trkpt>
      <trkpt lat="49.24194" lon="1.41042">
        <ele>90.49</ele>
        <time>2015-09-20T08:47:36Z</time>
      </trkpt>
      <trkpt lat="49.24197" lon="1.4104">
        <ele>89.88</ele>
        <time>2015-09-20T08:47:37Z</time>
      </trkpt>
      <trkpt lat="49.24199" lon="1.41037">
        <ele>89.23</ele>
        <time>2015-09-20T08:47:38Z</time>
      </trkpt>
      <trkpt lat="49.24198" lon="1.41028">
        <ele>88.67</ele>
        <time>2015-09-20T08:47:39Z</time>
      </trkpt>
      <trkpt lat="49.24197" lon="1.41022">
        <ele>88.12</ele>
        <time>2015-09-20T08:47:40Z</time>
      </trkpt>
      <trkpt lat="49.24197" lon="1.41015">
        <ele>87.34</ele>
        <time>2015-09-20T08:47:41Z</time>
      </trkpt>
      <trkpt lat="49.24196" lon="1.41007">
        <ele>86.15</ele>
        <time>2015-09-20T08:47:42Z</time>
      </trkpt>
      <trkpt lat="49.24195" lon="1.40984">
        <ele>82.89</ele>
        <time>2015-09-20T08:47:46Z</time>
      </trkpt>
      <trkpt lat="49.2421" lon="1.40963">
        <ele>81</ele>
        <time>2015-09-20T08:47:52Z</time>
      </trkpt>
      <trkpt lat="49.24214" lon="1.40964">
        <ele>80.32</ele>
        <time>2015-09-20T08:47:53Z</time>
      </trkpt>
      <trkpt lat="49.24218" lon="1.40965">
        <ele>79.48</ele>
        <time>2015-09-20T08:47:54Z</time>
      </trkpt>
      <trkpt lat="49.24228" lon="1.40966">
        <ele>76.48</ele>
        <time>2015-09-20T08:47:56Z</time>
      </trkpt>
      <trkpt lat="49.24241" lon="1.40966">
        <ele>73.45</ele>
        <time>2015-09-20T08:47:59Z</time>
      </trkpt>
      <trkpt lat="49.24244" lon="1.40969">
        <ele>73.64</ele>
        <time>2015-09-20T08:48:00Z</time>
      </trkpt>
      <trkpt lat="49.24255" lon="1.40975">
        <ele>73.06</ele>
        <time>2015-09-20T08:48:04Z</time>
      </trkpt>
      <trkpt lat="49.24259" lon="1.40975">
        <ele>72.67</ele>
        <time>2015-09-20T08:48:05Z</time>
      </trkpt>
      <trkpt lat="49.24264" lon="1.40974">
        <ele>71.9</ele>
        <time>2015-09-20T08:48:06Z</time>
      </trkpt>
      <trkpt lat="49.24281" lon="1.40977">
        <ele>68.19</ele>
        <time>2015-09-20T08:48:11Z</time>
      </trkpt>
      <trkpt lat="49.24293" lon="1.41002">
        <ele>65.17</ele>
        <time>2015-09-20T08:48:15Z</time>
      </trkpt>
      <trkpt lat="49.24313" lon="1.41052">
        <ele>62.1</ele>
        <time>2015-09-20T08:48:24Z</time>
      </trkpt>
      <trkpt lat="49.24325" lon="1.4109">
        <ele>58.63</ele>
        <time>2015-09-20T08:48:32Z</time>
      </trkpt>
      <trkpt lat="49.24331" lon="1.41101">
        <ele>57.17</ele>
        <time>2015-09-20T08:48:35Z</time>
      </trkpt>
      <trkpt lat="49.24333" lon="1.41104">
        <ele>56.56</ele>
        <time>2015-09-20T08:48:36Z</time>
      </trkpt>
      <trkpt lat="49.24334" lon="1.41107">
        <ele>55.69</ele>
        <time>2015-09-20T08:48:37Z</time>
      </trkpt>
      <trkpt lat="49.24336" lon="1.41108">
        <ele>55.24</ele>
        <time>2015-09-20T08:48:38Z</time>
      </trkpt>
      <trkpt lat="49.24338" lon="1.41109">
        <ele>55.02</ele>
        <time>2015-09-20T08:48:39Z</time>
      </trkpt>
      <trkpt lat="49.24343" lon="1.41113">
        <ele>54.71</ele>
        <time>2015-09-20T08:48:44Z</time>
      </trkpt>
      <trkpt lat="49.24347" lon="1.41101">
        <ele>54.55</ele>
        <time>2015-09-20T08:48:51Z</time>
      </trkpt>
      <trkpt lat="49.24347" lon="1.41098">
        <ele>54.54</ele>
        <time>2015-09-20T08:48:52Z</time>
      </trkpt>
      <trkpt lat="49.24347" lon="1.41096">
        <ele>54.53</ele>
        <time>2015-09-20T08:48:53Z</time>
      </trkpt>
      <trkpt lat="49.24342" lon="1.41083">
        <ele>53.98</ele>
        <time>2015-09-20T08:49:08Z</time>
      </trkpt>
      <trkpt lat="49.24338" lon="1.41072">
        <ele>53.95</ele>
        <time>2015-09-20T08:49:11Z</time>
      </trkpt>
      <trkpt lat="49.24334" lon="1.41023">
        <ele>53.54</ele>
        <time>2015-09-20T08:49:20Z</time>
      </trkpt>
      <trkpt lat="49.24328" lon="1.40949">
        <ele>53.05</ele>
        <time>2015-09-20T08:49:31Z</time>
      </trkpt>
      <trkpt lat="49.24327" lon="1.40943">
        <ele>53.02</ele>
        <time>2015-09-20T08:49:32Z</time>
      </trkpt>
      <trkpt lat="49.24326" lon="1.40935">
        <ele>52.95</ele>
        <time>2015-09-20T08:49:33Z</time>
      </trkpt>
      <trkpt lat="49.24324" lon="1.40921">
        <ele>53.09</ele>
        <time>2015-09-20T08:49:35Z</time>
      </trkpt>
      <trkpt lat="49.24307" lon="1.40847">
        <ele>52.58</ele>
        <time>2015-09-20T08:49:45Z</time>
      </trkpt>
      <trkpt lat="49.24288" lon="1.40775">
        <ele>52.11</ele>
        <time>2015-09-20T08:49:55Z</time>
      </trkpt>
      <trkpt lat="49.24284" lon="1.40754">
        <ele>51.9</ele>
        <time>2015-09-20T08:49:58Z</time>
      </trkpt>
      <trkpt lat="49.24284" lon="1.40747">
        <ele>51.72</ele>
        <time>2015-09-20T08:49:59Z</time>
      </trkpt>
      <trkpt lat="49.24285" lon="1.40742">
        <ele>51.64</ele>
        <time>2015-09-20T08:50:00Z</time>
      </trkpt>
      <trkpt lat="49.24287" lon="1.40738">
        <ele>51.72</ele>
        <time>2015-09-20T08:50:01Z</time>
      </trkpt>
      <trkpt lat="49.2429" lon="1.40735">
        <ele>51.8</ele>
        <time>2015-09-20T08:50:02Z</time>
      </trkpt>
      <trkpt lat="49.24296" lon="1.40734">
        <ele>51.88</ele>
        <time>2015-09-20T08:50:03Z</time>
      </trkpt>
      <trkpt lat="49.243" lon="1.40733">
        <ele>52.1</ele>
        <time>2015-09-20T08:50:04Z</time>
      </trkpt>
      <trkpt lat="49.24305" lon="1.40733">
        <ele>52.17</ele>
        <time>2015-09-20T08:50:05Z</time>
      </trkpt>
      <trkpt lat="49.24311" lon="1.40733">
        <ele>52.23</ele>
        <time>2015-09-20T08:50:06Z</time>
      </trkpt>
      <trkpt lat="49.24316" lon="1.40734">
        <ele>52.23</ele>
        <time>2015-09-20T08:50:07Z</time>
      </trkpt>
      <trkpt lat="49.24369" lon="1.40727">
        <ele>52.29</ele>
        <time>2015-09-20T08:50:17Z</time>
      </trkpt>
      <trkpt lat="49.24388" lon="1.40724">
        <ele>52.05</ele>
        <time>2015-09-20T08:50:21Z</time>
      </trkpt>
      <trkpt lat="49.24392" lon="1.40721">
        <ele>52.03</ele>
        <time>2015-09-20T08:50:22Z</time>
      </trkpt>
      <trkpt lat="49.24401" lon="1.40717">
        <ele>52.23</ele>
        <time>2015-09-20T08:50:24Z</time>
      </trkpt>
      <trkpt lat="49.24405" lon="1.40717">
        <ele>52.18</ele>
        <time>2015-09-20T08:50:25Z</time>
      </trkpt>
      <trkpt lat="49.2441" lon="1.40716">
        <ele>52.21</ele>
        <time>2015-09-20T08:50:26Z</time>
      </trkpt>
      <trkpt lat="49.24414" lon="1.40715">
        <ele>52.41</ele>
        <time>2015-09-20T08:50:27Z</time>
      </trkpt>
      <trkpt lat="49.24416" lon="1.40709">
        <ele>52.38</ele>
        <time>2015-09-20T08:50:28Z</time>
      </trkpt>
      <trkpt lat="49.24417" lon="1.40704">
        <ele>52.28</ele>
        <time>2015-09-20T08:50:29Z</time>
      </trkpt>
      <trkpt lat="49.24417" lon="1.40698">
        <ele>52.27</ele>
        <time>2015-09-20T08:50:30Z</time>
      </trkpt>
      <trkpt lat="49.24416" lon="1.40693">
        <ele>52.23</ele>
        <time>2015-09-20T08:50:31Z</time>
      </trkpt>
      <trkpt lat="49.24415" lon="1.40687">
        <ele>52.12</ele>
        <time>2015-09-20T08:50:32Z</time>
      </trkpt>
      <trkpt lat="49.24413" lon="1.40681">
        <ele>51.98</ele>
        <time>2015-09-20T08:50:33Z</time>
      </trkpt>
      <trkpt lat="49.24411" lon="1.40674">
        <ele>51.93</ele>
        <time>2015-09-20T08:50:34Z</time>
      </trkpt>
      <trkpt lat="49.24396" lon="1.40597">
        <ele>51.96</ele>
        <time>2015-09-20T08:50:45Z</time>
      </trkpt>
      <trkpt lat="49.24391" lon="1.40579">
        <ele>52.03</ele>
        <time>2015-09-20T08:50:48Z</time>
      </trkpt>
      <trkpt lat="49.24386" lon="1.40565">
        <ele>51.77</ele>
        <time>2015-09-20T08:50:50Z</time>
      </trkpt>
      <trkpt lat="49.24381" lon="1.4055">
        <ele>51.61</ele>
        <time>2015-09-20T08:50:52Z</time>
      </trkpt>
      <trkpt lat="49.24366" lon="1.40476">
        <ele>51.8</ele>
        <time>2015-09-20T08:51:02Z</time>
      </trkpt>
      <trkpt lat="49.24364" lon="1.40469">
        <ele>51.79</ele>
        <time>2015-09-20T08:51:03Z</time>
      </trkpt>
      <trkpt lat="49.24345" lon="1.40394">
        <ele>51.44</ele>
        <time>2015-09-20T08:51:13Z</time>
      </trkpt>
      <trkpt lat="49.24342" lon="1.40375">
        <ele>51.54</ele>
        <time>2015-09-20T08:51:15Z</time>
      </trkpt>
      <trkpt lat="49.24339" lon="1.40368">
        <ele>51.46</ele>
        <time>2015-09-20T08:51:16Z</time>
      </trkpt>
      <trkpt lat="49.24335" lon="1.40363">
        <ele>51.45</ele>
        <time>2015-09-20T08:51:17Z</time>
      </trkpt>
      <trkpt lat="49.24331" lon="1.40359">
        <ele>51.5</ele>
        <time>2015-09-20T08:51:18Z</time>
      </trkpt>
      <trkpt lat="49.24326" lon="1.40356">
        <ele>51.55</ele>
        <time>2015-09-20T08:51:19Z</time>
      </trkpt>
      <trkpt lat="49.24322" lon="1.40353">
        <ele>51.68</ele>
        <time>2015-09-20T08:51:20Z</time>
      </trkpt>
      <trkpt lat="49.24319" lon="1.40351">
        <ele>51.72</ele>
        <time>2015-09-20T08:51:21Z</time>
      </trkpt>
      <trkpt lat="49.24309" lon="1.40345">
        <ele>51.6</ele>
        <time>2015-09-20T08:51:23Z</time>
      </trkpt>
      <trkpt lat="49.24304" lon="1.40344">
        <ele>51.58</ele>
        <time>2015-09-20T08:51:24Z</time>
      </trkpt>
      <trkpt lat="49.24299" lon="1.40345">
        <ele>51.61</ele>
        <time>2015-09-20T08:51:25Z</time>
      </trkpt>
      <trkpt lat="49.24245" lon="1.40335">
        <ele>52.05</ele>
        <time>2015-09-20T08:51:34Z</time>
      </trkpt>
      <trkpt lat="49.24198" lon="1.40285">
        <ele>51.37</ele>
        <time>2015-09-20T08:51:43Z</time>
      </trkpt>
      <trkpt lat="49.24189" lon="1.4027">
        <ele>51.53</ele>
        <time>2015-09-20T08:51:45Z</time>
      </trkpt>
      <trkpt lat="49.24183" lon="1.40253">
        <ele>51.54</ele>
        <time>2015-09-20T08:51:47Z</time>
      </trkpt>
      <trkpt lat="49.2418" lon="1.40245">
        <ele>51.54</ele>
        <time>2015-09-20T08:51:48Z</time>
      </trkpt>
      <trkpt lat="49.24155" lon="1.40177">
        <ele>51.98</ele>
        <time>2015-09-20T08:51:57Z</time>
      </trkpt>
      <trkpt lat="49.24129" lon="1.40109">
        <ele>52.09</ele>
        <time>2015-09-20T08:52:06Z</time>
      </trkpt>
      <trkpt lat="49.24118" lon="1.40086">
        <ele>51.9</ele>
        <time>2015-09-20T08:52:09Z</time>
      </trkpt>
      <trkpt lat="49.24113" lon="1.4008">
        <ele>51.91</ele>
        <time>2015-09-20T08:52:10Z</time>
      </trkpt>
      <trkpt lat="49.24109" lon="1.40074">
        <ele>51.85</ele>
        <time>2015-09-20T08:52:11Z</time>
      </trkpt>
      <trkpt lat="49.24104" lon="1.40069">
        <ele>51.71</ele>
        <time>2015-09-20T08:52:12Z</time>
      </trkpt>
      <trkpt lat="49.24098" lon="1.40065">
        <ele>51.52</ele>
        <time>2015-09-20T08:52:13Z</time>
      </trkpt>
      <trkpt lat="49.24092" lon="1.40064">
        <ele>51.43</ele>
        <time>2015-09-20T08:52:14Z</time>
      </trkpt>
      <trkpt lat="49.24087" lon="1.40065">
        <ele>51.4</ele>
        <time>2015-09-20T08:52:15Z</time>
      </trkpt>
      <trkpt lat="49.24082" lon="1.40067">
        <ele>51.37</ele>
        <time>2015-09-20T08:52:16Z</time>
      </trkpt>
      <trkpt lat="49.24076" lon="1.40069">
        <ele>51.32</ele>
        <time>2015-09-20T08:52:17Z</time>
      </trkpt>
      <trkpt lat="49.24025" lon="1.40087">
        <ele>52.19</ele>
        <time>2015-09-20T08:52:26Z</time>
      </trkpt>
      <trkpt lat="49.24013" lon="1.4009">
        <ele>52.28</ele>
        <time>2015-09-20T08:52:28Z</time>
      </trkpt>
      <trkpt lat="49.24007" lon="1.4009">
        <ele>52.28</ele>
        <time>2015-09-20T08:52:29Z</time>
      </trkpt>
      <trkpt lat="49.24002" lon="1.40089">
        <ele>52.34</ele>
        <time>2015-09-20T08:52:30Z</time>
      </trkpt>
      <trkpt lat="49.23996" lon="1.40088">
        <ele>52.41</ele>
        <time>2015-09-20T08:52:31Z</time>
      </trkpt>
      <trkpt lat="49.23991" lon="1.40088">
        <ele>52.46</ele>
        <time>2015-09-20T08:52:32Z</time>
      </trkpt>
      <trkpt lat="49.23938" lon="1.40085">
        <ele>52.12</ele>
        <time>2015-09-20T08:52:41Z</time>
      </trkpt>
      <trkpt lat="49.23887" lon="1.40086">
        <ele>51.21</ele>
        <time>2015-09-20T08:52:49Z</time>
      </trkpt>
      <trkpt lat="49.23854" lon="1.40087">
        <ele>50.74</ele>
        <time>2015-09-20T08:52:54Z</time>
      </trkpt>
      <trkpt lat="49.23847" lon="1.40088">
        <ele>50.75</ele>
        <time>2015-09-20T08:52:55Z</time>
      </trkpt>
      <trkpt lat="49.23841" lon="1.4009">
        <ele>50.79</ele>
        <time>2015-09-20T08:52:56Z</time>
      </trkpt>
      <trkpt lat="49.23794" lon="1.4011">
        <ele>50.96</ele>
        <time>2015-09-20T08:53:04Z</time>
      </trkpt>
      <trkpt lat="49.23745" lon="1.40131">
        <ele>51.81</ele>
        <time>2015-09-20T08:53:13Z</time>
      </trkpt>
      <trkpt lat="49.23724" lon="1.40136">
        <ele>52.14</ele>
        <time>2015-09-20T08:53:17Z</time>
      </trkpt>
      <trkpt lat="49.23718" lon="1.40136">
        <ele>52.2</ele>
        <time>2015-09-20T08:53:18Z</time>
      </trkpt>
      <trkpt lat="49.23713" lon="1.40134">
        <ele>52.27</ele>
        <time>2015-09-20T08:53:19Z</time>
      </trkpt>
      <trkpt lat="49.23708" lon="1.40132">
        <ele>52.35</ele>
        <time>2015-09-20T08:53:20Z</time>
      </trkpt>
      <trkpt lat="49.23703" lon="1.40128">
        <ele>52.41</ele>
        <time>2015-09-20T08:53:21Z</time>
      </trkpt>
      <trkpt lat="49.237" lon="1.40123">
        <ele>52.51</ele>
        <time>2015-09-20T08:53:22Z</time>
      </trkpt>
      <trkpt lat="49.23696" lon="1.40117">
        <ele>52.69</ele>
        <time>2015-09-20T08:53:23Z</time>
      </trkpt>
      <trkpt lat="49.23692" lon="1.40111">
        <ele>52.85</ele>
        <time>2015-09-20T08:53:24Z</time>
      </trkpt>
      <trkpt lat="49.23687" lon="1.40106">
        <ele>52.97</ele>
        <time>2015-09-20T08:53:25Z</time>
      </trkpt>
      <trkpt lat="49.23682" lon="1.40103">
        <ele>53.07</ele>
        <time>2015-09-20T08:53:26Z</time>
      </trkpt>
      <trkpt lat="49.23677" lon="1.40102">
        <ele>53.09</ele>
        <time>2015-09-20T08:53:27Z</time>
      </trkpt>
      <trkpt lat="49.23672" lon="1.40105">
        <ele>53.03</ele>
        <time>2015-09-20T08:53:28Z</time>
      </trkpt>
      <trkpt lat="49.23669" lon="1.40111">
        <ele>52.94</ele>
        <time>2015-09-20T08:53:29Z</time>
      </trkpt>
      <trkpt lat="49.23665" lon="1.40118">
        <ele>52.87</ele>
        <time>2015-09-20T08:53:30Z</time>
      </trkpt>
      <trkpt lat="49.23664" lon="1.40126">
        <ele>52.83</ele>
        <time>2015-09-20T08:53:31Z</time>
      </trkpt>
      <trkpt lat="49.23663" lon="1.40135">
        <ele>52.78</ele>
        <time>2015-09-20T08:53:32Z</time>
      </trkpt>
      <trkpt lat="49.23661" lon="1.40143">
        <ele>52.71</ele>
        <time>2015-09-20T08:53:33Z</time>
      </trkpt>
      <trkpt lat="49.23657" lon="1.40149">
        <ele>52.67</ele>
        <time>2015-09-20T08:53:34Z</time>
      </trkpt>
      <trkpt lat="49.23652" lon="1.40155">
        <ele>52.63</ele>
        <time>2015-09-20T08:53:35Z</time>
      </trkpt>
      <trkpt lat="49.23647" lon="1.4016">
        <ele>52.64</ele>
        <time>2015-09-20T08:53:36Z</time>
      </trkpt>
      <trkpt lat="49.23642" lon="1.40162">
        <ele>52.59</ele>
        <time>2015-09-20T08:53:37Z</time>
      </trkpt>
      <trkpt lat="49.23635" lon="1.40162">
        <ele>52.58</ele>
        <time>2015-09-20T08:53:38Z</time>
      </trkpt>
      <trkpt lat="49.23629" lon="1.40163">
        <ele>52.58</ele>
        <time>2015-09-20T08:53:39Z</time>
      </trkpt>
      <trkpt lat="49.23578" lon="1.40167">
        <ele>52.95</ele>
        <time>2015-09-20T08:53:48Z</time>
      </trkpt>
      <trkpt lat="49.23527" lon="1.40171">
        <ele>52.9</ele>
        <time>2015-09-20T08:53:57Z</time>
      </trkpt>
      <trkpt lat="49.23472" lon="1.40173">
        <ele>51.91</ele>
        <time>2015-09-20T08:54:05Z</time>
      </trkpt>
      <trkpt lat="49.23418" lon="1.40168">
        <ele>51.39</ele>
        <time>2015-09-20T08:54:13Z</time>
      </trkpt>
      <trkpt lat="49.23367" lon="1.40168">
        <ele>50.65</ele>
        <time>2015-09-20T08:54:21Z</time>
      </trkpt>
      <trkpt lat="49.23319" lon="1.40164">
        <ele>51.06</ele>
        <time>2015-09-20T08:54:29Z</time>
      </trkpt>
      <trkpt lat="49.23292" lon="1.40158">
        <ele>51.13</ele>
        <time>2015-09-20T08:54:34Z</time>
      </trkpt>
      <trkpt lat="49.23287" lon="1.40159">
        <ele>51.31</ele>
        <time>2015-09-20T08:54:35Z</time>
      </trkpt>
      <trkpt lat="49.23282" lon="1.40163">
        <ele>51.39</ele>
        <time>2015-09-20T08:54:36Z</time>
      </trkpt>
      <trkpt lat="49.23277" lon="1.40167">
        <ele>51.4</ele>
        <time>2015-09-20T08:54:37Z</time>
      </trkpt>
      <trkpt lat="49.23273" lon="1.40172">
        <ele>51.41</ele>
        <time>2015-09-20T08:54:38Z</time>
      </trkpt>
      <trkpt lat="49.23268" lon="1.40176">
        <ele>51.37</ele>
        <time>2015-09-20T08:54:39Z</time>
      </trkpt>
      <trkpt lat="49.23263" lon="1.40177">
        <ele>51.41</ele>
        <time>2015-09-20T08:54:40Z</time>
      </trkpt>
      <trkpt lat="49.23239" lon="1.4022">
        <ele>54.41</ele>
        <time>2015-09-20T08:54:53Z</time>
      </trkpt>
      <trkpt lat="49.23234" lon="1.40261">
        <ele>57.56</ele>
        <time>2015-09-20T08:55:04Z</time>
      </trkpt>
      <trkpt lat="49.23226" lon="1.40303">
        <ele>60.61</ele>
        <time>2015-09-20T08:55:14Z</time>
      </trkpt>
      <trkpt lat="49.23217" lon="1.40353">
        <ele>63.81</ele>
        <time>2015-09-20T08:55:25Z</time>
      </trkpt>
      <trkpt lat="49.23208" lon="1.40396">
        <ele>66.86</ele>
        <time>2015-09-20T08:55:36Z</time>
      </trkpt>
      <trkpt lat="49.23192" lon="1.40454">
        <ele>69.86</ele>
        <time>2015-09-20T08:55:49Z</time>
      </trkpt>
      <trkpt lat="49.23165" lon="1.40495">
        <ele>73.02</ele>
        <time>2015-09-20T08:56:02Z</time>
      </trkpt>
      <trkpt lat="49.23139" lon="1.40516">
        <ele>76.08</ele>
        <time>2015-09-20T08:56:14Z</time>
      </trkpt>
      <trkpt lat="49.23114" lon="1.40535">
        <ele>79.11</ele>
        <time>2015-09-20T08:56:26Z</time>
      </trkpt>
      <trkpt lat="49.2309" lon="1.40552">
        <ele>82.24</ele>
        <time>2015-09-20T08:56:37Z</time>
      </trkpt>
      <trkpt lat="49.23072" lon="1.40568">
        <ele>85.37</ele>
        <time>2015-09-20T08:56:48Z</time>
      </trkpt>
      <trkpt lat="49.23054" lon="1.40601">
        <ele>88.56</ele>
        <time>2015-09-20T08:57:01Z</time>
      </trkpt>
      <trkpt lat="49.23036" lon="1.40637">
        <ele>91.59</ele>
        <time>2015-09-20T08:57:15Z</time>
      </trkpt>
      <trkpt lat="49.23027" lon="1.40687">
        <ele>94.61</ele>
        <time>2015-09-20T08:57:28Z</time>
      </trkpt>
      <trkpt lat="49.23029" lon="1.40749">
        <ele>97.64</ele>
        <time>2015-09-20T08:57:45Z</time>
      </trkpt>
      <trkpt lat="49.23033" lon="1.4081">
        <ele>100.77</ele>
        <time>2015-09-20T08:58:02Z</time>
      </trkpt>
      <trkpt lat="49.23042" lon="1.40868">
        <ele>103.78</ele>
        <time>2015-09-20T08:58:19Z</time>
      </trkpt>
      <trkpt lat="49.23053" lon="1.409">
        <ele>106.79</ele>
        <time>2015-09-20T08:58:33Z</time>
      </trkpt>
      <trkpt lat="49.23064" lon="1.40938">
        <ele>109.84</ele>
        <time>2015-09-20T08:58:48Z</time>
      </trkpt>
      <trkpt lat="49.23074" lon="1.40978">
        <ele>112.87</ele>
        <time>2015-09-20T08:59:01Z</time>
      </trkpt>
      <trkpt lat="49.23078" lon="1.41016">
        <ele>115.97</ele>
        <time>2015-09-20T08:59:16Z</time>
      </trkpt>
      <trkpt lat="49.23084" lon="1.41065">
        <ele>119.14</ele>
        <time>2015-09-20T08:59:33Z</time>
      </trkpt>
      <trkpt lat="49.23091" lon="1.41093">
        <ele>122.19</ele>
        <time>2015-09-20T08:59:45Z</time>
      </trkpt>
      <trkpt lat="49.23106" lon="1.41126">
        <ele>125.36</ele>
        <time>2015-09-20T08:59:59Z</time>
      </trkpt>
      <trkpt lat="49.23112" lon="1.41144">
        <ele>127</ele>
        <time>2015-09-20T09:00:06Z</time>
      </trkpt>
      <trkpt lat="49.23119" lon="1.41168">
        <ele>130.03</ele>
        <time>2015-09-20T09:00:18Z</time>
      </trkpt>
      <trkpt lat="49.23127" lon="1.41191">
        <ele>133.23</ele>
        <time>2015-09-20T09:00:31Z</time>
      </trkpt>
      <trkpt lat="49.23138" lon="1.41221">
        <ele>136.33</ele>
        <time>2015-09-20T09:00:44Z</time>
      </trkpt>
      <trkpt lat="49.23158" lon="1.41238">
        <ele>139.49</ele>
        <time>2015-09-20T09:00:56Z</time>
      </trkpt>
      <trkpt lat="49.23168" lon="1.41263">
        <ele>142.61</ele>
        <time>2015-09-20T09:01:07Z</time>
      </trkpt>
      <trkpt lat="49.23173" lon="1.41284">
        <ele>145.62</ele>
        <time>2015-09-20T09:01:17Z</time>
      </trkpt>
      <trkpt lat="49.23188" lon="1.41308">
        <ele>148.75</ele>
        <time>2015-09-20T09:01:29Z</time>
      </trkpt>
      <trkpt lat="49.23216" lon="1.4132">
        <ele>151.88</ele>
        <time>2015-09-20T09:01:48Z</time>
      </trkpt>
      <trkpt lat="49.23216" lon="1.41319">
        <ele>152</ele>
        <time>2015-09-20T09:01:49Z</time>
      </trkpt>
      <trkpt lat="49.23211" lon="1.41262">
        <ele>155.02</ele>
        <time>2015-09-20T09:02:10Z</time>
      </trkpt>
      <trkpt lat="49.23204" lon="1.41192">
        <ele>158.07</ele>
        <time>2015-09-20T09:02:30Z</time>
      </trkpt>
      <trkpt lat="49.23202" lon="1.41169">
        <ele>158.95</ele>
        <time>2015-09-20T09:02:36Z</time>
      </trkpt>
      <trkpt lat="49.23203" lon="1.41166">
        <ele>158.98</ele>
        <time>2015-09-20T09:02:37Z</time>
      </trkpt>
      <trkpt lat="49.23204" lon="1.41165">
        <ele>159.19</ele>
        <time>2015-09-20T09:02:38Z</time>
      </trkpt>
      <trkpt lat="49.23205" lon="1.41163">
        <ele>159.41</ele>
        <time>2015-09-20T09:02:39Z</time>
      </trkpt>
      <trkpt lat="49.23206" lon="1.41162">
        <ele>159.54</ele>
        <time>2015-09-20T09:02:40Z</time>
      </trkpt>
      <trkpt lat="49.23207" lon="1.41162">
        <ele>159.8</ele>
        <time>2015-09-20T09:02:41Z</time>
      </trkpt>
      <trkpt lat="49.23209" lon="1.41163">
        <ele>160.06</ele>
        <time>2015-09-20T09:02:42Z</time>
      </trkpt>
      <trkpt lat="49.2321" lon="1.41164">
        <ele>160.43</ele>
        <time>2015-09-20T09:02:43Z</time>
      </trkpt>
      <trkpt lat="49.23212" lon="1.41165">
        <ele>160.67</ele>
        <time>2015-09-20T09:02:44Z</time>
      </trkpt>
      <trkpt lat="49.23212" lon="1.41167">
        <ele>160.81</ele>
        <time>2015-09-20T09:02:45Z</time>
      </trkpt>
      <trkpt lat="49.23213" lon="1.41169">
        <ele>160.88</ele>
        <time>2015-09-20T09:02:46Z</time>
      </trkpt>
      <trkpt lat="49.23214" lon="1.41171">
        <ele>161.04</ele>
        <time>2015-09-20T09:02:47Z</time>
      </trkpt>
      <trkpt lat="49.23237" lon="1.4122">
        <ele>164.19</ele>
        <time>2015-09-20T09:03:06Z</time>
      </trkpt>
      <trkpt lat="49.23255" lon="1.41273">
        <ele>167.24</ele>
        <time>2015-09-20T09:03:23Z</time>
      </trkpt>
      <trkpt lat="49.23277" lon="1.41316">
        <ele>170.32</ele>
        <time>2015-09-20T09:03:40Z</time>
      </trkpt>
      <trkpt lat="49.23286" lon="1.41359">
        <ele>173.39</ele>
        <time>2015-09-20T09:03:55Z</time>
      </trkpt>
      <trkpt lat="49.2329" lon="1.41425">
        <ele>176.62</ele>
        <time>2015-09-20T09:04:14Z</time>
      </trkpt>
      <trkpt lat="49.23286" lon="1.4148">
        <ele>179.8</ele>
        <time>2015-09-20T09:04:28Z</time>
      </trkpt>
      <trkpt lat="49.23286" lon="1.41545">
        <ele>182.9</ele>
        <time>2015-09-20T09:04:48Z</time>
      </trkpt>
      <trkpt lat="49.23272" lon="1.41599">
        <ele>186.03</ele>
        <time>2015-09-20T09:05:03Z</time>
      </trkpt>
      <trkpt lat="49.23272" lon="1.41602">
        <ele>186.17</ele>
        <time>2015-09-20T09:05:04Z</time>
      </trkpt>
      <trkpt lat="49.23272" lon="1.41605">
        <ele>186.22</ele>
        <time>2015-09-20T09:05:05Z</time>
      </trkpt>
      <trkpt lat="49.23273" lon="1.41606">
        <ele>186.29</ele>
        <time>2015-09-20T09:05:06Z</time>
      </trkpt>
      <trkpt lat="49.2327" lon="1.41605">
        <ele>186.41</ele>
        <time>2015-09-20T09:05:14Z</time>
      </trkpt>
      <trkpt lat="49.23269" lon="1.41603">
        <ele>186.34</ele>
        <time>2015-09-20T09:05:15Z</time>
      </trkpt>
      <trkpt lat="49.23269" lon="1.41601">
        <ele>186.17</ele>
        <time>2015-09-20T09:05:16Z</time>
      </trkpt>
      <trkpt lat="49.23269" lon="1.41599">
        <ele>186.05</ele>
        <time>2015-09-20T09:05:17Z</time>
      </trkpt>
      <trkpt lat="49.23269" lon="1.41595">
        <ele>185.63</ele>
        <time>2015-09-20T09:05:18Z</time>
      </trkpt>
      <trkpt lat="49.2327" lon="1.41592">
        <ele>185.19</ele>
        <time>2015-09-20T09:05:19Z</time>
      </trkpt>
      <trkpt lat="49.23271" lon="1.41589">
        <ele>184.93</ele>
        <time>2015-09-20T09:05:20Z</time>
      </trkpt>
      <trkpt lat="49.23273" lon="1.41585">
        <ele>184.96</ele>
        <time>2015-09-20T09:05:21Z</time>
      </trkpt>
      <trkpt lat="49.23304" lon="1.41515">
        <ele>186.74</ele>
        <time>2015-09-20T09:05:49Z</time>
      </trkpt>
      <trkpt lat="49.23316" lon="1.41439">
        <ele>186.04</ele>
        <time>2015-09-20T09:06:10Z</time>
      </trkpt>
      <trkpt lat="49.23317" lon="1.41427">
        <ele>186.12</ele>
        <time>2015-09-20T09:06:25Z</time>
      </trkpt>
      <trkpt lat="49.23318" lon="1.41424">
        <ele>186.12</ele>
        <time>2015-09-20T09:06:28Z</time>
      </trkpt>
      <trkpt lat="49.23321" lon="1.41423">
        <ele>186.23</ele>
        <time>2015-09-20T09:06:41Z</time>
      </trkpt>
      <trkpt lat="49.23319" lon="1.41429">
        <ele>186.06</ele>
        <time>2015-09-20T09:06:42Z</time>
      </trkpt>
      <trkpt lat="49.2331" lon="1.41503">
        <ele>186.02</ele>
        <time>2015-09-20T09:07:09Z</time>
      </trkpt>
      <trkpt lat="49.233" lon="1.41516">
        <ele>182.93</ele>
        <time>2015-09-20T09:07:15Z</time>
      </trkpt>
      <trkpt lat="49.23297" lon="1.41523">
        <ele>182.97</ele>
        <time>2015-09-20T09:07:21Z</time>
      </trkpt>
      <trkpt lat="49.23302" lon="1.4152">
        <ele>186.08</ele>
        <time>2015-09-20T09:07:31Z</time>
      </trkpt>
      <trkpt lat="49.23313" lon="1.41448">
        <ele>185.93</ele>
        <time>2015-09-20T09:07:54Z</time>
      </trkpt>
      <trkpt lat="49.2331" lon="1.41373">
        <ele>186.75</ele>
        <time>2015-09-20T09:08:12Z</time>
      </trkpt>
      <trkpt lat="49.23302" lon="1.41287">
        <ele>185.82</ele>
        <time>2015-09-20T09:08:26Z</time>
      </trkpt>
      <trkpt lat="49.2329" lon="1.41203">
        <ele>185.51</ele>
        <time>2015-09-20T09:08:39Z</time>
      </trkpt>
      <trkpt lat="49.23317" lon="1.41127">
        <ele>185.43</ele>
        <time>2015-09-20T09:08:54Z</time>
      </trkpt>
      <trkpt lat="49.23365" lon="1.41117">
        <ele>187.01</ele>
        <time>2015-09-20T09:09:07Z</time>
      </trkpt>
      <trkpt lat="49.23368" lon="1.41111">
        <ele>187.05</ele>
        <time>2015-09-20T09:09:08Z</time>
      </trkpt>
      <trkpt lat="49.23371" lon="1.41105">
        <ele>186.81</ele>
        <time>2015-09-20T09:09:09Z</time>
      </trkpt>
      <trkpt lat="49.23418" lon="1.41056">
        <ele>186.45</ele>
        <time>2015-09-20T09:09:22Z</time>
      </trkpt>
      <trkpt lat="49.23471" lon="1.41015">
        <ele>188.23</ele>
        <time>2015-09-20T09:09:36Z</time>
      </trkpt>
      <trkpt lat="49.23505" lon="1.40972">
        <ele>188.9</ele>
        <time>2015-09-20T09:09:46Z</time>
      </trkpt>
      <trkpt lat="49.23508" lon="1.40965">
        <ele>189.03</ele>
        <time>2015-09-20T09:09:47Z</time>
      </trkpt>
      <trkpt lat="49.23547" lon="1.40904">
        <ele>190.31</ele>
        <time>2015-09-20T09:09:59Z</time>
      </trkpt>
      <trkpt lat="49.23552" lon="1.40894">
        <ele>190.98</ele>
        <time>2015-09-20T09:10:01Z</time>
      </trkpt>
      <trkpt lat="49.23551" lon="1.40851">
        <ele>189.78</ele>
        <time>2015-09-20T09:10:08Z</time>
      </trkpt>
      <trkpt lat="49.23545" lon="1.40833">
        <ele>187.95</ele>
        <time>2015-09-20T09:10:11Z</time>
      </trkpt>
      <trkpt lat="49.23541" lon="1.40818">
        <ele>186.6</ele>
        <time>2015-09-20T09:10:13Z</time>
      </trkpt>
      <trkpt lat="49.23531" lon="1.40786">
        <ele>183.58</ele>
        <time>2015-09-20T09:10:17Z</time>
      </trkpt>
      <trkpt lat="49.23529" lon="1.4077">
        <ele>181.89</ele>
        <time>2015-09-20T09:10:19Z</time>
      </trkpt>
      <trkpt lat="49.2353" lon="1.40763">
        <ele>181.3</ele>
        <time>2015-09-20T09:10:20Z</time>
      </trkpt>
      <trkpt lat="49.23544" lon="1.40719">
        <ele>178.23</ele>
        <time>2015-09-20T09:10:28Z</time>
      </trkpt>
      <trkpt lat="49.23548" lon="1.40711">
        <ele>177.57</ele>
        <time>2015-09-20T09:10:30Z</time>
      </trkpt>
      <trkpt lat="49.23563" lon="1.40682">
        <ele>175.51</ele>
        <time>2015-09-20T09:10:36Z</time>
      </trkpt>
      <trkpt lat="49.23594" lon="1.40617">
        <ele>173.7</ele>
        <time>2015-09-20T09:10:50Z</time>
      </trkpt>
      <trkpt lat="49.236" lon="1.40613">
        <ele>173.64</ele>
        <time>2015-09-20T09:10:52Z</time>
      </trkpt>
      <trkpt lat="49.23602" lon="1.40613">
        <ele>173.71</ele>
        <time>2015-09-20T09:10:53Z</time>
      </trkpt>
      <trkpt lat="49.23605" lon="1.40612">
        <ele>173.8</ele>
        <time>2015-09-20T09:10:54Z</time>
      </trkpt>
      <trkpt lat="49.23607" lon="1.40611">
        <ele>173.88</ele>
        <time>2015-09-20T09:10:55Z</time>
      </trkpt>
      <trkpt lat="49.23609" lon="1.4061">
        <ele>173.68</ele>
        <time>2015-09-20T09:10:56Z</time>
      </trkpt>
      <trkpt lat="49.23612" lon="1.40608">
        <ele>172.95</ele>
        <time>2015-09-20T09:10:57Z</time>
      </trkpt>
      <trkpt lat="49.23622" lon="1.406">
        <ele>169.56</ele>
        <time>2015-09-20T09:11:01Z</time>
      </trkpt>
      <trkpt lat="49.23633" lon="1.40593">
        <ele>165.75</ele>
        <time>2015-09-20T09:11:04Z</time>
      </trkpt>
      <trkpt lat="49.23654" lon="1.40599">
        <ele>162.49</ele>
        <time>2015-09-20T09:11:11Z</time>
      </trkpt>
      <trkpt lat="49.23681" lon="1.4059">
        <ele>158.78</ele>
        <time>2015-09-20T09:11:20Z</time>
      </trkpt>
      <trkpt lat="49.23689" lon="1.40579">
        <ele>155.38</ele>
        <time>2015-09-20T09:11:24Z</time>
      </trkpt>
      <trkpt lat="49.23693" lon="1.40578">
        <ele>154.3</ele>
        <time>2015-09-20T09:11:26Z</time>
      </trkpt>
      <trkpt lat="49.23695" lon="1.40578">
        <ele>154.04</ele>
        <time>2015-09-20T09:11:27Z</time>
      </trkpt>
      <trkpt lat="49.23696" lon="1.40579">
        <ele>153.74</ele>
        <time>2015-09-20T09:11:28Z</time>
      </trkpt>
      <trkpt lat="49.23698" lon="1.40582">
        <ele>153.52</ele>
        <time>2015-09-20T09:11:29Z</time>
      </trkpt>
      <trkpt lat="49.23701" lon="1.40584">
        <ele>153.07</ele>
        <time>2015-09-20T09:11:30Z</time>
      </trkpt>
      <trkpt lat="49.23703" lon="1.40587">
        <ele>152.52</ele>
        <time>2015-09-20T09:11:31Z</time>
      </trkpt>
      <trkpt lat="49.23705" lon="1.4059">
        <ele>152.15</ele>
        <time>2015-09-20T09:11:32Z</time>
      </trkpt>
      <trkpt lat="49.23707" lon="1.40592">
        <ele>151.81</ele>
        <time>2015-09-20T09:11:33Z</time>
      </trkpt>
      <trkpt lat="49.23708" lon="1.40595">
        <ele>151.23</ele>
        <time>2015-09-20T09:11:34Z</time>
      </trkpt>
      <trkpt lat="49.23713" lon="1.406">
        <ele>147.8</ele>
        <time>2015-09-20T09:11:38Z</time>
      </trkpt>
      <trkpt lat="49.23717" lon="1.40605">
        <ele>144.05</ele>
        <time>2015-09-20T09:11:42Z</time>
      </trkpt>
      <trkpt lat="49.23723" lon="1.40619">
        <ele>141.65</ele>
        <time>2015-09-20T09:12:03Z</time>
      </trkpt>
      <trkpt lat="49.23727" lon="1.40624">
        <ele>140</ele>
        <time>2015-09-20T09:12:12Z</time>
      </trkpt>
      <trkpt lat="49.23727" lon="1.40625">
        <ele>139.38</ele>
        <time>2015-09-20T09:12:13Z</time>
      </trkpt>
      <trkpt lat="49.23729" lon="1.40626">
        <ele>138.76</ele>
        <time>2015-09-20T09:12:14Z</time>
      </trkpt>
      <trkpt lat="49.23731" lon="1.40628">
        <ele>138.3</ele>
        <time>2015-09-20T09:12:15Z</time>
      </trkpt>
      <trkpt lat="49.23732" lon="1.4063">
        <ele>137.87</ele>
        <time>2015-09-20T09:12:16Z</time>
      </trkpt>
      <trkpt lat="49.23733" lon="1.40632">
        <ele>137.31</ele>
        <time>2015-09-20T09:12:17Z</time>
      </trkpt>
      <trkpt lat="49.23735" lon="1.40634">
        <ele>136.75</ele>
        <time>2015-09-20T09:12:18Z</time>
      </trkpt>
      <trkpt lat="49.23737" lon="1.40636">
        <ele>136.09</ele>
        <time>2015-09-20T09:12:19Z</time>
      </trkpt>
      <trkpt lat="49.2374" lon="1.40638">
        <ele>135.61</ele>
        <time>2015-09-20T09:12:20Z</time>
      </trkpt>
      <trkpt lat="49.23743" lon="1.4064">
        <ele>134.91</ele>
        <time>2015-09-20T09:12:21Z</time>
      </trkpt>
      <trkpt lat="49.23748" lon="1.40639">
        <ele>134.46</ele>
        <time>2015-09-20T09:12:22Z</time>
      </trkpt>
      <trkpt lat="49.2375" lon="1.40636">
        <ele>133.91</ele>
        <time>2015-09-20T09:12:23Z</time>
      </trkpt>
      <trkpt lat="49.23751" lon="1.40634">
        <ele>133.63</ele>
        <time>2015-09-20T09:12:24Z</time>
      </trkpt>
      <trkpt lat="49.23751" lon="1.40631">
        <ele>133.28</ele>
        <time>2015-09-20T09:12:25Z</time>
      </trkpt>
      <trkpt lat="49.23751" lon="1.40628">
        <ele>132.86</ele>
        <time>2015-09-20T09:12:26Z</time>
      </trkpt>
      <trkpt lat="49.23749" lon="1.40624">
        <ele>132.53</ele>
        <time>2015-09-20T09:12:27Z</time>
      </trkpt>
      <trkpt lat="49.23748" lon="1.4062">
        <ele>132.28</ele>
        <time>2015-09-20T09:12:28Z</time>
      </trkpt>
      <trkpt lat="49.23748" lon="1.40614">
        <ele>132.15</ele>
        <time>2015-09-20T09:12:29Z</time>
      </trkpt>
      <trkpt lat="49.23749" lon="1.40608">
        <ele>131.99</ele>
        <time>2015-09-20T09:12:30Z</time>
      </trkpt>
      <trkpt lat="49.23749" lon="1.40603">
        <ele>131.65</ele>
        <time>2015-09-20T09:12:31Z</time>
      </trkpt>
      <trkpt lat="49.2375" lon="1.40598">
        <ele>131.56</ele>
        <time>2015-09-20T09:12:32Z</time>
      </trkpt>
      <trkpt lat="49.2375" lon="1.40594">
        <ele>131.53</ele>
        <time>2015-09-20T09:12:33Z</time>
      </trkpt>
      <trkpt lat="49.2375" lon="1.40591">
        <ele>131.88</ele>
        <time>2015-09-20T09:12:34Z</time>
      </trkpt>
      <trkpt lat="49.2375" lon="1.40588">
        <ele>132.39</ele>
        <time>2015-09-20T09:12:35Z</time>
      </trkpt>
      <trkpt lat="49.2375" lon="1.40585">
        <ele>132.73</ele>
        <time>2015-09-20T09:12:36Z</time>
      </trkpt>
      <trkpt lat="49.23749" lon="1.40582">
        <ele>132.87</ele>
        <time>2015-09-20T09:12:37Z</time>
      </trkpt>
      <trkpt lat="49.2375" lon="1.40508">
        <ele>135.34</ele>
        <time>2015-09-20T09:12:56Z</time>
      </trkpt>
      <trkpt lat="49.2375" lon="1.40467">
        <ele>134.91</ele>
        <time>2015-09-20T09:13:07Z</time>
      </trkpt>
      <trkpt lat="49.23748" lon="1.40465">
        <ele>135.12</ele>
        <time>2015-09-20T09:13:08Z</time>
      </trkpt>
      <trkpt lat="49.23747" lon="1.40465">
        <ele>135.2</ele>
        <time>2015-09-20T09:13:09Z</time>
      </trkpt>
      <trkpt lat="49.23745" lon="1.40463">
        <ele>135.28</ele>
        <time>2015-09-20T09:13:10Z</time>
      </trkpt>
      <trkpt lat="49.23744" lon="1.40462">
        <ele>135.39</ele>
        <time>2015-09-20T09:13:11Z</time>
      </trkpt>
      <trkpt lat="49.23735" lon="1.40447">
        <ele>133.69</ele>
        <time>2015-09-20T09:13:18Z</time>
      </trkpt>
      <trkpt lat="49.23734" lon="1.40446">
        <ele>133.39</ele>
        <time>2015-09-20T09:13:19Z</time>
      </trkpt>
      <trkpt lat="49.23733" lon="1.40447">
        <ele>133.13</ele>
        <time>2015-09-20T09:13:20Z</time>
      </trkpt>
      <trkpt lat="49.23731" lon="1.40449">
        <ele>132.8</ele>
        <time>2015-09-20T09:13:21Z</time>
      </trkpt>
      <trkpt lat="49.2373" lon="1.40451">
        <ele>132.5</ele>
        <time>2015-09-20T09:13:22Z</time>
      </trkpt>
      <trkpt lat="49.23715" lon="1.40465">
        <ele>129.02</ele>
        <time>2015-09-20T09:13:29Z</time>
      </trkpt>
      <trkpt lat="49.237" lon="1.40473">
        <ele>127.27</ele>
        <time>2015-09-20T09:14:05Z</time>
      </trkpt>
      <trkpt lat="49.23699" lon="1.40474">
        <ele>127.21</ele>
        <time>2015-09-20T09:14:06Z</time>
      </trkpt>
      <trkpt lat="49.23698" lon="1.40474">
        <ele>127.14</ele>
        <time>2015-09-20T09:14:07Z</time>
      </trkpt>
      <trkpt lat="49.23686" lon="1.40466">
        <ele>127.3</ele>
        <time>2015-09-20T09:14:20Z</time>
      </trkpt>
      <trkpt lat="49.23685" lon="1.40458">
        <ele>126.44</ele>
        <time>2015-09-20T09:14:29Z</time>
      </trkpt>
      <trkpt lat="49.23686" lon="1.40444">
        <ele>124.73</ele>
        <time>2015-09-20T09:14:39Z</time>
      </trkpt>
      <trkpt lat="49.23689" lon="1.40447">
        <ele>123.14</ele>
        <time>2015-09-20T09:14:48Z</time>
      </trkpt>
      <trkpt lat="49.23691" lon="1.40445">
        <ele>122.83</ele>
        <time>2015-09-20T09:14:49Z</time>
      </trkpt>
      <trkpt lat="49.237" lon="1.40426">
        <ele>119.13</ele>
        <time>2015-09-20T09:14:57Z</time>
      </trkpt>
      <trkpt lat="49.23698" lon="1.40424">
        <ele>118.73</ele>
        <time>2015-09-20T09:14:58Z</time>
      </trkpt>
      <trkpt lat="49.23697" lon="1.40421">
        <ele>118.23</ele>
        <time>2015-09-20T09:14:59Z</time>
      </trkpt>
      <trkpt lat="49.23696" lon="1.40419">
        <ele>117.78</ele>
        <time>2015-09-20T09:15:00Z</time>
      </trkpt>
      <trkpt lat="49.23694" lon="1.40418">
        <ele>117.32</ele>
        <time>2015-09-20T09:15:01Z</time>
      </trkpt>
      <trkpt lat="49.23692" lon="1.40415">
        <ele>116.87</ele>
        <time>2015-09-20T09:15:02Z</time>
      </trkpt>
      <trkpt lat="49.2369" lon="1.40413">
        <ele>116.38</ele>
        <time>2015-09-20T09:15:03Z</time>
      </trkpt>
      <trkpt lat="49.23689" lon="1.4041">
        <ele>116.05</ele>
        <time>2015-09-20T09:15:04Z</time>
      </trkpt>
      <trkpt lat="49.23687" lon="1.40406">
        <ele>115.76</ele>
        <time>2015-09-20T09:15:05Z</time>
      </trkpt>
      <trkpt lat="49.23686" lon="1.40403">
        <ele>115.27</ele>
        <time>2015-09-20T09:15:06Z</time>
      </trkpt>
      <trkpt lat="49.23685" lon="1.404">
        <ele>114.73</ele>
        <time>2015-09-20T09:15:07Z</time>
      </trkpt>
      <trkpt lat="49.23685" lon="1.40398">
        <ele>114.19</ele>
        <time>2015-09-20T09:15:08Z</time>
      </trkpt>
      <trkpt lat="49.23684" lon="1.40396">
        <ele>113.6</ele>
        <time>2015-09-20T09:15:09Z</time>
      </trkpt>
      <trkpt lat="49.23683" lon="1.40394">
        <ele>113.22</ele>
        <time>2015-09-20T09:15:10Z</time>
      </trkpt>
      <trkpt lat="49.23682" lon="1.40392">
        <ele>112.66</ele>
        <time>2015-09-20T09:15:11Z</time>
      </trkpt>
      <trkpt lat="49.23681" lon="1.40389">
        <ele>112.32</ele>
        <time>2015-09-20T09:15:12Z</time>
      </trkpt>
      <trkpt lat="49.23647" lon="1.40357">
        <ele>109.17</ele>
        <time>2015-09-20T09:15:39Z</time>
      </trkpt>
      <trkpt lat="49.23633" lon="1.40354">
        <ele>112.33</ele>
        <time>2015-09-20T09:15:51Z</time>
      </trkpt>
      <trkpt lat="49.2363" lon="1.4035">
        <ele>113.24</ele>
        <time>2015-09-20T09:15:54Z</time>
      </trkpt>
      <trkpt lat="49.23629" lon="1.40346">
        <ele>113.5</ele>
        <time>2015-09-20T09:15:55Z</time>
      </trkpt>
      <trkpt lat="49.23628" lon="1.40345">
        <ele>113.73</ele>
        <time>2015-09-20T09:15:56Z</time>
      </trkpt>
      <trkpt lat="49.23619" lon="1.40337">
        <ele>117</ele>
        <time>2015-09-20T09:16:05Z</time>
      </trkpt>
      <trkpt lat="49.23618" lon="1.40337">
        <ele>117.49</ele>
        <time>2015-09-20T09:16:06Z</time>
      </trkpt>
      <trkpt lat="49.23617" lon="1.40338">
        <ele>117.91</ele>
        <time>2015-09-20T09:16:07Z</time>
      </trkpt>
      <trkpt lat="49.23616" lon="1.40339">
        <ele>118.21</ele>
        <time>2015-09-20T09:16:08Z</time>
      </trkpt>
      <trkpt lat="49.23615" lon="1.40341">
        <ele>118.38</ele>
        <time>2015-09-20T09:16:12Z</time>
      </trkpt>
      <trkpt lat="49.23616" lon="1.40342">
        <ele>118.35</ele>
        <time>2015-09-20T09:16:13Z</time>
      </trkpt>
      <trkpt lat="49.23619" lon="1.40376">
        <ele>121.37</ele>
        <time>2015-09-20T09:16:36Z</time>
      </trkpt>
      <trkpt lat="49.23621" lon="1.40384">
        <ele>122.77</ele>
        <time>2015-09-20T09:16:43Z</time>
      </trkpt>
      <trkpt lat="49.2362" lon="1.40386">
        <ele>124.16</ele>
        <time>2015-09-20T09:16:46Z</time>
      </trkpt>
      <trkpt lat="49.23615" lon="1.40397">
        <ele>127.21</ele>
        <time>2015-09-20T09:16:53Z</time>
      </trkpt>
      <trkpt lat="49.23612" lon="1.40406">
        <ele>130.5</ele>
        <time>2015-09-20T09:17:01Z</time>
      </trkpt>
      <trkpt lat="49.23609" lon="1.40409">
        <ele>133.18</ele>
        <time>2015-09-20T09:17:09Z</time>
      </trkpt>
      <trkpt lat="49.23608" lon="1.40411">
        <ele>133.31</ele>
        <time>2015-09-20T09:17:10Z</time>
      </trkpt>
      <trkpt lat="49.23602" lon="1.4042">
        <ele>134.79</ele>
        <time>2015-09-20T09:17:24Z</time>
      </trkpt>
      <trkpt lat="49.2359" lon="1.40401">
        <ele>138</ele>
        <time>2015-09-20T09:17:38Z</time>
      </trkpt>
      <trkpt lat="49.2358" lon="1.40405">
        <ele>141.04</ele>
        <time>2015-09-20T09:17:57Z</time>
      </trkpt>
      <trkpt lat="49.23574" lon="1.40388">
        <ele>141.47</ele>
        <time>2015-09-20T09:18:08Z</time>
      </trkpt>
      <trkpt lat="49.23568" lon="1.40385">
        <ele>142.61</ele>
        <time>2015-09-20T09:18:16Z</time>
      </trkpt>
      <trkpt lat="49.23557" lon="1.40388">
        <ele>143.82</ele>
        <time>2015-09-20T09:18:26Z</time>
      </trkpt>
      <trkpt lat="49.23557" lon="1.40387">
        <ele>143.84</ele>
        <time>2015-09-20T09:18:27Z</time>
      </trkpt>
      <trkpt lat="49.23555" lon="1.40386">
        <ele>143.87</ele>
        <time>2015-09-20T09:18:28Z</time>
      </trkpt>
      <trkpt lat="49.23554" lon="1.40386">
        <ele>143.92</ele>
        <time>2015-09-20T09:18:29Z</time>
      </trkpt>
      <trkpt lat="49.23546" lon="1.40382">
        <ele>144.37</ele>
        <time>2015-09-20T09:18:42Z</time>
      </trkpt>
      <trkpt lat="49.23546" lon="1.4038">
        <ele>144.94</ele>
        <time>2015-09-20T09:18:43Z</time>
      </trkpt>
      <trkpt lat="49.23538" lon="1.4038">
        <ele>143.97</ele>
        <time>2015-09-20T09:18:54Z</time>
      </trkpt>
      <trkpt lat="49.23537" lon="1.40381">
        <ele>144.05</ele>
        <time>2015-09-20T09:18:55Z</time>
      </trkpt>
      <trkpt lat="49.23538" lon="1.40381">
        <ele>144.03</ele>
        <time>2015-09-20T09:18:56Z</time>
      </trkpt>
      <trkpt lat="49.23539" lon="1.4038">
        <ele>144.19</ele>
        <time>2015-09-20T09:19:09Z</time>
      </trkpt>
      <trkpt lat="49.23539" lon="1.40379">
        <ele>144.19</ele>
        <time>2015-09-20T09:19:10Z</time>
      </trkpt>
      <trkpt lat="49.23539" lon="1.40377">
        <ele>144.15</ele>
        <time>2015-09-20T09:19:11Z</time>
      </trkpt>
      <trkpt lat="49.23541" lon="1.40374">
        <ele>144.04</ele>
        <time>2015-09-20T09:19:13Z</time>
      </trkpt>
      <trkpt lat="49.23542" lon="1.40372">
        <ele>143.65</ele>
        <time>2015-09-20T09:19:16Z</time>
      </trkpt>
      <trkpt lat="49.23541" lon="1.40372">
        <ele>143.33</ele>
        <time>2015-09-20T09:19:17Z</time>
      </trkpt>
      <trkpt lat="49.23541" lon="1.40372">
        <ele>143.04</ele>
        <time>2015-09-20T09:19:18Z</time>
      </trkpt>
      <trkpt lat="49.2354" lon="1.40371">
        <ele>142.73</ele>
        <time>2015-09-20T09:19:19Z</time>
      </trkpt>
      <trkpt lat="49.2354" lon="1.4037">
        <ele>142.42</ele>
        <time>2015-09-20T09:19:20Z</time>
      </trkpt>
      <trkpt lat="49.23539" lon="1.40369">
        <ele>142.04</ele>
        <time>2015-09-20T09:19:21Z</time>
      </trkpt>
      <trkpt lat="49.23539" lon="1.40367">
        <ele>141.61</ele>
        <time>2015-09-20T09:19:22Z</time>
      </trkpt>
      <trkpt lat="49.23538" lon="1.40366">
        <ele>141.12</ele>
        <time>2015-09-20T09:19:23Z</time>
      </trkpt>
      <trkpt lat="49.23537" lon="1.40365">
        <ele>140.57</ele>
        <time>2015-09-20T09:19:24Z</time>
      </trkpt>
      <trkpt lat="49.23533" lon="1.40364">
        <ele>138.69</ele>
        <time>2015-09-20T09:19:34Z</time>
      </trkpt>
      <trkpt lat="49.23534" lon="1.40364">
        <ele>138.73</ele>
        <time>2015-09-20T09:19:35Z</time>
      </trkpt>
      <trkpt lat="49.23544" lon="1.40369">
        <ele>141.88</ele>
        <time>2015-09-20T09:19:50Z</time>
      </trkpt>
      <trkpt lat="49.23554" lon="1.40372">
        <ele>143.92</ele>
        <time>2015-09-20T09:20:22Z</time>
      </trkpt>
      <trkpt lat="49.23555" lon="1.40373">
        <ele>143.87</ele>
        <time>2015-09-20T09:20:24Z</time>
      </trkpt>
      <trkpt lat="49.23552" lon="1.40373">
        <ele>143.98</ele>
        <time>2015-09-20T09:20:42Z</time>
      </trkpt>
      <trkpt lat="49.23548" lon="1.40372">
        <ele>143.46</ele>
        <time>2015-09-20T09:21:23Z</time>
      </trkpt>
      <trkpt lat="49.23544" lon="1.40369">
        <ele>142.68</ele>
        <time>2015-09-20T09:21:26Z</time>
      </trkpt>
      <trkpt lat="49.23536" lon="1.40368">
        <ele>139.91</ele>
        <time>2015-09-20T09:21:31Z</time>
      </trkpt>
      <trkpt lat="49.23533" lon="1.40367">
        <ele>139.54</ele>
        <time>2015-09-20T09:21:32Z</time>
      </trkpt>
      <trkpt lat="49.23532" lon="1.40368">
        <ele>139.3</ele>
        <time>2015-09-20T09:21:33Z</time>
      </trkpt>
      <trkpt lat="49.23523" lon="1.40405">
        <ele>137.06</ele>
        <time>2015-09-20T09:22:06Z</time>
      </trkpt>
      <trkpt lat="49.23522" lon="1.40406">
        <ele>136.48</ele>
        <time>2015-09-20T09:22:07Z</time>
      </trkpt>
      <trkpt lat="49.23521" lon="1.40407">
        <ele>135.95</ele>
        <time>2015-09-20T09:22:08Z</time>
      </trkpt>
      <trkpt lat="49.2352" lon="1.40408">
        <ele>135.43</ele>
        <time>2015-09-20T09:22:09Z</time>
      </trkpt>
      <trkpt lat="49.23509" lon="1.40422">
        <ele>131.8</ele>
        <time>2015-09-20T09:22:22Z</time>
      </trkpt>
      <trkpt lat="49.23503" lon="1.40428">
        <ele>128.49</ele>
        <time>2015-09-20T09:22:27Z</time>
      </trkpt>
      <trkpt lat="49.23497" lon="1.40429">
        <ele>125.25</ele>
        <time>2015-09-20T09:22:32Z</time>
      </trkpt>
      <trkpt lat="49.2349" lon="1.40433">
        <ele>122.12</ele>
        <time>2015-09-20T09:22:37Z</time>
      </trkpt>
      <trkpt lat="49.23489" lon="1.40433">
        <ele>121.42</ele>
        <time>2015-09-20T09:22:38Z</time>
      </trkpt>
      <trkpt lat="49.23483" lon="1.40437">
        <ele>118.05</ele>
        <time>2015-09-20T09:22:53Z</time>
      </trkpt>
      <trkpt lat="49.23481" lon="1.40435">
        <ele>115.78</ele>
        <time>2015-09-20T09:22:58Z</time>
      </trkpt>
      <trkpt lat="49.23477" lon="1.40438">
        <ele>114.92</ele>
        <time>2015-09-20T09:23:18Z</time>
      </trkpt>
      <trkpt lat="49.23476" lon="1.40439">
        <ele>114.61</ele>
        <time>2015-09-20T09:23:19Z</time>
      </trkpt>
      <trkpt lat="49.23473" lon="1.4044">
        <ele>114.35</ele>
        <time>2015-09-20T09:23:20Z</time>
      </trkpt>
      <trkpt lat="49.23472" lon="1.4044">
        <ele>113.95</ele>
        <time>2015-09-20T09:23:21Z</time>
      </trkpt>
      <trkpt lat="49.2347" lon="1.4044">
        <ele>113.59</ele>
        <time>2015-09-20T09:23:22Z</time>
      </trkpt>
      <trkpt lat="49.23467" lon="1.40436">
        <ele>111.83</ele>
        <time>2015-09-20T09:23:33Z</time>
      </trkpt>
      <trkpt lat="49.23468" lon="1.40435">
        <ele>111.86</ele>
        <time>2015-09-20T09:23:34Z</time>
      </trkpt>
      <trkpt lat="49.23468" lon="1.40428">
        <ele>112.7</ele>
        <time>2015-09-20T09:23:38Z</time>
      </trkpt>
      <trkpt lat="49.23468" lon="1.40427">
        <ele>112.16</ele>
        <time>2015-09-20T09:23:48Z</time>
      </trkpt>
      <trkpt lat="49.23462" lon="1.40423">
        <ele>111.24</ele>
        <time>2015-09-20T09:24:05Z</time>
      </trkpt>
      <trkpt lat="49.2346" lon="1.40426">
        <ele>110.23</ele>
        <time>2015-09-20T09:24:18Z</time>
      </trkpt>
      <trkpt lat="49.23459" lon="1.40413">
        <ele>107.2</ele>
        <time>2015-09-20T09:24:34Z</time>
      </trkpt>
      <trkpt lat="49.23456" lon="1.40409">
        <ele>106.21</ele>
        <time>2015-09-20T09:24:40Z</time>
      </trkpt>
      <trkpt lat="49.2345" lon="1.40398">
        <ele>102.91</ele>
        <time>2015-09-20T09:24:47Z</time>
      </trkpt>
      <trkpt lat="49.23448" lon="1.40381">
        <ele>99.52</ele>
        <time>2015-09-20T09:24:53Z</time>
      </trkpt>
      <trkpt lat="49.23443" lon="1.4036">
        <ele>97.06</ele>
        <time>2015-09-20T09:25:03Z</time>
      </trkpt>
      <trkpt lat="49.23443" lon="1.40357">
        <ele>97.03</ele>
        <time>2015-09-20T09:25:05Z</time>
      </trkpt>
      <trkpt lat="49.23439" lon="1.40351">
        <ele>95.37</ele>
        <time>2015-09-20T09:25:14Z</time>
      </trkpt>
      <trkpt lat="49.23438" lon="1.4035">
        <ele>94.95</ele>
        <time>2015-09-20T09:25:15Z</time>
      </trkpt>
      <trkpt lat="49.23438" lon="1.40347">
        <ele>94.4</ele>
        <time>2015-09-20T09:25:16Z</time>
      </trkpt>
      <trkpt lat="49.23434" lon="1.4033">
        <ele>91.31</ele>
        <time>2015-09-20T09:25:21Z</time>
      </trkpt>
      <trkpt lat="49.23433" lon="1.40318">
        <ele>88.28</ele>
        <time>2015-09-20T09:25:25Z</time>
      </trkpt>
      <trkpt lat="49.23434" lon="1.40315">
        <ele>87.99</ele>
        <time>2015-09-20T09:25:26Z</time>
      </trkpt>
      <trkpt lat="49.23434" lon="1.40314">
        <ele>87.73</ele>
        <time>2015-09-20T09:25:27Z</time>
      </trkpt>
      <trkpt lat="49.2344" lon="1.40283">
        <ele>84.4</ele>
        <time>2015-09-20T09:25:42Z</time>
      </trkpt>
      <trkpt lat="49.23438" lon="1.40275">
        <ele>81.4</ele>
        <time>2015-09-20T09:25:48Z</time>
      </trkpt>
      <trkpt lat="49.23438" lon="1.40271">
        <ele>80.48</ele>
        <time>2015-09-20T09:25:50Z</time>
      </trkpt>
      <trkpt lat="49.23438" lon="1.40269">
        <ele>80.15</ele>
        <time>2015-09-20T09:25:51Z</time>
      </trkpt>
      <trkpt lat="49.23438" lon="1.40267">
        <ele>79.83</ele>
        <time>2015-09-20T09:25:52Z</time>
      </trkpt>
      <trkpt lat="49.23438" lon="1.40266">
        <ele>79.5</ele>
        <time>2015-09-20T09:25:53Z</time>
      </trkpt>
      <trkpt lat="49.23439" lon="1.40262">
        <ele>78.78</ele>
        <time>2015-09-20T09:25:55Z</time>
      </trkpt>
      <trkpt lat="49.23439" lon="1.4026">
        <ele>78.29</ele>
        <time>2015-09-20T09:25:56Z</time>
      </trkpt>
      <trkpt lat="49.2344" lon="1.40258">
        <ele>77.77</ele>
        <time>2015-09-20T09:25:57Z</time>
      </trkpt>
      <trkpt lat="49.23441" lon="1.40255">
        <ele>77.12</ele>
        <time>2015-09-20T09:25:58Z</time>
      </trkpt>
      <trkpt lat="49.23442" lon="1.40251">
        <ele>76.61</ele>
        <time>2015-09-20T09:25:59Z</time>
      </trkpt>
      <trkpt lat="49.23442" lon="1.40249">
        <ele>76.32</ele>
        <time>2015-09-20T09:26:00Z</time>
      </trkpt>
      <trkpt lat="49.23443" lon="1.40246">
        <ele>76.04</ele>
        <time>2015-09-20T09:26:01Z</time>
      </trkpt>
      <trkpt lat="49.23444" lon="1.40244">
        <ele>75.73</ele>
        <time>2015-09-20T09:26:02Z</time>
      </trkpt>
      <trkpt lat="49.23445" lon="1.40242">
        <ele>75.5</ele>
        <time>2015-09-20T09:26:03Z</time>
      </trkpt>
      <trkpt lat="49.23446" lon="1.40241">
        <ele>75.31</ele>
        <time>2015-09-20T09:26:04Z</time>
      </trkpt>
      <trkpt lat="49.23444" lon="1.40237">
        <ele>73.86</ele>
        <time>2015-09-20T09:26:14Z</time>
      </trkpt>
      <trkpt lat="49.23443" lon="1.40237">
        <ele>73.72</ele>
        <time>2015-09-20T09:26:15Z</time>
      </trkpt>
      <trkpt lat="49.23442" lon="1.40238">
        <ele>73.42</ele>
        <time>2015-09-20T09:26:16Z</time>
      </trkpt>
      <trkpt lat="49.23441" lon="1.40238">
        <ele>69.35</ele>
        <time>2015-09-20T09:26:17Z</time>
      </trkpt>
      <trkpt lat="49.2344" lon="1.40239">
        <ele>65.51</ele>
        <time>2015-09-20T09:26:18Z</time>
      </trkpt>
      <trkpt lat="49.23438" lon="1.40239">
        <ele>60.76</ele>
        <time>2015-09-20T09:26:20Z</time>
      </trkpt>
      <trkpt lat="49.23436" lon="1.4024">
        <ele>57.72</ele>
        <time>2015-09-20T09:26:26Z</time>
      </trkpt>
      <trkpt lat="49.23435" lon="1.40239">
        <ele>57.54</ele>
        <time>2015-09-20T09:26:27Z</time>
      </trkpt>
      <trkpt lat="49.23435" lon="1.40231">
        <ele>63.43</ele>
        <time>2015-09-20T09:26:36Z</time>
      </trkpt>
      <trkpt lat="49.23437" lon="1.40228">
        <ele>66.85</ele>
        <time>2015-09-20T09:26:39Z</time>
      </trkpt>
      <trkpt lat="49.23439" lon="1.40227">
        <ele>66.85</ele>
        <time>2015-09-20T09:26:46Z</time>
      </trkpt>
      <trkpt lat="49.23439" lon="1.40226">
        <ele>66.72</ele>
        <time>2015-09-20T09:26:47Z</time>
      </trkpt>
      <trkpt lat="49.23444" lon="1.40224">
        <ele>65.2</ele>
        <time>2015-09-20T09:26:52Z</time>
      </trkpt>
      <trkpt lat="49.23448" lon="1.40217">
        <ele>63.5</ele>
        <time>2015-09-20T09:26:59Z</time>
      </trkpt>
      <trkpt lat="49.23451" lon="1.40211">
        <ele>61.92</ele>
        <time>2015-09-20T09:27:06Z</time>
      </trkpt>
      <trkpt lat="49.2345" lon="1.4021">
        <ele>61.67</ele>
        <time>2015-09-20T09:27:07Z</time>
      </trkpt>
      <trkpt lat="49.23449" lon="1.40209">
        <ele>61.47</ele>
        <time>2015-09-20T09:27:08Z</time>
      </trkpt>
      <trkpt lat="49.23449" lon="1.40209">
        <ele>61.28</ele>
        <time>2015-09-20T09:27:09Z</time>
      </trkpt>
      <trkpt lat="49.23447" lon="1.40211">
        <ele>61.05</ele>
        <time>2015-09-20T09:27:11Z</time>
      </trkpt>
      <trkpt lat="49.23447" lon="1.40209">
        <ele>57.47</ele>
        <time>2015-09-20T09:27:19Z</time>
      </trkpt>
      <trkpt lat="49.23447" lon="1.40203">
        <ele>55.9</ele>
        <time>2015-09-20T09:27:22Z</time>
      </trkpt>
      <trkpt lat="49.2344" lon="1.40186">
        <ele>53.5</ele>
        <time>2015-09-20T09:27:44Z</time>
      </trkpt>
      <trkpt lat="49.23438" lon="1.40185">
        <ele>52.99</ele>
        <time>2015-09-20T09:27:45Z</time>
      </trkpt>
      <trkpt lat="49.23437" lon="1.40184">
        <ele>52.62</ele>
        <time>2015-09-20T09:27:46Z</time>
      </trkpt>
      <trkpt lat="49.23436" lon="1.40184">
        <ele>52.47</ele>
        <time>2015-09-20T09:27:47Z</time>
      </trkpt>
      <trkpt lat="49.23438" lon="1.40179">
        <ele>52.65</ele>
        <time>2015-09-20T09:28:25Z</time>
      </trkpt>
      <trkpt lat="49.23437" lon="1.40176">
        <ele>52.61</ele>
        <time>2015-09-20T09:28:46Z</time>
      </trkpt>
      <trkpt lat="49.23444" lon="1.40177">
        <ele>52.58</ele>
        <time>2015-09-20T09:29:31Z</time>
      </trkpt>
      <trkpt lat="49.23449" lon="1.40177">
        <ele>52.68</ele>
        <time>2015-09-20T09:29:35Z</time>
      </trkpt>
      <trkpt lat="49.23502" lon="1.40181">
        <ele>53.41</ele>
        <time>2015-09-20T09:29:54Z</time>
      </trkpt>
      <trkpt lat="49.2355" lon="1.40182">
        <ele>54.71</ele>
        <time>2015-09-20T09:30:08Z</time>
      </trkpt>
      <trkpt lat="49.236" lon="1.40174">
        <ele>54.6</ele>
        <time>2015-09-20T09:30:21Z</time>
      </trkpt>
      <trkpt lat="49.23618" lon="1.40178">
        <ele>54.27</ele>
        <time>2015-09-20T09:30:25Z</time>
      </trkpt>
      <trkpt lat="49.23622" lon="1.40178">
        <ele>54.3</ele>
        <time>2015-09-20T09:30:26Z</time>
      </trkpt>
      <trkpt lat="49.23627" lon="1.40177">
        <ele>54.31</ele>
        <time>2015-09-20T09:30:27Z</time>
      </trkpt>
      <trkpt lat="49.23631" lon="1.40176">
        <ele>54.32</ele>
        <time>2015-09-20T09:30:28Z</time>
      </trkpt>
      <trkpt lat="49.23635" lon="1.40174">
        <ele>54.3</ele>
        <time>2015-09-20T09:30:29Z</time>
      </trkpt>
      <trkpt lat="49.2364" lon="1.40172">
        <ele>54.27</ele>
        <time>2015-09-20T09:30:30Z</time>
      </trkpt>
      <trkpt lat="49.23645" lon="1.40171">
        <ele>54.1</ele>
        <time>2015-09-20T09:30:31Z</time>
      </trkpt>
      <trkpt lat="49.23651" lon="1.40171">
        <ele>54</ele>
        <time>2015-09-20T09:30:32Z</time>
      </trkpt>
      <trkpt lat="49.23656" lon="1.4017">
        <ele>53.96</ele>
        <time>2015-09-20T09:30:33Z</time>
      </trkpt>
      <trkpt lat="49.23705" lon="1.40153">
        <ele>53.59</ele>
        <time>2015-09-20T09:30:43Z</time>
      </trkpt>
      <trkpt lat="49.23752" lon="1.4013">
        <ele>53.62</ele>
        <time>2015-09-20T09:30:54Z</time>
      </trkpt>
      <trkpt lat="49.23756" lon="1.40127">
        <ele>53.53</ele>
        <time>2015-09-20T09:30:55Z</time>
      </trkpt>
      <trkpt lat="49.23761" lon="1.40125">
        <ele>53.47</ele>
        <time>2015-09-20T09:30:56Z</time>
      </trkpt>
      <trkpt lat="49.23816" lon="1.40107">
        <ele>52.57</ele>
        <time>2015-09-20T09:31:06Z</time>
      </trkpt>
      <trkpt lat="49.23857" lon="1.40096">
        <ele>52.12</ele>
        <time>2015-09-20T09:31:13Z</time>
      </trkpt>
      <trkpt lat="49.23867" lon="1.40097">
        <ele>51.55</ele>
        <time>2015-09-20T09:31:15Z</time>
      </trkpt>
      <trkpt lat="49.23877" lon="1.40097">
        <ele>51.55</ele>
        <time>2015-09-20T09:31:17Z</time>
      </trkpt>
      <trkpt lat="49.23879" lon="1.40095">
        <ele>51.72</ele>
        <time>2015-09-20T09:31:18Z</time>
      </trkpt>
      <trkpt lat="49.2388" lon="1.40091">
        <ele>51.82</ele>
        <time>2015-09-20T09:31:19Z</time>
      </trkpt>
      <trkpt lat="49.23881" lon="1.40088">
        <ele>51.91</ele>
        <time>2015-09-20T09:31:20Z</time>
      </trkpt>
      <trkpt lat="49.23882" lon="1.40087">
        <ele>52.06</ele>
        <time>2015-09-20T09:31:21Z</time>
      </trkpt>
      <trkpt lat="49.23875" lon="1.40087">
        <ele>52.07</ele>
        <time>2015-09-20T09:31:23Z</time>
      </trkpt>
      <trkpt lat="49.23872" lon="1.40086">
        <ele>51.97</ele>
        <time>2015-09-20T09:31:24Z</time>
      </trkpt>
      <trkpt lat="49.23869" lon="1.40084">
        <ele>51.72</ele>
        <time>2015-09-20T09:31:25Z</time>
      </trkpt>
      <trkpt lat="49.23867" lon="1.40079">
        <ele>51.63</ele>
        <time>2015-09-20T09:31:26Z</time>
      </trkpt>
      <trkpt lat="49.23866" lon="1.40074">
        <ele>51.43</ele>
        <time>2015-09-20T09:31:27Z</time>
      </trkpt>
      <trkpt lat="49.23866" lon="1.40068">
        <ele>51.33</ele>
        <time>2015-09-20T09:31:28Z</time>
      </trkpt>
      <trkpt lat="49.23865" lon="1.40062">
        <ele>51.14</ele>
        <time>2015-09-20T09:31:29Z</time>
      </trkpt>
      <trkpt lat="49.23865" lon="1.40055">
        <ele>50.91</ele>
        <time>2015-09-20T09:31:30Z</time>
      </trkpt>
      <trkpt lat="49.23865" lon="1.40048">
        <ele>50.7</ele>
        <time>2015-09-20T09:31:31Z</time>
      </trkpt>
      <trkpt lat="49.23867" lon="1.40018">
        <ele>49.81</ele>
        <time>2015-09-20T09:31:35Z</time>
      </trkpt>
      <trkpt lat="49.23869" lon="1.40012">
        <ele>49.72</ele>
        <time>2015-09-20T09:31:36Z</time>
      </trkpt>
      <trkpt lat="49.23872" lon="1.40006">
        <ele>49.48</ele>
        <time>2015-09-20T09:31:37Z</time>
      </trkpt>
      <trkpt lat="49.23876" lon="1.40005">
        <ele>49.35</ele>
        <time>2015-09-20T09:31:38Z</time>
      </trkpt>
      <trkpt lat="49.2388" lon="1.40005">
        <ele>49.18</ele>
        <time>2015-09-20T09:31:39Z</time>
      </trkpt>
      <trkpt lat="49.23884" lon="1.40006">
        <ele>49.18</ele>
        <time>2015-09-20T09:31:40Z</time>
      </trkpt>
      <trkpt lat="49.23927" lon="1.40015">
        <ele>49.78</ele>
        <time>2015-09-20T09:31:50Z</time>
      </trkpt>
      <trkpt lat="49.23932" lon="1.40016">
        <ele>49.82</ele>
        <time>2015-09-20T09:31:51Z</time>
      </trkpt>
      <trkpt lat="49.23936" lon="1.40017">
        <ele>49.83</ele>
        <time>2015-09-20T09:31:52Z</time>
      </trkpt>
      <trkpt lat="49.23949" lon="1.4002">
        <ele>49.86</ele>
        <time>2015-09-20T09:31:55Z</time>
      </trkpt>
      <trkpt lat="49.23962" lon="1.40023">
        <ele>50.05</ele>
        <time>2015-09-20T09:31:58Z</time>
      </trkpt>
      <trkpt lat="49.23966" lon="1.40024">
        <ele>50.03</ele>
        <time>2015-09-20T09:31:59Z</time>
      </trkpt>
      <trkpt lat="49.24014" lon="1.40015">
        <ele>50.31</ele>
        <time>2015-09-20T09:32:12Z</time>
      </trkpt>
      <trkpt lat="49.24064" lon="1.39995">
        <ele>50.08</ele>
        <time>2015-09-20T09:32:24Z</time>
      </trkpt>
      <trkpt lat="49.241" lon="1.39982">
        <ele>50.03</ele>
        <time>2015-09-20T09:32:32Z</time>
      </trkpt>
      <trkpt lat="49.24105" lon="1.3998">
        <ele>50.04</ele>
        <time>2015-09-20T09:32:33Z</time>
      </trkpt>
      <trkpt lat="49.24109" lon="1.39977">
        <ele>50.11</ele>
        <time>2015-09-20T09:32:34Z</time>
      </trkpt>
      <trkpt lat="49.24113" lon="1.39973">
        <ele>50.22</ele>
        <time>2015-09-20T09:32:35Z</time>
      </trkpt>
      <trkpt lat="49.24116" lon="1.39969">
        <ele>50.32</ele>
        <time>2015-09-20T09:32:36Z</time>
      </trkpt>
      <trkpt lat="49.2412" lon="1.39965">
        <ele>50.38</ele>
        <time>2015-09-20T09:32:37Z</time>
      </trkpt>
      <trkpt lat="49.24124" lon="1.39962">
        <ele>50.42</ele>
        <time>2015-09-20T09:32:38Z</time>
      </trkpt>
      <trkpt lat="49.24128" lon="1.39959">
        <ele>50.35</ele>
        <time>2015-09-20T09:32:39Z</time>
      </trkpt>
      <trkpt lat="49.24131" lon="1.39956">
        <ele>50.32</ele>
        <time>2015-09-20T09:32:40Z</time>
      </trkpt>
      <trkpt lat="49.24135" lon="1.39952">
        <ele>50.31</ele>
        <time>2015-09-20T09:32:41Z</time>
      </trkpt>
      <trkpt lat="49.24139" lon="1.39949">
        <ele>50.33</ele>
        <time>2015-09-20T09:32:42Z</time>
      </trkpt>
      <trkpt lat="49.24184" lon="1.39911">
        <ele>49.66</ele>
        <time>2015-09-20T09:32:52Z</time>
      </trkpt>
      <trkpt lat="49.24196" lon="1.399">
        <ele>49.76</ele>
        <time>2015-09-20T09:32:55Z</time>
      </trkpt>
      <trkpt lat="49.242" lon="1.39896">
        <ele>49.71</ele>
        <time>2015-09-20T09:32:56Z</time>
      </trkpt>
      <trkpt lat="49.24245" lon="1.39865">
        <ele>50.12</ele>
        <time>2015-09-20T09:33:06Z</time>
      </trkpt>
      <trkpt lat="49.24283" lon="1.39835">
        <ele>49.73</ele>
        <time>2015-09-20T09:33:15Z</time>
      </trkpt>
      <trkpt lat="49.24288" lon="1.39832">
        <ele>49.71</ele>
        <time>2015-09-20T09:33:16Z</time>
      </trkpt>
      <trkpt lat="49.24338" lon="1.39809">
        <ele>49.53</ele>
        <time>2015-09-20T09:33:29Z</time>
      </trkpt>
      <trkpt lat="49.2439" lon="1.39783">
        <ele>50.39</ele>
        <time>2015-09-20T09:33:46Z</time>
      </trkpt>
      <trkpt lat="49.24432" lon="1.39734">
        <ele>50.92</ele>
        <time>2015-09-20T09:33:57Z</time>
      </trkpt>
      <trkpt lat="49.24442" lon="1.39716">
        <ele>50.84</ele>
        <time>2015-09-20T09:34:00Z</time>
      </trkpt>
      <trkpt lat="49.24474" lon="1.39654">
        <ele>50.85</ele>
        <time>2015-09-20T09:34:10Z</time>
      </trkpt>
      <trkpt lat="49.24504" lon="1.39602">
        <ele>50.24</ele>
        <time>2015-09-20T09:34:19Z</time>
      </trkpt>
      <trkpt lat="49.24516" lon="1.39594">
        <ele>50.15</ele>
        <time>2015-09-20T09:34:22Z</time>
      </trkpt>
      <trkpt lat="49.24527" lon="1.39588">
        <ele>50.8</ele>
        <time>2015-09-20T09:34:25Z</time>
      </trkpt>
      <trkpt lat="49.24531" lon="1.39584">
        <ele>50.86</ele>
        <time>2015-09-20T09:34:26Z</time>
      </trkpt>
      <trkpt lat="49.24537" lon="1.39576">
        <ele>50.66</ele>
        <time>2015-09-20T09:34:28Z</time>
      </trkpt>
      <trkpt lat="49.2454" lon="1.39572">
        <ele>50.77</ele>
        <time>2015-09-20T09:34:29Z</time>
      </trkpt>
      <trkpt lat="49.24542" lon="1.3957">
        <ele>51.1</ele>
        <time>2015-09-20T09:34:30Z</time>
      </trkpt>
      <trkpt lat="49.24545" lon="1.39569">
        <ele>51.53</ele>
        <time>2015-09-20T09:34:31Z</time>
      </trkpt>
      <trkpt lat="49.24548" lon="1.39571">
        <ele>51.83</ele>
        <time>2015-09-20T09:34:32Z</time>
      </trkpt>
      <trkpt lat="49.24552" lon="1.39575">
        <ele>51.94</ele>
        <time>2015-09-20T09:34:33Z</time>
      </trkpt>
      <trkpt lat="49.24555" lon="1.3958">
        <ele>52.04</ele>
        <time>2015-09-20T09:34:34Z</time>
      </trkpt>
      <trkpt lat="49.24557" lon="1.39584">
        <ele>52.18</ele>
        <time>2015-09-20T09:34:35Z</time>
      </trkpt>
      <trkpt lat="49.24593" lon="1.39638">
        <ele>54.41</ele>
        <time>2015-09-20T09:34:49Z</time>
      </trkpt>
      <trkpt lat="49.24593" lon="1.39641">
        <ele>54.61</ele>
        <time>2015-09-20T09:34:50Z</time>
      </trkpt>
      <trkpt lat="49.24592" lon="1.39644">
        <ele>54.74</ele>
        <time>2015-09-20T09:34:51Z</time>
      </trkpt>
      <trkpt lat="49.24589" lon="1.39649">
        <ele>54.86</ele>
        <time>2015-09-20T09:34:52Z</time>
      </trkpt>
      <trkpt lat="49.24586" lon="1.39655">
        <ele>55.06</ele>
        <time>2015-09-20T09:34:53Z</time>
      </trkpt>
      <trkpt lat="49.24583" lon="1.3966">
        <ele>55.18</ele>
        <time>2015-09-20T09:34:54Z</time>
      </trkpt>
      <trkpt lat="49.24581" lon="1.39668">
        <ele>55.2</ele>
        <time>2015-09-20T09:34:55Z</time>
      </trkpt>
      <trkpt lat="49.24578" lon="1.39675">
        <ele>55.05</ele>
        <time>2015-09-20T09:34:56Z</time>
      </trkpt>
      <trkpt lat="49.24572" lon="1.39699">
        <ele>54.92</ele>
        <time>2015-09-20T09:34:59Z</time>
      </trkpt>
      <trkpt lat="49.24571" lon="1.39707">
        <ele>54.96</ele>
        <time>2015-09-20T09:35:00Z</time>
      </trkpt>
      <trkpt lat="49.24571" lon="1.39746">
        <ele>55.12</ele>
        <time>2015-09-20T09:35:05Z</time>
      </trkpt>
      <trkpt lat="49.24572" lon="1.39754">
        <ele>55.32</ele>
        <time>2015-09-20T09:35:06Z</time>
      </trkpt>
      <trkpt lat="49.24585" lon="1.39829">
        <ele>55.56</ele>
        <time>2015-09-20T09:35:16Z</time>
      </trkpt>
      <trkpt lat="49.24589" lon="1.39845">
        <ele>55.03</ele>
        <time>2015-09-20T09:35:18Z</time>
      </trkpt>
      <trkpt lat="49.24593" lon="1.39882">
        <ele>53.68</ele>
        <time>2015-09-20T09:35:23Z</time>
      </trkpt>
      <trkpt lat="49.24595" lon="1.39889">
        <ele>53.65</ele>
        <time>2015-09-20T09:35:24Z</time>
      </trkpt>
      <trkpt lat="49.24597" lon="1.39895">
        <ele>53.88</ele>
        <time>2015-09-20T09:35:25Z</time>
      </trkpt>
      <trkpt lat="49.24602" lon="1.39907">
        <ele>54.43</ele>
        <time>2015-09-20T09:35:27Z</time>
      </trkpt>
      <trkpt lat="49.24602" lon="1.39913">
        <ele>54.57</ele>
        <time>2015-09-20T09:35:28Z</time>
      </trkpt>
      <trkpt lat="49.24602" lon="1.39919">
        <ele>54.66</ele>
        <time>2015-09-20T09:35:29Z</time>
      </trkpt>
      <trkpt lat="49.24605" lon="1.39943">
        <ele>54.72</ele>
        <time>2015-09-20T09:35:35Z</time>
      </trkpt>
      <trkpt lat="49.24607" lon="1.39943">
        <ele>55</ele>
        <time>2015-09-20T09:35:36Z</time>
      </trkpt>
      <trkpt lat="49.24609" lon="1.39944">
        <ele>55.38</ele>
        <time>2015-09-20T09:35:39Z</time>
      </trkpt>
      <trkpt lat="49.2461" lon="1.39945">
        <ele>55.38</ele>
        <time>2015-09-20T09:35:40Z</time>
      </trkpt>
      <trkpt lat="49.2461" lon="1.39946">
        <ele>55.61</ele>
        <time>2015-09-20T09:35:41Z</time>
      </trkpt>
      <trkpt lat="49.2462" lon="1.39986">
        <ele>58.77</ele>
        <time>2015-09-20T09:35:56Z</time>
      </trkpt>
      <trkpt lat="49.24623" lon="1.40044">
        <ele>61.11</ele>
        <time>2015-09-20T09:36:11Z</time>
      </trkpt>
      <trkpt lat="49.24628" lon="1.40098">
        <ele>64.34</ele>
        <time>2015-09-20T09:36:27Z</time>
      </trkpt>
      <trkpt lat="49.24637" lon="1.40125">
        <ele>67.48</ele>
        <time>2015-09-20T09:36:38Z</time>
      </trkpt>
      <trkpt lat="49.24656" lon="1.40137">
        <ele>70.84</ele>
        <time>2015-09-20T09:36:50Z</time>
      </trkpt>
      <trkpt lat="49.24674" lon="1.40148">
        <ele>73.91</ele>
        <time>2015-09-20T09:37:01Z</time>
      </trkpt>
      <trkpt lat="49.24683" lon="1.40199">
        <ele>77.12</ele>
        <time>2015-09-20T09:37:16Z</time>
      </trkpt>
      <trkpt lat="49.2469" lon="1.40243">
        <ele>80.32</ele>
        <time>2015-09-20T09:37:31Z</time>
      </trkpt>
      <trkpt lat="49.24708" lon="1.4028">
        <ele>83.53</ele>
        <time>2015-09-20T09:37:46Z</time>
      </trkpt>
      <trkpt lat="49.24725" lon="1.40298">
        <ele>86.58</ele>
        <time>2015-09-20T09:37:59Z</time>
      </trkpt>
      <trkpt lat="49.24743" lon="1.40321">
        <ele>89.75</ele>
        <time>2015-09-20T09:38:14Z</time>
      </trkpt>
      <trkpt lat="49.24761" lon="1.40335">
        <ele>92.41</ele>
        <time>2015-09-20T09:38:24Z</time>
      </trkpt>
      <trkpt lat="49.24762" lon="1.40337">
        <ele>92.62</ele>
        <time>2015-09-20T09:38:25Z</time>
      </trkpt>
      <trkpt lat="49.24763" lon="1.40339">
        <ele>92.83</ele>
        <time>2015-09-20T09:38:26Z</time>
      </trkpt>
      <trkpt lat="49.24777" lon="1.40357">
        <ele>95.86</ele>
        <time>2015-09-20T09:38:39Z</time>
      </trkpt>
      <trkpt lat="49.2479" lon="1.40379">
        <ele>99</ele>
        <time>2015-09-20T09:38:50Z</time>
      </trkpt>
      <trkpt lat="49.24802" lon="1.40393">
        <ele>102.29</ele>
        <time>2015-09-20T09:39:02Z</time>
      </trkpt>
      <trkpt lat="49.24816" lon="1.4041">
        <ele>105.36</ele>
        <time>2015-09-20T09:39:14Z</time>
      </trkpt>
      <trkpt lat="49.24828" lon="1.40432">
        <ele>108.66</ele>
        <time>2015-09-20T09:39:26Z</time>
      </trkpt>
      <trkpt lat="49.24846" lon="1.4044">
        <ele>111.86</ele>
        <time>2015-09-20T09:39:37Z</time>
      </trkpt>
      <trkpt lat="49.24854" lon="1.40433">
        <ele>113.8</ele>
        <time>2015-09-20T09:39:44Z</time>
      </trkpt>
      <trkpt lat="49.24854" lon="1.40431">
        <ele>114.07</ele>
        <time>2015-09-20T09:39:45Z</time>
      </trkpt>
      <trkpt lat="49.2487" lon="1.40416">
        <ele>117.19</ele>
        <time>2015-09-20T09:39:57Z</time>
      </trkpt>
      <trkpt lat="49.24885" lon="1.40414">
        <ele>120.37</ele>
        <time>2015-09-20T09:40:08Z</time>
      </trkpt>
      <trkpt lat="49.24907" lon="1.40405">
        <ele>123.61</ele>
        <time>2015-09-20T09:40:21Z</time>
      </trkpt>
      <trkpt lat="49.24916" lon="1.40394">
        <ele>126.76</ele>
        <time>2015-09-20T09:40:32Z</time>
      </trkpt>
      <trkpt lat="49.2493" lon="1.40366">
        <ele>130.03</ele>
        <time>2015-09-20T09:40:45Z</time>
      </trkpt>
      <trkpt lat="49.2493" lon="1.40339">
        <ele>133.14</ele>
        <time>2015-09-20T09:40:55Z</time>
      </trkpt>
      <trkpt lat="49.24938" lon="1.40296">
        <ele>136.45</ele>
        <time>2015-09-20T09:41:10Z</time>
      </trkpt>
      <trkpt lat="49.24943" lon="1.40261">
        <ele>139.58</ele>
        <time>2015-09-20T09:41:26Z</time>
      </trkpt>
      <trkpt lat="49.24942" lon="1.40222">
        <ele>142.59</ele>
        <time>2015-09-20T09:41:41Z</time>
      </trkpt>
      <trkpt lat="49.24946" lon="1.40178">
        <ele>145.92</ele>
        <time>2015-09-20T09:41:59Z</time>
      </trkpt>
      <trkpt lat="49.24958" lon="1.40146">
        <ele>149.03</ele>
        <time>2015-09-20T09:42:12Z</time>
      </trkpt>
      <trkpt lat="49.24969" lon="1.40105">
        <ele>152.34</ele>
        <time>2015-09-20T09:42:26Z</time>
      </trkpt>
      <trkpt lat="49.24979" lon="1.4008">
        <ele>155.57</ele>
        <time>2015-09-20T09:42:38Z</time>
      </trkpt>
      <trkpt lat="49.24984" lon="1.4007">
        <ele>156.61</ele>
        <time>2015-09-20T09:42:44Z</time>
      </trkpt>
      <trkpt lat="49.24985" lon="1.40068">
        <ele>156.84</ele>
        <time>2015-09-20T09:42:45Z</time>
      </trkpt>
      <trkpt lat="49.24997" lon="1.40048">
        <ele>159.96</ele>
        <time>2015-09-20T09:42:56Z</time>
      </trkpt>
      <trkpt lat="49.25012" lon="1.40019">
        <ele>163.25</ele>
        <time>2015-09-20T09:43:12Z</time>
      </trkpt>
      <trkpt lat="49.25024" lon="1.39982">
        <ele>166.51</ele>
        <time>2015-09-20T09:43:25Z</time>
      </trkpt>
      <trkpt lat="49.25037" lon="1.39955">
        <ele>169.57</ele>
        <time>2015-09-20T09:43:40Z</time>
      </trkpt>
      <trkpt lat="49.25049" lon="1.39935">
        <ele>172.68</ele>
        <time>2015-09-20T09:43:53Z</time>
      </trkpt>
      <trkpt lat="49.2506" lon="1.39914">
        <ele>175.7</ele>
        <time>2015-09-20T09:44:05Z</time>
      </trkpt>
      <trkpt lat="49.25061" lon="1.39909">
        <ele>175.91</ele>
        <time>2015-09-20T09:44:08Z</time>
      </trkpt>
      <trkpt lat="49.2506" lon="1.39907">
        <ele>176.09</ele>
        <time>2015-09-20T09:44:09Z</time>
      </trkpt>
      <trkpt lat="49.25058" lon="1.39905">
        <ele>176.17</ele>
        <time>2015-09-20T09:44:10Z</time>
      </trkpt>
      <trkpt lat="49.25057" lon="1.39903">
        <ele>176.21</ele>
        <time>2015-09-20T09:44:11Z</time>
      </trkpt>
      <trkpt lat="49.25055" lon="1.39901">
        <ele>176.22</ele>
        <time>2015-09-20T09:44:12Z</time>
      </trkpt>
      <trkpt lat="49.25053" lon="1.39899">
        <ele>176.24</ele>
        <time>2015-09-20T09:44:13Z</time>
      </trkpt>
      <trkpt lat="49.25036" lon="1.39832">
        <ele>177.49</ele>
        <time>2015-09-20T09:44:31Z</time>
      </trkpt>
      <trkpt lat="49.25021" lon="1.39761">
        <ele>178</ele>
        <time>2015-09-20T09:44:47Z</time>
      </trkpt>
      <trkpt lat="49.25004" lon="1.3969">
        <ele>178.8</ele>
        <time>2015-09-20T09:45:02Z</time>
      </trkpt>
      <trkpt lat="49.24991" lon="1.39617">
        <ele>179.27</ele>
        <time>2015-09-20T09:45:17Z</time>
      </trkpt>
      <trkpt lat="49.24979" lon="1.39546">
        <ele>179.24</ele>
        <time>2015-09-20T09:45:31Z</time>
      </trkpt>
      <trkpt lat="49.2497" lon="1.39475">
        <ele>180.67</ele>
        <time>2015-09-20T09:45:44Z</time>
      </trkpt>
      <trkpt lat="49.24955" lon="1.39406">
        <ele>180.33</ele>
        <time>2015-09-20T09:45:59Z</time>
      </trkpt>
      <trkpt lat="49.24937" lon="1.39367">
        <ele>177.17</ele>
        <time>2015-09-20T09:46:10Z</time>
      </trkpt>
      <trkpt lat="49.24936" lon="1.39365">
        <ele>176.99</ele>
        <time>2015-09-20T09:46:11Z</time>
      </trkpt>
      <trkpt lat="49.24926" lon="1.39359">
        <ele>173.28</ele>
        <time>2015-09-20T09:46:18Z</time>
      </trkpt>
      <trkpt lat="49.24925" lon="1.3936">
        <ele>172.65</ele>
        <time>2015-09-20T09:46:19Z</time>
      </trkpt>
      <trkpt lat="49.24924" lon="1.39361">
        <ele>171.89</ele>
        <time>2015-09-20T09:46:20Z</time>
      </trkpt>
      <trkpt lat="49.24924" lon="1.3936">
        <ele>171.65</ele>
        <time>2015-09-20T09:46:21Z</time>
      </trkpt>
      <trkpt lat="49.24926" lon="1.39357">
        <ele>172.75</ele>
        <time>2015-09-20T09:46:50Z</time>
      </trkpt>
      <trkpt lat="49.24925" lon="1.3936">
        <ele>171.66</ele>
        <time>2015-09-20T09:47:09Z</time>
      </trkpt>
      <trkpt lat="49.24921" lon="1.39365">
        <ele>170.59</ele>
        <time>2015-09-20T09:47:14Z</time>
      </trkpt>
      <trkpt lat="49.2492" lon="1.39366">
        <ele>169.98</ele>
        <time>2015-09-20T09:47:15Z</time>
      </trkpt>
      <trkpt lat="49.24901" lon="1.39383">
        <ele>166.59</ele>
        <time>2015-09-20T09:47:22Z</time>
      </trkpt>
      <trkpt lat="49.24883" lon="1.39401">
        <ele>163.38</ele>
        <time>2015-09-20T09:47:29Z</time>
      </trkpt>
      <trkpt lat="49.24869" lon="1.39408">
        <ele>160.26</ele>
        <time>2015-09-20T09:47:34Z</time>
      </trkpt>
      <trkpt lat="49.24866" lon="1.39411">
        <ele>159.97</ele>
        <time>2015-09-20T09:47:35Z</time>
      </trkpt>
      <trkpt lat="49.2485" lon="1.39423">
        <ele>156.64</ele>
        <time>2015-09-20T09:47:40Z</time>
      </trkpt>
      <trkpt lat="49.24834" lon="1.39457">
        <ele>152.62</ele>
        <time>2015-09-20T09:47:51Z</time>
      </trkpt>
      <trkpt lat="49.24825" lon="1.39466">
        <ele>149.52</ele>
        <time>2015-09-20T09:47:54Z</time>
      </trkpt>
      <trkpt lat="49.24819" lon="1.39472">
        <ele>146.42</ele>
        <time>2015-09-20T09:47:59Z</time>
      </trkpt>
      <trkpt lat="49.24818" lon="1.39472">
        <ele>146.25</ele>
        <time>2015-09-20T09:48:00Z</time>
      </trkpt>
      <trkpt lat="49.24816" lon="1.39473">
        <ele>145.8</ele>
        <time>2015-09-20T09:48:01Z</time>
      </trkpt>
      <trkpt lat="49.24814" lon="1.39475">
        <ele>144.89</ele>
        <time>2015-09-20T09:48:02Z</time>
      </trkpt>
      <trkpt lat="49.24807" lon="1.39487">
        <ele>141.65</ele>
        <time>2015-09-20T09:48:06Z</time>
      </trkpt>
      <trkpt lat="49.24805" lon="1.3949">
        <ele>141.45</ele>
        <time>2015-09-20T09:48:07Z</time>
      </trkpt>
      <trkpt lat="49.24775" lon="1.39531">
        <ele>138.29</ele>
        <time>2015-09-20T09:48:19Z</time>
      </trkpt>
      <trkpt lat="49.24754" lon="1.39551">
        <ele>134.83</ele>
        <time>2015-09-20T09:48:27Z</time>
      </trkpt>
      <trkpt lat="49.24742" lon="1.39555">
        <ele>131.53</ele>
        <time>2015-09-20T09:48:32Z</time>
      </trkpt>
      <trkpt lat="49.2473" lon="1.3956">
        <ele>128.26</ele>
        <time>2015-09-20T09:48:37Z</time>
      </trkpt>
      <trkpt lat="49.24721" lon="1.39562">
        <ele>125.2</ele>
        <time>2015-09-20T09:48:49Z</time>
      </trkpt>
      <trkpt lat="49.24719" lon="1.39563">
        <ele>124.66</ele>
        <time>2015-09-20T09:48:50Z</time>
      </trkpt>
      <trkpt lat="49.24718" lon="1.39564">
        <ele>123.88</ele>
        <time>2015-09-20T09:48:51Z</time>
      </trkpt>
      <trkpt lat="49.24717" lon="1.39565">
        <ele>123.19</ele>
        <time>2015-09-20T09:48:52Z</time>
      </trkpt>
      <trkpt lat="49.24716" lon="1.39567">
        <ele>122.67</ele>
        <time>2015-09-20T09:48:53Z</time>
      </trkpt>
      <trkpt lat="49.24715" lon="1.39567">
        <ele>122.26</ele>
        <time>2015-09-20T09:48:54Z</time>
      </trkpt>
      <trkpt lat="49.24715" lon="1.39568">
        <ele>121.97</ele>
        <time>2015-09-20T09:48:55Z</time>
      </trkpt>
      <trkpt lat="49.24706" lon="1.39573">
        <ele>118.54</ele>
        <time>2015-09-20T09:49:03Z</time>
      </trkpt>
      <trkpt lat="49.24705" lon="1.39574">
        <ele>118.26</ele>
        <time>2015-09-20T09:49:04Z</time>
      </trkpt>
      <trkpt lat="49.24695" lon="1.39581">
        <ele>115.1</ele>
        <time>2015-09-20T09:49:13Z</time>
      </trkpt>
      <trkpt lat="49.24695" lon="1.39582">
        <ele>114.82</ele>
        <time>2015-09-20T09:49:14Z</time>
      </trkpt>
      <trkpt lat="49.24685" lon="1.39591">
        <ele>111.23</ele>
        <time>2015-09-20T09:49:30Z</time>
      </trkpt>
      <trkpt lat="49.24676" lon="1.396">
        <ele>107.55</ele>
        <time>2015-09-20T09:49:34Z</time>
      </trkpt>
      <trkpt lat="49.24666" lon="1.39613">
        <ele>104.31</ele>
        <time>2015-09-20T09:49:47Z</time>
      </trkpt>
      <trkpt lat="49.24664" lon="1.39619">
        <ele>101.29</ele>
        <time>2015-09-20T09:49:54Z</time>
      </trkpt>
      <trkpt lat="49.24661" lon="1.39627">
        <ele>98.14</ele>
        <time>2015-09-20T09:50:00Z</time>
      </trkpt>
      <trkpt lat="49.24662" lon="1.39635">
        <ele>95.08</ele>
        <time>2015-09-20T09:50:12Z</time>
      </trkpt>
      <trkpt lat="49.24658" lon="1.39651">
        <ele>91.73</ele>
        <time>2015-09-20T09:50:18Z</time>
      </trkpt>
      <trkpt lat="49.24652" lon="1.39664">
        <ele>88.52</ele>
        <time>2015-09-20T09:50:21Z</time>
      </trkpt>
      <trkpt lat="49.24644" lon="1.39733">
        <ele>89.48</ele>
        <time>2015-09-20T09:50:43Z</time>
      </trkpt>
      <trkpt lat="49.24634" lon="1.39764">
        <ele>85.98</ele>
        <time>2015-09-20T09:50:56Z</time>
      </trkpt>
      <trkpt lat="49.24633" lon="1.39773">
        <ele>82.92</ele>
        <time>2015-09-20T09:51:02Z</time>
      </trkpt>
      <trkpt lat="49.24631" lon="1.39775">
        <ele>81.87</ele>
        <time>2015-09-20T09:51:07Z</time>
      </trkpt>
      <trkpt lat="49.24626" lon="1.3977">
        <ele>78.87</ele>
        <time>2015-09-20T09:51:14Z</time>
      </trkpt>
      <trkpt lat="49.24622" lon="1.39766">
        <ele>75.69</ele>
        <time>2015-09-20T09:51:26Z</time>
      </trkpt>
      <trkpt lat="49.24621" lon="1.39771">
        <ele>74.52</ele>
        <time>2015-09-20T09:51:30Z</time>
      </trkpt>
      <trkpt lat="49.24619" lon="1.39781">
        <ele>71.51</ele>
        <time>2015-09-20T09:51:35Z</time>
      </trkpt>
      <trkpt lat="49.24617" lon="1.39791">
        <ele>68.3</ele>
        <time>2015-09-20T09:51:41Z</time>
      </trkpt>
      <trkpt lat="49.24612" lon="1.39793">
        <ele>64.98</ele>
        <time>2015-09-20T09:51:48Z</time>
      </trkpt>
      <trkpt lat="49.24609" lon="1.39798">
        <ele>61.82</ele>
        <time>2015-09-20T09:51:55Z</time>
      </trkpt>
      <trkpt lat="49.24605" lon="1.398">
        <ele>58.82</ele>
        <time>2015-09-20T09:52:01Z</time>
      </trkpt>
      <trkpt lat="49.24603" lon="1.398">
        <ele>58.35</ele>
        <time>2015-09-20T09:52:02Z</time>
      </trkpt>
      <trkpt lat="49.24601" lon="1.39801">
        <ele>57.84</ele>
        <time>2015-09-20T09:52:03Z</time>
      </trkpt>
      <trkpt lat="49.246" lon="1.398">
        <ele>57.3</ele>
        <time>2015-09-20T09:52:04Z</time>
      </trkpt>
      <trkpt lat="49.24599" lon="1.398">
        <ele>56.78</ele>
        <time>2015-09-20T09:52:05Z</time>
      </trkpt>
      <trkpt lat="49.24598" lon="1.398">
        <ele>56.41</ele>
        <time>2015-09-20T09:52:06Z</time>
      </trkpt>
      <trkpt lat="49.24596" lon="1.39796">
        <ele>56.07</ele>
        <time>2015-09-20T09:53:35Z</time>
      </trkpt>
      <trkpt lat="49.24595" lon="1.39796">
        <ele>56.03</ele>
        <time>2015-09-20T09:54:06Z</time>
      </trkpt>
      <trkpt lat="49.24595" lon="1.39795">
        <ele>56.03</ele>
        <time>2015-09-20T09:54:07Z</time>
      </trkpt>
      <trkpt lat="49.24597" lon="1.39795">
        <ele>55.97</ele>
        <time>2015-09-20T09:54:10Z</time>
      </trkpt>
      <trkpt lat="49.24598" lon="1.39794">
        <ele>56.01</ele>
        <time>2015-09-20T09:54:11Z</time>
      </trkpt>
      <trkpt lat="49.24602" lon="1.39793">
        <ele>56.1</ele>
        <time>2015-09-20T09:54:25Z</time>
      </trkpt>
      <trkpt lat="49.24591" lon="1.398">
        <ele>56.06</ele>
        <time>2015-09-20T09:54:32Z</time>
      </trkpt>
      <trkpt lat="49.24591" lon="1.39801">
        <ele>56.12</ele>
        <time>2015-09-20T09:54:33Z</time>
      </trkpt>
      <trkpt lat="49.24592" lon="1.39797">
        <ele>55.89</ele>
        <time>2015-09-20T09:55:39Z</time>
      </trkpt>
      <trkpt lat="49.24594" lon="1.39797">
        <ele>55.75</ele>
        <time>2015-09-20T09:55:42Z</time>
      </trkpt>
      <trkpt lat="49.24598" lon="1.39796">
        <ele>56.32</ele>
        <time>2015-09-20T09:56:07Z</time>
      </trkpt>
      <trkpt lat="49.24595" lon="1.39794">
        <ele>56.35</ele>
        <time>2015-09-20T09:56:42Z</time>
      </trkpt>
      <trkpt lat="49.24594" lon="1.39793">
        <ele>56.37</ele>
        <time>2015-09-20T09:56:47Z</time>
      </trkpt>
      <trkpt lat="49.24588" lon="1.39792">
        <ele>56.32</ele>
        <time>2015-09-20T09:58:35Z</time>
      </trkpt>
      <trkpt lat="49.24586" lon="1.39784">
        <ele>56.76</ele>
        <time>2015-09-20T09:58:38Z</time>
      </trkpt>
      <trkpt lat="49.24585" lon="1.39781">
        <ele>56.85</ele>
        <time>2015-09-20T09:58:39Z</time>
      </trkpt>
      <trkpt lat="49.24585" lon="1.39777">
        <ele>56.94</ele>
        <time>2015-09-20T09:58:40Z</time>
      </trkpt>
      <trkpt lat="49.24578" lon="1.39709">
        <ele>56.18</ele>
        <time>2015-09-20T09:58:52Z</time>
      </trkpt>
      <trkpt lat="49.24574" lon="1.39702">
        <ele>56.07</ele>
        <time>2015-09-20T09:58:53Z</time>
      </trkpt>
      <trkpt lat="49.24572" lon="1.39698">
        <ele>55.75</ele>
        <time>2015-09-20T09:58:54Z</time>
      </trkpt>
      <trkpt lat="49.24566" lon="1.39695">
        <ele>55.44</ele>
        <time>2015-09-20T09:58:55Z</time>
      </trkpt>
      <trkpt lat="49.24559" lon="1.39694">
        <ele>55.07</ele>
        <time>2015-09-20T09:58:56Z</time>
      </trkpt>
      <trkpt lat="49.24553" lon="1.39695">
        <ele>54.65</ele>
        <time>2015-09-20T09:58:57Z</time>
      </trkpt>
      <trkpt lat="49.24546" lon="1.39698">
        <ele>54.34</ele>
        <time>2015-09-20T09:58:58Z</time>
      </trkpt>
      <trkpt lat="49.24541" lon="1.39702">
        <ele>54.08</ele>
        <time>2015-09-20T09:58:59Z</time>
      </trkpt>
      <trkpt lat="49.24536" lon="1.39708">
        <ele>53.87</ele>
        <time>2015-09-20T09:59:00Z</time>
      </trkpt>
      <trkpt lat="49.24531" lon="1.39714">
        <ele>53.74</ele>
        <time>2015-09-20T09:59:01Z</time>
      </trkpt>
      <trkpt lat="49.2449" lon="1.3976">
        <ele>53.25</ele>
        <time>2015-09-20T09:59:10Z</time>
      </trkpt>
      <trkpt lat="49.24468" lon="1.39791">
        <ele>53.02</ele>
        <time>2015-09-20T09:59:16Z</time>
      </trkpt>
      <trkpt lat="49.24467" lon="1.39797">
        <ele>52.97</ele>
        <time>2015-09-20T09:59:17Z</time>
      </trkpt>
      <trkpt lat="49.24467" lon="1.39802">
        <ele>52.87</ele>
        <time>2015-09-20T09:59:18Z</time>
      </trkpt>
      <trkpt lat="49.2447" lon="1.39804">
        <ele>52.64</ele>
        <time>2015-09-20T09:59:19Z</time>
      </trkpt>
      <trkpt lat="49.24473" lon="1.39806">
        <ele>52.47</ele>
        <time>2015-09-20T09:59:20Z</time>
      </trkpt>
      <trkpt lat="49.24476" lon="1.39808">
        <ele>52.41</ele>
        <time>2015-09-20T09:59:21Z</time>
      </trkpt>
      <trkpt lat="49.24481" lon="1.3981">
        <ele>52.4</ele>
        <time>2015-09-20T09:59:22Z</time>
      </trkpt>
      <trkpt lat="49.245" lon="1.39843">
        <ele>52.05</ele>
        <time>2015-09-20T09:59:29Z</time>
      </trkpt>
      <trkpt lat="49.24501" lon="1.3985">
        <ele>51.99</ele>
        <time>2015-09-20T09:59:30Z</time>
      </trkpt>
      <trkpt lat="49.24504" lon="1.39858">
        <ele>51.9</ele>
        <time>2015-09-20T09:59:31Z</time>
      </trkpt>
      <trkpt lat="49.24508" lon="1.39864">
        <ele>51.92</ele>
        <time>2015-09-20T09:59:32Z</time>
      </trkpt>
      <trkpt lat="49.24512" lon="1.3987">
        <ele>51.99</ele>
        <time>2015-09-20T09:59:33Z</time>
      </trkpt>
      <trkpt lat="49.24516" lon="1.39875">
        <ele>51.96</ele>
        <time>2015-09-20T09:59:34Z</time>
      </trkpt>
      <trkpt lat="49.24518" lon="1.39878">
        <ele>51.75</ele>
        <time>2015-09-20T09:59:35Z</time>
      </trkpt>
      <trkpt lat="49.24521" lon="1.39881">
        <ele>51.63</ele>
        <time>2015-09-20T09:59:36Z</time>
      </trkpt>
      <trkpt lat="49.24542" lon="1.39893">
        <ele>51.66</ele>
        <time>2015-09-20T09:59:40Z</time>
      </trkpt>
      <trkpt lat="49.24545" lon="1.39899">
        <ele>51.58</ele>
        <time>2015-09-20T09:59:41Z</time>
      </trkpt>
      <trkpt lat="49.24544" lon="1.39907">
        <ele>51.51</ele>
        <time>2015-09-20T09:59:42Z</time>
      </trkpt>
      <trkpt lat="49.24544" lon="1.39914">
        <ele>51.42</ele>
        <time>2015-09-20T09:59:43Z</time>
      </trkpt>
      <trkpt lat="49.24542" lon="1.3992">
        <ele>51.35</ele>
        <time>2015-09-20T09:59:44Z</time>
      </trkpt>
      <trkpt lat="49.24541" lon="1.39927">
        <ele>51.29</ele>
        <time>2015-09-20T09:59:45Z</time>
      </trkpt>
      <trkpt lat="49.24539" lon="1.39934">
        <ele>51.26</ele>
        <time>2015-09-20T09:59:46Z</time>
      </trkpt>
      <trkpt lat="49.24521" lon="1.40003">
        <ele>51.33</ele>
        <time>2015-09-20T09:59:56Z</time>
      </trkpt>
      <trkpt lat="49.2452" lon="1.4001">
        <ele>51.52</ele>
        <time>2015-09-20T09:59:57Z</time>
      </trkpt>
      <trkpt lat="49.24508" lon="1.40088">
        <ele>52.23</ele>
        <time>2015-09-20T10:00:09Z</time>
      </trkpt>
      <trkpt lat="49.24506" lon="1.40167">
        <ele>52.59</ele>
        <time>2015-09-20T10:00:22Z</time>
      </trkpt>
      <trkpt lat="49.245" lon="1.40241">
        <ele>52.91</ele>
        <time>2015-09-20T10:00:34Z</time>
      </trkpt>
      <trkpt lat="49.24498" lon="1.40267">
        <ele>53.08</ele>
        <time>2015-09-20T10:00:38Z</time>
      </trkpt>
      <trkpt lat="49.24498" lon="1.40295">
        <ele>53.11</ele>
        <time>2015-09-20T10:00:42Z</time>
      </trkpt>
      <trkpt lat="49.24498" lon="1.40301">
        <ele>53.1</ele>
        <time>2015-09-20T10:00:43Z</time>
      </trkpt>
      <trkpt lat="49.24498" lon="1.40308">
        <ele>53.04</ele>
        <time>2015-09-20T10:00:44Z</time>
      </trkpt>
      <trkpt lat="49.24498" lon="1.40314">
        <ele>53.06</ele>
        <time>2015-09-20T10:00:45Z</time>
      </trkpt>
      <trkpt lat="49.24498" lon="1.4032">
        <ele>53.16</ele>
        <time>2015-09-20T10:00:46Z</time>
      </trkpt>
      <trkpt lat="49.24498" lon="1.40326">
        <ele>53.29</ele>
        <time>2015-09-20T10:00:47Z</time>
      </trkpt>
      <trkpt lat="49.24496" lon="1.40379">
        <ele>53.14</ele>
        <time>2015-09-20T10:00:55Z</time>
      </trkpt>
      <trkpt lat="49.24497" lon="1.40451">
        <ele>53.28</ele>
        <time>2015-09-20T10:01:06Z</time>
      </trkpt>
      <trkpt lat="49.24497" lon="1.40478">
        <ele>53.64</ele>
        <time>2015-09-20T10:01:11Z</time>
      </trkpt>
      <trkpt lat="49.24497" lon="1.4055">
        <ele>53.8</ele>
        <time>2015-09-20T10:01:22Z</time>
      </trkpt>
      <trkpt lat="49.24496" lon="1.40626">
        <ele>54.46</ele>
        <time>2015-09-20T10:01:33Z</time>
      </trkpt>
      <trkpt lat="49.24493" lon="1.40706">
        <ele>54.64</ele>
        <time>2015-09-20T10:01:49Z</time>
      </trkpt>
      <trkpt lat="49.24496" lon="1.40783">
        <ele>54.93</ele>
        <time>2015-09-20T10:02:00Z</time>
      </trkpt>
      <trkpt lat="49.24497" lon="1.40803">
        <ele>55.4</ele>
        <time>2015-09-20T10:02:03Z</time>
      </trkpt>
      <trkpt lat="49.24497" lon="1.40809">
        <ele>55.4</ele>
        <time>2015-09-20T10:02:04Z</time>
      </trkpt>
      <trkpt lat="49.24497" lon="1.40815">
        <ele>55.39</ele>
        <time>2015-09-20T10:02:05Z</time>
      </trkpt>
      <trkpt lat="49.24498" lon="1.40821">
        <ele>55.41</ele>
        <time>2015-09-20T10:02:06Z</time>
      </trkpt>
      <trkpt lat="49.24499" lon="1.40828">
        <ele>55.45</ele>
        <time>2015-09-20T10:02:07Z</time>
      </trkpt>
      <trkpt lat="49.245" lon="1.40833">
        <ele>55.48</ele>
        <time>2015-09-20T10:02:08Z</time>
      </trkpt>
      <trkpt lat="49.24501" lon="1.4084">
        <ele>55.51</ele>
        <time>2015-09-20T10:02:09Z</time>
      </trkpt>
      <trkpt lat="49.24504" lon="1.40847">
        <ele>55.52</ele>
        <time>2015-09-20T10:02:10Z</time>
      </trkpt>
      <trkpt lat="49.24507" lon="1.40854">
        <ele>55.54</ele>
        <time>2015-09-20T10:02:11Z</time>
      </trkpt>
      <trkpt lat="49.24521" lon="1.40889">
        <ele>55.52</ele>
        <time>2015-09-20T10:02:17Z</time>
      </trkpt>
      <trkpt lat="49.24553" lon="1.40953">
        <ele>56.06</ele>
        <time>2015-09-20T10:02:29Z</time>
      </trkpt>
      <trkpt lat="49.24582" lon="1.41021">
        <ele>56.67</ele>
        <time>2015-09-20T10:02:39Z</time>
      </trkpt>
      <trkpt lat="49.2459" lon="1.41047">
        <ele>56.87</ele>
        <time>2015-09-20T10:02:43Z</time>
      </trkpt>
      <trkpt lat="49.24591" lon="1.41054">
        <ele>56.93</ele>
        <time>2015-09-20T10:02:44Z</time>
      </trkpt>
      <trkpt lat="49.24609" lon="1.41108">
        <ele>56.99</ele>
        <time>2015-09-20T10:02:50Z</time>
      </trkpt>
      <trkpt lat="49.24641" lon="1.41165">
        <ele>57.11</ele>
        <time>2015-09-20T10:03:00Z</time>
      </trkpt>
      <trkpt lat="49.24654" lon="1.41191">
        <ele>57.71</ele>
        <time>2015-09-20T10:03:05Z</time>
      </trkpt>
      <trkpt lat="49.24663" lon="1.41213">
        <ele>57.76</ele>
        <time>2015-09-20T10:03:08Z</time>
      </trkpt>
      <trkpt lat="49.24665" lon="1.41221">
        <ele>57.71</ele>
        <time>2015-09-20T10:03:09Z</time>
      </trkpt>
      <trkpt lat="49.2467" lon="1.41253">
        <ele>57.88</ele>
        <time>2015-09-20T10:03:13Z</time>
      </trkpt>
      <trkpt lat="49.24671" lon="1.41262">
        <ele>57.93</ele>
        <time>2015-09-20T10:03:14Z</time>
      </trkpt>
      <trkpt lat="49.24674" lon="1.41314">
        <ele>58.15</ele>
        <time>2015-09-20T10:03:20Z</time>
      </trkpt>
      <trkpt lat="49.24672" lon="1.41339">
        <ele>58.13</ele>
        <time>2015-09-20T10:03:23Z</time>
      </trkpt>
      <trkpt lat="49.24672" lon="1.41346">
        <ele>58.11</ele>
        <time>2015-09-20T10:03:24Z</time>
      </trkpt>
      <trkpt lat="49.24664" lon="1.41417">
        <ele>57.99</ele>
        <time>2015-09-20T10:03:38Z</time>
      </trkpt>
      <trkpt lat="49.24663" lon="1.41436">
        <ele>58.28</ele>
        <time>2015-09-20T10:03:41Z</time>
      </trkpt>
      <trkpt lat="49.24657" lon="1.41482">
        <ele>58.34</ele>
        <time>2015-09-20T10:03:49Z</time>
      </trkpt>
      <trkpt lat="49.24653" lon="1.41484">
        <ele>58.33</ele>
        <time>2015-09-20T10:03:50Z</time>
      </trkpt>
      <trkpt lat="49.2465" lon="1.41484">
        <ele>58.42</ele>
        <time>2015-09-20T10:03:51Z</time>
      </trkpt>
      <trkpt lat="49.24647" lon="1.41484">
        <ele>58.48</ele>
        <time>2015-09-20T10:03:52Z</time>
      </trkpt>
      <trkpt lat="49.24643" lon="1.41483">
        <ele>58.51</ele>
        <time>2015-09-20T10:03:53Z</time>
      </trkpt>
      <trkpt lat="49.24612" lon="1.41493">
        <ele>57.56</ele>
        <time>2015-09-20T10:04:04Z</time>
      </trkpt>
      <trkpt lat="49.24613" lon="1.41498">
        <ele>57.65</ele>
        <time>2015-09-20T10:04:05Z</time>
      </trkpt>
      <trkpt lat="49.24614" lon="1.41503">
        <ele>57.7</ele>
        <time>2015-09-20T10:04:06Z</time>
      </trkpt>
      <trkpt lat="49.24615" lon="1.41507">
        <ele>57.73</ele>
        <time>2015-09-20T10:04:07Z</time>
      </trkpt>
      <trkpt lat="49.24616" lon="1.41512">
        <ele>57.78</ele>
        <time>2015-09-20T10:04:08Z</time>
      </trkpt>
      <trkpt lat="49.24626" lon="1.41551">
        <ele>58.22</ele>
        <time>2015-09-20T10:04:14Z</time>
      </trkpt>
      <trkpt lat="49.24628" lon="1.41559">
        <ele>58.28</ele>
        <time>2015-09-20T10:04:15Z</time>
      </trkpt>
      <trkpt lat="49.2463" lon="1.41566">
        <ele>58.38</ele>
        <time>2015-09-20T10:04:16Z</time>
      </trkpt>
      <trkpt lat="49.24639" lon="1.41599">
        <ele>58.31</ele>
        <time>2015-09-20T10:04:21Z</time>
      </trkpt>
      <trkpt lat="49.2464" lon="1.41607">
        <ele>58.31</ele>
        <time>2015-09-20T10:04:22Z</time>
      </trkpt>
      <trkpt lat="49.24642" lon="1.41616">
        <ele>58.34</ele>
        <time>2015-09-20T10:04:23Z</time>
      </trkpt>
      <trkpt lat="49.24649" lon="1.41639">
        <ele>58.19</ele>
        <time>2015-09-20T10:04:25Z</time>
      </trkpt>
      <trkpt lat="49.24653" lon="1.41661">
        <ele>58.21</ele>
        <time>2015-09-20T10:04:27Z</time>
      </trkpt>
      <trkpt lat="49.24667" lon="1.41743">
        <ele>58.13</ele>
        <time>2015-09-20T10:04:36Z</time>
      </trkpt>
      <trkpt lat="49.2468" lon="1.41818">
        <ele>58.22</ele>
        <time>2015-09-20T10:04:45Z</time>
      </trkpt>
      <trkpt lat="49.24686" lon="1.41895">
        <ele>58.6</ele>
        <time>2015-09-20T10:04:55Z</time>
      </trkpt>
      <trkpt lat="49.24687" lon="1.41909">
        <ele>59.16</ele>
        <time>2015-09-20T10:04:57Z</time>
      </trkpt>
      <trkpt lat="49.24682" lon="1.41981">
        <ele>59.38</ele>
        <time>2015-09-20T10:05:08Z</time>
      </trkpt>
      <trkpt lat="49.24681" lon="1.41994">
        <ele>59.61</ele>
        <time>2015-09-20T10:05:10Z</time>
      </trkpt>
      <trkpt lat="49.24676" lon="1.42068">
        <ele>60.37</ele>
        <time>2015-09-20T10:05:21Z</time>
      </trkpt>
      <trkpt lat="49.24674" lon="1.42082">
        <ele>60.57</ele>
        <time>2015-09-20T10:05:23Z</time>
      </trkpt>
      <trkpt lat="49.24674" lon="1.42089">
        <ele>60.64</ele>
        <time>2015-09-20T10:05:24Z</time>
      </trkpt>
      <trkpt lat="49.24677" lon="1.42166">
        <ele>61.39</ele>
        <time>2015-09-20T10:05:36Z</time>
      </trkpt>
      <trkpt lat="49.24674" lon="1.42185">
        <ele>62.05</ele>
        <time>2015-09-20T10:05:59Z</time>
      </trkpt>
      <trkpt lat="49.24675" lon="1.42186">
        <ele>61.75</ele>
        <time>2015-09-20T10:06:02Z</time>
      </trkpt>
      <trkpt lat="49.24675" lon="1.42187">
        <ele>61.84</ele>
        <time>2015-09-20T10:06:03Z</time>
      </trkpt>
      <trkpt lat="49.24675" lon="1.4219">
        <ele>61.89</ele>
        <time>2015-09-20T10:06:04Z</time>
      </trkpt>
      <trkpt lat="49.24673" lon="1.42232">
        <ele>62.6</ele>
        <time>2015-09-20T10:06:14Z</time>
      </trkpt>
      <trkpt lat="49.24669" lon="1.42234">
        <ele>62.63</ele>
        <time>2015-09-20T10:06:15Z</time>
      </trkpt>
      <trkpt lat="49.2466" lon="1.42238">
        <ele>62.87</ele>
        <time>2015-09-20T10:06:17Z</time>
      </trkpt>
      <trkpt lat="49.24656" lon="1.4224">
        <ele>63.01</ele>
        <time>2015-09-20T10:06:18Z</time>
      </trkpt>
      <trkpt lat="49.24652" lon="1.42242">
        <ele>63.15</ele>
        <time>2015-09-20T10:06:19Z</time>
      </trkpt>
      <trkpt lat="49.24648" lon="1.42244">
        <ele>63.21</ele>
        <time>2015-09-20T10:06:20Z</time>
      </trkpt>
      <trkpt lat="49.24643" lon="1.42246">
        <ele>63.33</ele>
        <time>2015-09-20T10:06:21Z</time>
      </trkpt>
      <trkpt lat="49.24639" lon="1.42247">
        <ele>63.42</ele>
        <time>2015-09-20T10:06:22Z</time>
      </trkpt>
      <trkpt lat="49.24587" lon="1.42274">
        <ele>65.65</ele>
        <time>2015-09-20T10:06:35Z</time>
      </trkpt>
      <trkpt lat="49.24549" lon="1.42305">
        <ele>67.83</ele>
        <time>2015-09-20T10:06:48Z</time>
      </trkpt>
      <trkpt lat="49.24549" lon="1.42312">
        <ele>67.98</ele>
        <time>2015-09-20T10:06:49Z</time>
      </trkpt>
      <trkpt lat="49.24558" lon="1.42386">
        <ele>70.03</ele>
        <time>2015-09-20T10:07:01Z</time>
      </trkpt>
      <trkpt lat="49.24559" lon="1.42392">
        <ele>70.12</ele>
        <time>2015-09-20T10:07:02Z</time>
      </trkpt>
      <trkpt lat="49.24564" lon="1.42465">
        <ele>71.64</ele>
        <time>2015-09-20T10:07:13Z</time>
      </trkpt>
      <trkpt lat="49.24565" lon="1.42534">
        <ele>72.99</ele>
        <time>2015-09-20T10:07:24Z</time>
      </trkpt>
      <trkpt lat="49.24557" lon="1.42609">
        <ele>73.64</ele>
        <time>2015-09-20T10:07:34Z</time>
      </trkpt>
      <trkpt lat="49.24545" lon="1.42667">
        <ele>74.49</ele>
        <time>2015-09-20T10:07:42Z</time>
      </trkpt>
      <trkpt lat="49.24542" lon="1.42674">
        <ele>74.64</ele>
        <time>2015-09-20T10:07:43Z</time>
      </trkpt>
      <trkpt lat="49.24539" lon="1.4268">
        <ele>74.75</ele>
        <time>2015-09-20T10:07:44Z</time>
      </trkpt>
      <trkpt lat="49.24504" lon="1.42731">
        <ele>77.41</ele>
        <time>2015-09-20T10:07:56Z</time>
      </trkpt>
      <trkpt lat="49.2448" lon="1.42766">
        <ele>80.57</ele>
        <time>2015-09-20T10:08:07Z</time>
      </trkpt>
      <trkpt lat="49.24465" lon="1.42819">
        <ele>83.58</ele>
        <time>2015-09-20T10:08:19Z</time>
      </trkpt>
      <trkpt lat="49.2447" lon="1.42881">
        <ele>86.75</ele>
        <time>2015-09-20T10:08:32Z</time>
      </trkpt>
      <trkpt lat="49.24472" lon="1.42938">
        <ele>89.84</ele>
        <time>2015-09-20T10:08:45Z</time>
      </trkpt>
      <trkpt lat="49.2447" lon="1.42999">
        <ele>93.1</ele>
        <time>2015-09-20T10:08:58Z</time>
      </trkpt>
      <trkpt lat="49.24451" lon="1.43029">
        <ele>96.22</ele>
        <time>2015-09-20T10:09:09Z</time>
      </trkpt>
      <trkpt lat="49.24431" lon="1.43013">
        <ele>97.92</ele>
        <time>2015-09-20T10:09:18Z</time>
      </trkpt>
      <trkpt lat="49.2443" lon="1.4301">
        <ele>98.15</ele>
        <time>2015-09-20T10:09:19Z</time>
      </trkpt>
      <trkpt lat="49.2442" lon="1.42984">
        <ele>101.28</ele>
        <time>2015-09-20T10:09:25Z</time>
      </trkpt>
      <trkpt lat="49.24404" lon="1.42937">
        <ele>104.34</ele>
        <time>2015-09-20T10:09:34Z</time>
      </trkpt>
      <trkpt lat="49.24378" lon="1.42892">
        <ele>107.36</ele>
        <time>2015-09-20T10:09:44Z</time>
      </trkpt>
      <trkpt lat="49.24348" lon="1.42852">
        <ele>110.37</ele>
        <time>2015-09-20T10:09:56Z</time>
      </trkpt>
      <trkpt lat="49.24316" lon="1.42819">
        <ele>113.48</ele>
        <time>2015-09-20T10:10:08Z</time>
      </trkpt>
      <trkpt lat="49.24276" lon="1.42796">
        <ele>116.6</ele>
        <time>2015-09-20T10:10:21Z</time>
      </trkpt>
      <trkpt lat="49.24236" lon="1.42801">
        <ele>119.78</ele>
        <time>2015-09-20T10:10:34Z</time>
      </trkpt>
      <trkpt lat="49.24193" lon="1.42809">
        <ele>122.95</ele>
        <time>2015-09-20T10:10:47Z</time>
      </trkpt>
      <trkpt lat="49.24159" lon="1.4282">
        <ele>126.05</ele>
        <time>2015-09-20T10:11:00Z</time>
      </trkpt>
      <trkpt lat="49.24124" lon="1.42804">
        <ele>129.23</ele>
        <time>2015-09-20T10:11:12Z</time>
      </trkpt>
      <trkpt lat="49.24096" lon="1.42753">
        <ele>132.66</ele>
        <time>2015-09-20T10:11:24Z</time>
      </trkpt>
      <trkpt lat="49.24071" lon="1.42699">
        <ele>135.95</ele>
        <time>2015-09-20T10:11:36Z</time>
      </trkpt>
      <trkpt lat="49.24047" lon="1.42645">
        <ele>139</ele>
        <time>2015-09-20T10:11:48Z</time>
      </trkpt>
      <trkpt lat="49.24023" lon="1.42602">
        <ele>142.24</ele>
        <time>2015-09-20T10:11:59Z</time>
      </trkpt>
      <trkpt lat="49.23985" lon="1.42577">
        <ele>144.95</ele>
        <time>2015-09-20T10:12:10Z</time>
      </trkpt>
      <trkpt lat="49.23972" lon="1.42575">
        <ele>145.88</ele>
        <time>2015-09-20T10:12:13Z</time>
      </trkpt>
      <trkpt lat="49.23932" lon="1.42569">
        <ele>148.92</ele>
        <time>2015-09-20T10:12:23Z</time>
      </trkpt>
      <trkpt lat="49.23893" lon="1.42562">
        <ele>152.21</ele>
        <time>2015-09-20T10:12:34Z</time>
      </trkpt>
      <trkpt lat="49.23876" lon="1.42525">
        <ele>155.42</ele>
        <time>2015-09-20T10:12:45Z</time>
      </trkpt>
      <trkpt lat="49.23881" lon="1.42522">
        <ele>155.61</ele>
        <time>2015-09-20T10:12:46Z</time>
      </trkpt>
      <trkpt lat="49.23885" lon="1.42519">
        <ele>155.83</ele>
        <time>2015-09-20T10:12:47Z</time>
      </trkpt>
      <trkpt lat="49.2389" lon="1.42517">
        <ele>156.05</ele>
        <time>2015-09-20T10:12:48Z</time>
      </trkpt>
      <trkpt lat="49.23894" lon="1.42515">
        <ele>156.34</ele>
        <time>2015-09-20T10:12:49Z</time>
      </trkpt>
      <trkpt lat="49.23937" lon="1.42506">
        <ele>159.55</ele>
        <time>2015-09-20T10:13:00Z</time>
      </trkpt>
      <trkpt lat="49.23981" lon="1.42497">
        <ele>162.82</ele>
        <time>2015-09-20T10:13:14Z</time>
      </trkpt>
      <trkpt lat="49.24002" lon="1.42479">
        <ele>164.99</ele>
        <time>2015-09-20T10:13:21Z</time>
      </trkpt>
      <trkpt lat="49.24004" lon="1.42473">
        <ele>165.34</ele>
        <time>2015-09-20T10:13:22Z</time>
      </trkpt>
      <trkpt lat="49.24005" lon="1.42466">
        <ele>165.62</ele>
        <time>2015-09-20T10:13:23Z</time>
      </trkpt>
      <trkpt lat="49.24004" lon="1.42459">
        <ele>165.73</ele>
        <time>2015-09-20T10:13:24Z</time>
      </trkpt>
      <trkpt lat="49.24003" lon="1.42453">
        <ele>165.81</ele>
        <time>2015-09-20T10:13:25Z</time>
      </trkpt>
      <trkpt lat="49.24001" lon="1.42447">
        <ele>165.95</ele>
        <time>2015-09-20T10:13:26Z</time>
      </trkpt>
      <trkpt lat="49.23996" lon="1.42443">
        <ele>166.14</ele>
        <time>2015-09-20T10:13:27Z</time>
      </trkpt>
      <trkpt lat="49.23993" lon="1.4244">
        <ele>166.31</ele>
        <time>2015-09-20T10:13:28Z</time>
      </trkpt>
      <trkpt lat="49.23989" lon="1.42438">
        <ele>166.53</ele>
        <time>2015-09-20T10:13:29Z</time>
      </trkpt>
      <trkpt lat="49.23985" lon="1.42436">
        <ele>166.77</ele>
        <time>2015-09-20T10:13:30Z</time>
      </trkpt>
      <trkpt lat="49.23981" lon="1.42436">
        <ele>167.02</ele>
        <time>2015-09-20T10:13:31Z</time>
      </trkpt>
      <trkpt lat="49.23977" lon="1.42435">
        <ele>167.34</ele>
        <time>2015-09-20T10:13:32Z</time>
      </trkpt>
      <trkpt lat="49.23933" lon="1.42431">
        <ele>170.52</ele>
        <time>2015-09-20T10:13:43Z</time>
      </trkpt>
      <trkpt lat="49.23893" lon="1.42426">
        <ele>173.78</ele>
        <time>2015-09-20T10:13:53Z</time>
      </trkpt>
      <trkpt lat="49.23846" lon="1.42421">
        <ele>177.1</ele>
        <time>2015-09-20T10:14:05Z</time>
      </trkpt>
      <trkpt lat="49.23806" lon="1.42415">
        <ele>180.35</ele>
        <time>2015-09-20T10:14:15Z</time>
      </trkpt>
      <trkpt lat="49.23762" lon="1.42412">
        <ele>183.38</ele>
        <time>2015-09-20T10:14:27Z</time>
      </trkpt>
      <trkpt lat="49.23745" lon="1.42405">
        <ele>184.48</ele>
        <time>2015-09-20T10:14:34Z</time>
      </trkpt>
      <trkpt lat="49.23743" lon="1.42406">
        <ele>184.59</ele>
        <time>2015-09-20T10:14:35Z</time>
      </trkpt>
      <trkpt lat="49.23743" lon="1.42408">
        <ele>184.72</ele>
        <time>2015-09-20T10:14:36Z</time>
      </trkpt>
      <trkpt lat="49.23744" lon="1.4241">
        <ele>184.8</ele>
        <time>2015-09-20T10:14:37Z</time>
      </trkpt>
      <trkpt lat="49.23745" lon="1.42412">
        <ele>184.83</ele>
        <time>2015-09-20T10:14:38Z</time>
      </trkpt>
      <trkpt lat="49.23746" lon="1.42413">
        <ele>184.92</ele>
        <time>2015-09-20T10:14:39Z</time>
      </trkpt>
      <trkpt lat="49.23748" lon="1.42415">
        <ele>185.06</ele>
        <time>2015-09-20T10:14:40Z</time>
      </trkpt>
      <trkpt lat="49.23749" lon="1.42416">
        <ele>185.16</ele>
        <time>2015-09-20T10:14:41Z</time>
      </trkpt>
      <trkpt lat="49.23751" lon="1.42417">
        <ele>185</ele>
        <time>2015-09-20T10:14:42Z</time>
      </trkpt>
      <trkpt lat="49.23753" lon="1.42418">
        <ele>184.81</ele>
        <time>2015-09-20T10:14:43Z</time>
      </trkpt>
      <trkpt lat="49.23756" lon="1.42418">
        <ele>184.65</ele>
        <time>2015-09-20T10:14:44Z</time>
      </trkpt>
      <trkpt lat="49.23757" lon="1.42416">
        <ele>184.57</ele>
        <time>2015-09-20T10:14:45Z</time>
      </trkpt>
      <trkpt lat="49.23757" lon="1.42412">
        <ele>184.55</ele>
        <time>2015-09-20T10:14:46Z</time>
      </trkpt>
      <trkpt lat="49.23755" lon="1.4241">
        <ele>184.54</ele>
        <time>2015-09-20T10:14:47Z</time>
      </trkpt>
      <trkpt lat="49.23753" lon="1.42408">
        <ele>184.47</ele>
        <time>2015-09-20T10:14:48Z</time>
      </trkpt>
      <trkpt lat="49.23751" lon="1.42406">
        <ele>184.41</ele>
        <time>2015-09-20T10:14:49Z</time>
      </trkpt>
      <trkpt lat="49.2375" lon="1.42403">
        <ele>184.45</ele>
        <time>2015-09-20T10:14:50Z</time>
      </trkpt>
      <trkpt lat="49.23748" lon="1.424">
        <ele>184.63</ele>
        <time>2015-09-20T10:14:51Z</time>
      </trkpt>
      <trkpt lat="49.23748" lon="1.42397">
        <ele>184.79</ele>
        <time>2015-09-20T10:14:52Z</time>
      </trkpt>
      <trkpt lat="49.23749" lon="1.42393">
        <ele>184.9</ele>
        <time>2015-09-20T10:14:53Z</time>
      </trkpt>
      <trkpt lat="49.2375" lon="1.4239">
        <ele>184.99</ele>
        <time>2015-09-20T10:14:54Z</time>
      </trkpt>
      <trkpt lat="49.23796" lon="1.42356">
        <ele>185.64</ele>
        <time>2015-09-20T10:15:09Z</time>
      </trkpt>
      <trkpt lat="49.23845" lon="1.42344">
        <ele>185.24</ele>
        <time>2015-09-20T10:15:19Z</time>
      </trkpt>
      <trkpt lat="49.23892" lon="1.42324">
        <ele>183.75</ele>
        <time>2015-09-20T10:15:29Z</time>
      </trkpt>
      <trkpt lat="49.23919" lon="1.42316">
        <ele>182.68</ele>
        <time>2015-09-20T10:15:35Z</time>
      </trkpt>
      <trkpt lat="49.23925" lon="1.42316">
        <ele>181.71</ele>
        <time>2015-09-20T10:15:36Z</time>
      </trkpt>
      <trkpt lat="49.23931" lon="1.42317">
        <ele>180.19</ele>
        <time>2015-09-20T10:15:37Z</time>
      </trkpt>
      <trkpt lat="49.23948" lon="1.42322">
        <ele>176.88</ele>
        <time>2015-09-20T10:15:40Z</time>
      </trkpt>
      <trkpt lat="49.23959" lon="1.42327">
        <ele>174.83</ele>
        <time>2015-09-20T10:15:42Z</time>
      </trkpt>
      <trkpt lat="49.23964" lon="1.42331">
        <ele>174.54</ele>
        <time>2015-09-20T10:15:43Z</time>
      </trkpt>
      <trkpt lat="49.23968" lon="1.42335">
        <ele>172.65</ele>
        <time>2015-09-20T10:15:44Z</time>
      </trkpt>
      <trkpt lat="49.23989" lon="1.4236">
        <ele>169.08</ele>
        <time>2015-09-20T10:15:48Z</time>
      </trkpt>
      <trkpt lat="49.24005" lon="1.4238">
        <ele>166.07</ele>
        <time>2015-09-20T10:15:51Z</time>
      </trkpt>
      <trkpt lat="49.24028" lon="1.42407">
        <ele>162.05</ele>
        <time>2015-09-20T10:15:55Z</time>
      </trkpt>
      <trkpt lat="49.24035" lon="1.42413">
        <ele>160.82</ele>
        <time>2015-09-20T10:15:56Z</time>
      </trkpt>
      <trkpt lat="49.24053" lon="1.42429">
        <ele>156.69</ele>
        <time>2015-09-20T10:15:59Z</time>
      </trkpt>
      <trkpt lat="49.24075" lon="1.42446">
        <ele>153.47</ele>
        <time>2015-09-20T10:16:03Z</time>
      </trkpt>
      <trkpt lat="49.24094" lon="1.42459">
        <ele>149.24</ele>
        <time>2015-09-20T10:16:06Z</time>
      </trkpt>
      <trkpt lat="49.24121" lon="1.4248">
        <ele>145.47</ele>
        <time>2015-09-20T10:16:10Z</time>
      </trkpt>
      <trkpt lat="49.24145" lon="1.42496">
        <ele>142.27</ele>
        <time>2015-09-20T10:16:14Z</time>
      </trkpt>
      <trkpt lat="49.2416" lon="1.42502">
        <ele>139.13</ele>
        <time>2015-09-20T10:16:17Z</time>
      </trkpt>
      <trkpt lat="49.24163" lon="1.42501">
        <ele>137.92</ele>
        <time>2015-09-20T10:16:18Z</time>
      </trkpt>
      <trkpt lat="49.24166" lon="1.42498">
        <ele>137.31</ele>
        <time>2015-09-20T10:16:19Z</time>
      </trkpt>
      <trkpt lat="49.24166" lon="1.42491">
        <ele>136.94</ele>
        <time>2015-09-20T10:16:20Z</time>
      </trkpt>
      <trkpt lat="49.24165" lon="1.42484">
        <ele>136.49</ele>
        <time>2015-09-20T10:16:21Z</time>
      </trkpt>
      <trkpt lat="49.24164" lon="1.42477">
        <ele>136</ele>
        <time>2015-09-20T10:16:22Z</time>
      </trkpt>
      <trkpt lat="49.24163" lon="1.42471">
        <ele>135.46</ele>
        <time>2015-09-20T10:16:23Z</time>
      </trkpt>
      <trkpt lat="49.24162" lon="1.42464">
        <ele>134.6</ele>
        <time>2015-09-20T10:16:24Z</time>
      </trkpt>
      <trkpt lat="49.24165" lon="1.4244">
        <ele>131.86</ele>
        <time>2015-09-20T10:16:28Z</time>
      </trkpt>
      <trkpt lat="49.24167" lon="1.42437">
        <ele>131.18</ele>
        <time>2015-09-20T10:16:29Z</time>
      </trkpt>
      <trkpt lat="49.24173" lon="1.42437">
        <ele>130.65</ele>
        <time>2015-09-20T10:16:30Z</time>
      </trkpt>
      <trkpt lat="49.2419" lon="1.42434">
        <ele>127.2</ele>
        <time>2015-09-20T10:16:33Z</time>
      </trkpt>
      <trkpt lat="49.24211" lon="1.42433">
        <ele>123.91</ele>
        <time>2015-09-20T10:16:36Z</time>
      </trkpt>
      <trkpt lat="49.24234" lon="1.42432">
        <ele>119.73</ele>
        <time>2015-09-20T10:16:39Z</time>
      </trkpt>
      <trkpt lat="49.24253" lon="1.42433">
        <ele>115.38</ele>
        <time>2015-09-20T10:16:42Z</time>
      </trkpt>
      <trkpt lat="49.24276" lon="1.42433">
        <ele>111.6</ele>
        <time>2015-09-20T10:16:46Z</time>
      </trkpt>
      <trkpt lat="49.24303" lon="1.42431">
        <ele>108.05</ele>
        <time>2015-09-20T10:16:51Z</time>
      </trkpt>
      <trkpt lat="49.2432" lon="1.42431">
        <ele>104.35</ele>
        <time>2015-09-20T10:16:54Z</time>
      </trkpt>
      <trkpt lat="49.2434" lon="1.42428">
        <ele>100.79</ele>
        <time>2015-09-20T10:16:58Z</time>
      </trkpt>
      <trkpt lat="49.24344" lon="1.42425">
        <ele>100.1</ele>
        <time>2015-09-20T10:16:59Z</time>
      </trkpt>
      <trkpt lat="49.24367" lon="1.42408">
        <ele>97.06</ele>
        <time>2015-09-20T10:17:03Z</time>
      </trkpt>
      <trkpt lat="49.24386" lon="1.42392">
        <ele>95.04</ele>
        <time>2015-09-20T10:17:06Z</time>
      </trkpt>
      <trkpt lat="49.2439" lon="1.42385">
        <ele>94.45</ele>
        <time>2015-09-20T10:17:07Z</time>
      </trkpt>
      <trkpt lat="49.24394" lon="1.42377">
        <ele>94.04</ele>
        <time>2015-09-20T10:17:08Z</time>
      </trkpt>
      <trkpt lat="49.24396" lon="1.42368">
        <ele>93.12</ele>
        <time>2015-09-20T10:17:09Z</time>
      </trkpt>
      <trkpt lat="49.24399" lon="1.42359">
        <ele>92.28</ele>
        <time>2015-09-20T10:17:10Z</time>
      </trkpt>
      <trkpt lat="49.24405" lon="1.42343">
        <ele>90.76</ele>
        <time>2015-09-20T10:17:12Z</time>
      </trkpt>
      <trkpt lat="49.2441" lon="1.42337">
        <ele>90.05</ele>
        <time>2015-09-20T10:17:13Z</time>
      </trkpt>
      <trkpt lat="49.24415" lon="1.42332">
        <ele>89.44</ele>
        <time>2015-09-20T10:17:14Z</time>
      </trkpt>
      <trkpt lat="49.24421" lon="1.42329">
        <ele>88.63</ele>
        <time>2015-09-20T10:17:15Z</time>
      </trkpt>
      <trkpt lat="49.24427" lon="1.42328">
        <ele>87.83</ele>
        <time>2015-09-20T10:17:16Z</time>
      </trkpt>
      <trkpt lat="49.24433" lon="1.42327">
        <ele>86.93</ele>
        <time>2015-09-20T10:17:17Z</time>
      </trkpt>
      <trkpt lat="49.24442" lon="1.42329">
        <ele>85.87</ele>
        <time>2015-09-20T10:17:18Z</time>
      </trkpt>
      <trkpt lat="49.24452" lon="1.42334">
        <ele>85.17</ele>
        <time>2015-09-20T10:17:19Z</time>
      </trkpt>
      <trkpt lat="49.24461" lon="1.42336">
        <ele>84.44</ele>
        <time>2015-09-20T10:17:20Z</time>
      </trkpt>
      <trkpt lat="49.24489" lon="1.4234">
        <ele>80.33</ele>
        <time>2015-09-20T10:17:23Z</time>
      </trkpt>
      <trkpt lat="49.24512" lon="1.42342">
        <ele>76.82</ele>
        <time>2015-09-20T10:17:26Z</time>
      </trkpt>
      <trkpt lat="49.24524" lon="1.42346">
        <ele>74.48</ele>
        <time>2015-09-20T10:17:28Z</time>
      </trkpt>
      <trkpt lat="49.24529" lon="1.42348">
        <ele>73.92</ele>
        <time>2015-09-20T10:17:29Z</time>
      </trkpt>
      <trkpt lat="49.24543" lon="1.42362">
        <ele>70.9</ele>
        <time>2015-09-20T10:17:35Z</time>
      </trkpt>
      <trkpt lat="49.24544" lon="1.42364">
        <ele>70.84</ele>
        <time>2015-09-20T10:17:38Z</time>
      </trkpt>
      <trkpt lat="49.24546" lon="1.42362">
        <ele>71</ele>
        <time>2015-09-20T10:17:40Z</time>
      </trkpt>
      <trkpt lat="49.24547" lon="1.4236">
        <ele>71.14</ele>
        <time>2015-09-20T10:17:41Z</time>
      </trkpt>
      <trkpt lat="49.24547" lon="1.42356">
        <ele>71.08</ele>
        <time>2015-09-20T10:17:42Z</time>
      </trkpt>
      <trkpt lat="49.24547" lon="1.42351">
        <ele>70.97</ele>
        <time>2015-09-20T10:17:43Z</time>
      </trkpt>
      <trkpt lat="49.24548" lon="1.42345">
        <ele>70.91</ele>
        <time>2015-09-20T10:17:44Z</time>
      </trkpt>
      <trkpt lat="49.24548" lon="1.42322">
        <ele>70.36</ele>
        <time>2015-09-20T10:17:47Z</time>
      </trkpt>
      <trkpt lat="49.24548" lon="1.42314">
        <ele>70.17</ele>
        <time>2015-09-20T10:17:48Z</time>
      </trkpt>
      <trkpt lat="49.24548" lon="1.42306">
        <ele>69.96</ele>
        <time>2015-09-20T10:17:49Z</time>
      </trkpt>
      <trkpt lat="49.2455" lon="1.423">
        <ele>69.85</ele>
        <time>2015-09-20T10:17:50Z</time>
      </trkpt>
      <trkpt lat="49.24551" lon="1.42297">
        <ele>69.7</ele>
        <time>2015-09-20T10:17:51Z</time>
      </trkpt>
      <trkpt lat="49.24555" lon="1.42294">
        <ele>69.45</ele>
        <time>2015-09-20T10:17:52Z</time>
      </trkpt>
      <trkpt lat="49.2456" lon="1.42291">
        <ele>69.1</ele>
        <time>2015-09-20T10:17:53Z</time>
      </trkpt>
      <trkpt lat="49.24567" lon="1.42288">
        <ele>68.8</ele>
        <time>2015-09-20T10:17:54Z</time>
      </trkpt>
      <trkpt lat="49.2462" lon="1.4226">
        <ele>65.83</ele>
        <time>2015-09-20T10:18:02Z</time>
      </trkpt>
      <trkpt lat="49.24667" lon="1.42243">
        <ele>63.91</ele>
        <time>2015-09-20T10:18:10Z</time>
      </trkpt>
      <trkpt lat="49.24685" lon="1.42243">
        <ele>64.02</ele>
        <time>2015-09-20T10:18:19Z</time>
      </trkpt>
      <trkpt lat="49.24686" lon="1.42242">
        <ele>64.19</ele>
        <time>2015-09-20T10:18:20Z</time>
      </trkpt>
      <trkpt lat="49.24688" lon="1.42241">
        <ele>64.47</ele>
        <time>2015-09-20T10:18:21Z</time>
      </trkpt>
      <trkpt lat="49.24691" lon="1.42239">
        <ele>64.54</ele>
        <time>2015-09-20T10:18:22Z</time>
      </trkpt>
      <trkpt lat="49.24693" lon="1.42236">
        <ele>64.48</ele>
        <time>2015-09-20T10:18:23Z</time>
      </trkpt>
      <trkpt lat="49.24695" lon="1.42231">
        <ele>64.28</ele>
        <time>2015-09-20T10:18:24Z</time>
      </trkpt>
      <trkpt lat="49.24713" lon="1.42211">
        <ele>64.42</ele>
        <time>2015-09-20T10:18:30Z</time>
      </trkpt>
      <trkpt lat="49.24756" lon="1.42212">
        <ele>65.26</ele>
        <time>2015-09-20T10:18:44Z</time>
      </trkpt>
      <trkpt lat="49.2476" lon="1.4223">
        <ele>65.39</ele>
        <time>2015-09-20T10:18:49Z</time>
      </trkpt>
      <trkpt lat="49.24758" lon="1.42245">
        <ele>65.38</ele>
        <time>2015-09-20T10:18:54Z</time>
      </trkpt>
      <trkpt lat="49.24756" lon="1.42249">
        <ele>65.83</ele>
        <time>2015-09-20T10:19:12Z</time>
      </trkpt>
      <trkpt lat="49.24759" lon="1.42249">
        <ele>65.75</ele>
        <time>2015-09-20T10:19:16Z</time>
      </trkpt>
      <trkpt lat="49.24761" lon="1.4225">
        <ele>66.35</ele>
        <time>2015-09-20T10:19:24Z</time>
      </trkpt>
    </trkseg>
  </trk>
</gpx>